<?xml version="1.0" encoding="UTF-8" standalone="no" ?>
<gpx xmlns="http://www.topografix.com/GPX/1/1" xmlns:xsi="http://www.w3.org/2001/XMLSchema-instance" xsi:schemaLocation="http://www.topografix.com/GPX/1/1 http://www.topografix.com/GPX/1/1/gpx.xsd" version="1.1" creator="VisuGPX - https://www.visugpx.com">
  <metadata>
    <name>Mont ST Aubert Thimougie robin</name>
  </metadata>
  <trk>
    <name><![CDATA[Mont ST Aubert Thimougie robin]]></name>
    <trkseg>
      <trkpt lat="50.50335" lon="3.46236">
        <ele>20.598982</ele>
        <time>2019-09-17T11:29:22.000Z</time>
      </trkpt>
      <trkpt lat="50.50335" lon="3.46236">
        <ele>20.598982</ele>
        <time>2019-09-17T11:29:22.044Z</time>
      </trkpt>
      <trkpt lat="50.50345" lon="3.46155">
        <ele>20.598982</ele>
        <time>2019-09-17T11:29:29.113Z</time>
      </trkpt>
      <trkpt lat="50.50361" lon="3.46074">
        <ele>20.521998</ele>
        <time>2019-09-17T11:29:36.139Z</time>
      </trkpt>
      <trkpt lat="50.50393" lon="3.45929">
        <ele>20.055269</ele>
        <time>2019-09-17T11:29:49.349Z</time>
      </trkpt>
      <trkpt lat="50.5041" lon="3.45851">
        <ele>19.803348</ele>
        <time>2019-09-17T11:29:56.223Z</time>
      </trkpt>
      <trkpt lat="50.50424" lon="3.45772">
        <ele>19.530973</ele>
        <time>2019-09-17T11:30:03.280Z</time>
      </trkpt>
      <trkpt lat="50.50433" lon="3.4572">
        <ele>19.345189</ele>
        <time>2019-09-17T11:30:07.934Z</time>
      </trkpt>
      <trkpt lat="50.50436" lon="3.45642">
        <ele>19.079425</ele>
        <time>2019-09-17T11:30:14.571Z</time>
      </trkpt>
      <trkpt lat="50.50437" lon="3.45631">
        <ele>19.041635</ele>
        <time>2019-09-17T11:30:15.380Z</time>
      </trkpt>
      <trkpt lat="50.5044" lon="3.45588">
        <ele>18.892207</ele>
        <time>2019-09-17T11:30:19.488Z</time>
      </trkpt>
      <trkpt lat="50.50441" lon="3.45573">
        <ele>18.839561</ele>
        <time>2019-09-17T11:30:20.641Z</time>
      </trkpt>
      <trkpt lat="50.50441" lon="3.45568">
        <ele>18.821972</ele>
        <time>2019-09-17T11:30:21.084Z</time>
      </trkpt>
      <trkpt lat="50.50443" lon="3.45552">
        <ele>18.762556</ele>
        <time>2019-09-17T11:30:22.438Z</time>
      </trkpt>
      <trkpt lat="50.50448" lon="3.45508">
        <ele>18.506614</ele>
        <time>2019-09-17T11:30:25.866Z</time>
      </trkpt>
      <trkpt lat="50.50447" lon="3.4549">
        <ele>18.398806</ele>
        <time>2019-09-17T11:30:27.301Z</time>
      </trkpt>
      <trkpt lat="50.50444" lon="3.45482">
        <ele>18.343782</ele>
        <time>2019-09-17T11:30:28.109Z</time>
      </trkpt>
      <trkpt lat="50.50448" lon="3.4547">
        <ele>18.265266</ele>
        <time>2019-09-17T11:30:29.091Z</time>
      </trkpt>
      <trkpt lat="50.50458" lon="3.45443">
        <ele>18.08223</ele>
        <time>2019-09-17T11:30:31.542Z</time>
      </trkpt>
      <trkpt lat="50.50468" lon="3.45372">
        <ele>17.659947</ele>
        <time>2019-09-17T11:30:37.229Z</time>
      </trkpt>
      <trkpt lat="50.50471" lon="3.45343">
        <ele>17.488313</ele>
        <time>2019-09-17T11:30:39.594Z</time>
      </trkpt>
      <trkpt lat="50.50473" lon="3.45332">
        <ele>17.42629</ele>
        <time>2019-09-17T11:30:40.397Z</time>
      </trkpt>
      <trkpt lat="50.50477" lon="3.45312">
        <ele>17.300933</ele>
        <time>2019-09-17T11:30:42.158Z</time>
      </trkpt>
      <trkpt lat="50.50513" lon="3.45201">
        <ele>16.749196</ele>
        <time>2019-09-17T11:30:52.075Z</time>
      </trkpt>
      <trkpt lat="50.50531" lon="3.45152">
        <ele>16.522226</ele>
        <time>2019-09-17T11:30:56.644Z</time>
      </trkpt>
      <trkpt lat="50.50539" lon="3.45133">
        <ele>16.429432</ele>
        <time>2019-09-17T11:30:58.454Z</time>
      </trkpt>
      <trkpt lat="50.50551" lon="3.45111">
        <ele>16.314982</ele>
        <time>2019-09-17T11:31:00.893Z</time>
      </trkpt>
      <trkpt lat="50.50599" lon="3.45026">
        <ele>15.962633</ele>
        <time>2019-09-17T11:31:10.870Z</time>
      </trkpt>
      <trkpt lat="50.50652" lon="3.44916">
        <ele>15.834823</ele>
        <time>2019-09-17T11:31:23.716Z</time>
      </trkpt>
      <trkpt lat="50.50661" lon="3.44894">
        <ele>15.810949</ele>
        <time>2019-09-17T11:31:25.982Z</time>
      </trkpt>
      <trkpt lat="50.50673" lon="3.44871">
        <ele>15.782971</ele>
        <time>2019-09-17T11:31:28.882Z</time>
      </trkpt>
      <trkpt lat="50.50707" lon="3.44823">
        <ele>15.7248</ele>
        <time>2019-09-17T11:31:35.358Z</time>
      </trkpt>
      <trkpt lat="50.51095" lon="3.44486">
        <ele>15.520637</ele>
        <time>2019-09-17T11:32:39.754Z</time>
      </trkpt>
      <trkpt lat="50.51116" lon="3.44468">
        <ele>15.535331</ele>
        <time>2019-09-17T11:32:43.542Z</time>
      </trkpt>
      <trkpt lat="50.51187" lon="3.44406">
        <ele>15.646608</ele>
        <time>2019-09-17T11:32:56.124Z</time>
      </trkpt>
      <trkpt lat="50.5119" lon="3.44403">
        <ele>15.663286</ele>
        <time>2019-09-17T11:32:56.919Z</time>
      </trkpt>
      <trkpt lat="50.51287" lon="3.44364">
        <ele>16.046411</ele>
        <time>2019-09-17T11:33:13.440Z</time>
      </trkpt>
      <trkpt lat="50.51322" lon="3.4435">
        <ele>16.183246</ele>
        <time>2019-09-17T11:33:19.310Z</time>
      </trkpt>
      <trkpt lat="50.5134" lon="3.44349">
        <ele>16.254724</ele>
        <time>2019-09-17T11:33:22.507Z</time>
      </trkpt>
      <trkpt lat="50.51346" lon="3.4435">
        <ele>16.270375</ele>
        <time>2019-09-17T11:33:23.453Z</time>
      </trkpt>
      <trkpt lat="50.5139" lon="3.44363">
        <ele>16.360366</ele>
        <time>2019-09-17T11:33:30.751Z</time>
      </trkpt>
      <trkpt lat="50.51573" lon="3.44428">
        <ele>16.471433</ele>
        <time>2019-09-17T11:33:59.677Z</time>
      </trkpt>
      <trkpt lat="50.51599" lon="3.44445">
        <ele>16.394836</ele>
        <time>2019-09-17T11:34:03.460Z</time>
      </trkpt>
      <trkpt lat="50.51714" lon="3.44519">
        <ele>16.05743</ele>
        <time>2019-09-17T11:34:19.935Z</time>
      </trkpt>
      <trkpt lat="50.51727" lon="3.44527">
        <ele>16.021638</ele>
        <time>2019-09-17T11:34:21.676Z</time>
      </trkpt>
      <trkpt lat="50.51818" lon="3.44585">
        <ele>15.761041</ele>
        <time>2019-09-17T11:34:35.097Z</time>
      </trkpt>
      <trkpt lat="50.51845" lon="3.44602">
        <ele>15.685263</ele>
        <time>2019-09-17T11:34:39.420Z</time>
      </trkpt>
      <trkpt lat="50.5192" lon="3.44671">
        <ele>15.950889</ele>
        <time>2019-09-17T11:34:53.200Z</time>
      </trkpt>
      <trkpt lat="50.51925" lon="3.44675">
        <ele>15.973048</ele>
        <time>2019-09-17T11:34:54.212Z</time>
      </trkpt>
      <trkpt lat="50.51933" lon="3.44684">
        <ele>16.0121</ele>
        <time>2019-09-17T11:34:56.206Z</time>
      </trkpt>
      <trkpt lat="50.51953" lon="3.44702">
        <ele>16.098185</ele>
        <time>2019-09-17T11:34:59.751Z</time>
      </trkpt>
      <trkpt lat="50.51991" lon="3.44724">
        <ele>16.254691</ele>
        <time>2019-09-17T11:35:06.693Z</time>
      </trkpt>
      <trkpt lat="50.52029" lon="3.44725">
        <ele>16.381065</ele>
        <time>2019-09-17T11:35:13.112Z</time>
      </trkpt>
      <trkpt lat="50.52034" lon="3.44722">
        <ele>16.393202</ele>
        <time>2019-09-17T11:35:14.155Z</time>
      </trkpt>
      <trkpt lat="50.52072" lon="3.44707">
        <ele>16.4896</ele>
        <time>2019-09-17T11:35:20.759Z</time>
      </trkpt>
      <trkpt lat="50.52089" lon="3.44693">
        <ele>16.53809</ele>
        <time>2019-09-17T11:35:23.808Z</time>
      </trkpt>
      <trkpt lat="50.52092" lon="3.44691">
        <ele>16.544647</ele>
        <time>2019-09-17T11:35:24.227Z</time>
      </trkpt>
      <trkpt lat="50.52105" lon="3.44679">
        <ele>16.581735</ele>
        <time>2019-09-17T11:35:26.703Z</time>
      </trkpt>
      <trkpt lat="50.52116" lon="3.44669">
        <ele>16.614443</ele>
        <time>2019-09-17T11:35:28.734Z</time>
      </trkpt>
      <trkpt lat="50.52143" lon="3.44666">
        <ele>16.679883</ele>
        <time>2019-09-17T11:35:32.907Z</time>
      </trkpt>
      <trkpt lat="50.52154" lon="3.44675">
        <ele>16.711195</ele>
        <time>2019-09-17T11:35:34.771Z</time>
      </trkpt>
      <trkpt lat="50.52189" lon="3.44712">
        <ele>16.779826</ele>
        <time>2019-09-17T11:35:40.943Z</time>
      </trkpt>
      <trkpt lat="50.52222" lon="3.44745">
        <ele>16.741854</ele>
        <time>2019-09-17T11:35:46.529Z</time>
      </trkpt>
      <trkpt lat="50.52251" lon="3.448">
        <ele>16.6981</ele>
        <time>2019-09-17T11:35:53.041Z</time>
      </trkpt>
      <trkpt lat="50.52281" lon="3.44844">
        <ele>16.658326</ele>
        <time>2019-09-17T11:35:58.949Z</time>
      </trkpt>
      <trkpt lat="50.52311" lon="3.44887">
        <ele>16.619685</ele>
        <time>2019-09-17T11:36:04.750Z</time>
      </trkpt>
      <trkpt lat="50.52348" lon="3.44962">
        <ele>16.690453</ele>
        <time>2019-09-17T11:36:13.785Z</time>
      </trkpt>
      <trkpt lat="50.52354" lon="3.44967">
        <ele>16.699929</ele>
        <time>2019-09-17T11:36:14.882Z</time>
      </trkpt>
      <trkpt lat="50.52364" lon="3.44971">
        <ele>16.713046</ele>
        <time>2019-09-17T11:36:16.447Z</time>
      </trkpt>
      <trkpt lat="50.52397" lon="3.4497">
        <ele>16.75607</ele>
        <time>2019-09-17T11:36:21.694Z</time>
      </trkpt>
      <trkpt lat="50.52446" lon="3.44967">
        <ele>16.819142</ele>
        <time>2019-09-17T11:36:29.366Z</time>
      </trkpt>
      <trkpt lat="50.52465" lon="3.44966">
        <ele>16.844242</ele>
        <time>2019-09-17T11:36:32.311Z</time>
      </trkpt>
      <trkpt lat="50.52496" lon="3.44968">
        <ele>16.89229</ele>
        <time>2019-09-17T11:36:37.211Z</time>
      </trkpt>
      <trkpt lat="50.52556" lon="3.44992">
        <ele>16.989012</ele>
        <time>2019-09-17T11:36:46.789Z</time>
      </trkpt>
      <trkpt lat="50.52569" lon="3.45007">
        <ele>17.015182</ele>
        <time>2019-09-17T11:36:49.206Z</time>
      </trkpt>
      <trkpt lat="50.52594" lon="3.45088">
        <ele>17.104725</ele>
        <time>2019-09-17T11:36:57.950Z</time>
      </trkpt>
      <trkpt lat="50.52608" lon="3.45115">
        <ele>17.151032</ele>
        <time>2019-09-17T11:37:01.183Z</time>
      </trkpt>
      <trkpt lat="50.52695" lon="3.45217">
        <ele>17.690389</ele>
        <time>2019-09-17T11:37:18.694Z</time>
      </trkpt>
      <trkpt lat="50.52698" lon="3.45225">
        <ele>17.722187</ele>
        <time>2019-09-17T11:37:19.861Z</time>
      </trkpt>
      <trkpt lat="50.52707" lon="3.45261">
        <ele>17.843382</ele>
        <time>2019-09-17T11:37:24.116Z</time>
      </trkpt>
      <trkpt lat="50.52719" lon="3.45338">
        <ele>18.142213</ele>
        <time>2019-09-17T11:37:33.300Z</time>
      </trkpt>
      <trkpt lat="50.52726" lon="3.45386">
        <ele>18.416506</ele>
        <time>2019-09-17T11:37:39.148Z</time>
      </trkpt>
      <trkpt lat="50.52741" lon="3.45438">
        <ele>18.734255</ele>
        <time>2019-09-17T11:37:46.068Z</time>
      </trkpt>
      <trkpt lat="50.52758" lon="3.45546">
        <ele>19.351322</ele>
        <time>2019-09-17T11:37:59.249Z</time>
      </trkpt>
      <trkpt lat="50.52769" lon="3.45601">
        <ele>19.654605</ele>
        <time>2019-09-17T11:38:05.778Z</time>
      </trkpt>
      <trkpt lat="50.52802" lon="3.4571">
        <ele>20.190873</ele>
        <time>2019-09-17T11:38:19.326Z</time>
      </trkpt>
      <trkpt lat="50.52899" lon="3.46191">
        <ele>22.663107</ele>
        <time>2019-09-17T11:39:15.557Z</time>
      </trkpt>
      <trkpt lat="50.52939" lon="3.46351">
        <ele>23.957303</ele>
        <time>2019-09-17T11:39:37.910Z</time>
      </trkpt>
      <trkpt lat="50.52951" lon="3.46484">
        <ele>25.071672</ele>
        <time>2019-09-17T11:39:55.544Z</time>
      </trkpt>
      <trkpt lat="50.53003" lon="3.46805">
        <ele>27.609594</ele>
        <time>2019-09-17T11:40:38.012Z</time>
      </trkpt>
      <trkpt lat="50.53008" lon="3.46817">
        <ele>27.699927</ele>
        <time>2019-09-17T11:40:39.718Z</time>
      </trkpt>
      <trkpt lat="50.53012" lon="3.46822">
        <ele>27.747762</ele>
        <time>2019-09-17T11:40:40.677Z</time>
      </trkpt>
      <trkpt lat="50.53018" lon="3.46828">
        <ele>27.825735</ele>
        <time>2019-09-17T11:40:42.161Z</time>
      </trkpt>
      <trkpt lat="50.53025" lon="3.46829">
        <ele>27.895141</ele>
        <time>2019-09-17T11:40:43.925Z</time>
      </trkpt>
      <trkpt lat="50.53175" lon="3.46773">
        <ele>27.95588</ele>
        <time>2019-09-17T11:41:08.913Z</time>
      </trkpt>
      <trkpt lat="50.53195" lon="3.46763">
        <ele>27.836387</ele>
        <time>2019-09-17T11:41:11.813Z</time>
      </trkpt>
      <trkpt lat="50.532" lon="3.46759">
        <ele>27.805091</ele>
        <time>2019-09-17T11:41:12.319Z</time>
      </trkpt>
      <trkpt lat="50.53267" lon="3.46704">
        <ele>27.23276</ele>
        <time>2019-09-17T11:41:20.810Z</time>
      </trkpt>
      <trkpt lat="50.53356" lon="3.46634">
        <ele>25.823935</ele>
        <time>2019-09-17T11:41:31.887Z</time>
      </trkpt>
      <trkpt lat="50.5341" lon="3.46593">
        <ele>24.978731</ele>
        <time>2019-09-17T11:41:39.201Z</time>
      </trkpt>
      <trkpt lat="50.53601" lon="3.4645">
        <ele>24.315489</ele>
        <time>2019-09-17T11:42:10.634Z</time>
      </trkpt>
      <trkpt lat="50.53712" lon="3.46368">
        <ele>23.120409</ele>
        <time>2019-09-17T11:42:25.561Z</time>
      </trkpt>
      <trkpt lat="50.53812" lon="3.46292">
        <ele>21.715546</ele>
        <time>2019-09-17T11:42:38.083Z</time>
      </trkpt>
      <trkpt lat="50.53844" lon="3.46263">
        <ele>21.220395</ele>
        <time>2019-09-17T11:42:42.286Z</time>
      </trkpt>
      <trkpt lat="50.53856" lon="3.46244">
        <ele>20.98386</ele>
        <time>2019-09-17T11:42:44.369Z</time>
      </trkpt>
      <trkpt lat="50.53878" lon="3.46181">
        <ele>20.38204</ele>
        <time>2019-09-17T11:42:49.837Z</time>
      </trkpt>
      <trkpt lat="50.5388" lon="3.46164">
        <ele>20.340825</ele>
        <time>2019-09-17T11:42:51.175Z</time>
      </trkpt>
      <trkpt lat="50.53949" lon="3.45679">
        <ele>19.381956</ele>
        <time>2019-09-17T11:43:35.757Z</time>
      </trkpt>
      <trkpt lat="50.54021" lon="3.45177">
        <ele>18.522435</ele>
        <time>2019-09-17T11:44:21.211Z</time>
      </trkpt>
      <trkpt lat="50.5404" lon="3.45071">
        <ele>18.340762</ele>
        <time>2019-09-17T11:44:30.870Z</time>
      </trkpt>
      <trkpt lat="50.54079" lon="3.44862">
        <ele>17.923582</ele>
        <time>2019-09-17T11:44:51.079Z</time>
      </trkpt>
      <trkpt lat="50.54083" lon="3.44841">
        <ele>17.881552</ele>
        <time>2019-09-17T11:44:52.800Z</time>
      </trkpt>
      <trkpt lat="50.54086" lon="3.44827">
        <ele>17.852594</ele>
        <time>2019-09-17T11:44:53.997Z</time>
      </trkpt>
      <trkpt lat="50.54086" lon="3.44823">
        <ele>17.84509</ele>
        <time>2019-09-17T11:44:54.485Z</time>
      </trkpt>
      <trkpt lat="50.5411" lon="3.4468">
        <ele>17.273244</ele>
        <time>2019-09-17T11:45:05.973Z</time>
      </trkpt>
      <trkpt lat="50.54123" lon="3.44691">
        <ele>17.177876</ele>
        <time>2019-09-17T11:45:07.935Z</time>
      </trkpt>
      <trkpt lat="50.54138" lon="3.44698">
        <ele>17.079381</ele>
        <time>2019-09-17T11:45:09.924Z</time>
      </trkpt>
      <trkpt lat="50.54141" lon="3.447">
        <ele>17.058027</ele>
        <time>2019-09-17T11:45:10.288Z</time>
      </trkpt>
      <trkpt lat="50.5416" lon="3.44707">
        <ele>16.931053</ele>
        <time>2019-09-17T11:45:13.148Z</time>
      </trkpt>
      <trkpt lat="50.5417" lon="3.44711">
        <ele>16.867094</ele>
        <time>2019-09-17T11:45:14.499Z</time>
      </trkpt>
      <trkpt lat="50.54179" lon="3.44715">
        <ele>16.805741</ele>
        <time>2019-09-17T11:45:15.722Z</time>
      </trkpt>
      <trkpt lat="50.54192" lon="3.4472">
        <ele>16.718869</ele>
        <time>2019-09-17T11:45:17.642Z</time>
      </trkpt>
      <trkpt lat="50.54222" lon="3.44731">
        <ele>16.725307</ele>
        <time>2019-09-17T11:45:21.847Z</time>
      </trkpt>
      <trkpt lat="50.54249" lon="3.44741">
        <ele>16.819608</ele>
        <time>2019-09-17T11:45:25.555Z</time>
      </trkpt>
      <trkpt lat="50.54262" lon="3.44741">
        <ele>16.864033</ele>
        <time>2019-09-17T11:45:27.358Z</time>
      </trkpt>
      <trkpt lat="50.5428" lon="3.44728">
        <ele>16.932794</ele>
        <time>2019-09-17T11:45:30.036Z</time>
      </trkpt>
      <trkpt lat="50.54288" lon="3.44721">
        <ele>16.964013</ele>
        <time>2019-09-17T11:45:31.617Z</time>
      </trkpt>
      <trkpt lat="50.54333" lon="3.44658">
        <ele>17.168451</ele>
        <time>2019-09-17T11:45:42.555Z</time>
      </trkpt>
      <trkpt lat="50.54387" lon="3.4459">
        <ele>17.535867</ele>
        <time>2019-09-17T11:45:56.052Z</time>
      </trkpt>
      <trkpt lat="50.54389" lon="3.44586">
        <ele>17.560936</ele>
        <time>2019-09-17T11:45:56.767Z</time>
      </trkpt>
      <trkpt lat="50.54403" lon="3.4458">
        <ele>17.655014</ele>
        <time>2019-09-17T11:45:59.562Z</time>
      </trkpt>
      <trkpt lat="50.54414" lon="3.4458">
        <ele>17.727536</ele>
        <time>2019-09-17T11:46:01.458Z</time>
      </trkpt>
      <trkpt lat="50.54423" lon="3.4458">
        <ele>17.78668</ele>
        <time>2019-09-17T11:46:02.998Z</time>
      </trkpt>
      <trkpt lat="50.54433" lon="3.44583">
        <ele>17.854479</ele>
        <time>2019-09-17T11:46:04.828Z</time>
      </trkpt>
      <trkpt lat="50.54444" lon="3.44586">
        <ele>17.936097</ele>
        <time>2019-09-17T11:46:06.941Z</time>
      </trkpt>
      <trkpt lat="50.54443" lon="3.44602">
        <ele>18.004842</ele>
        <time>2019-09-17T11:46:09.187Z</time>
      </trkpt>
      <trkpt lat="50.54438" lon="3.44687">
        <ele>18.365989</ele>
        <time>2019-09-17T11:46:21.004Z</time>
      </trkpt>
      <trkpt lat="50.54433" lon="3.44779">
        <ele>18.523959</ele>
        <time>2019-09-17T11:46:33.382Z</time>
      </trkpt>
      <trkpt lat="50.54443" lon="3.44924">
        <ele>18.62989</ele>
        <time>2019-09-17T11:46:51.816Z</time>
      </trkpt>
      <trkpt lat="50.54452" lon="3.44978">
        <ele>18.669756</ele>
        <time>2019-09-17T11:46:58.969Z</time>
      </trkpt>
      <trkpt lat="50.54568" lon="3.45465">
        <ele>20.613048</ele>
        <time>2019-09-17T11:48:14.315Z</time>
      </trkpt>
      <trkpt lat="50.54574" lon="3.45481">
        <ele>20.686792</ele>
        <time>2019-09-17T11:48:17.236Z</time>
      </trkpt>
      <trkpt lat="50.54552" lon="3.45503">
        <ele>20.854108</ele>
        <time>2019-09-17T11:48:23.027Z</time>
      </trkpt>
      <trkpt lat="50.54558" lon="3.45528">
        <ele>20.900068</ele>
        <time>2019-09-17T11:48:27.161Z</time>
      </trkpt>
      <trkpt lat="50.54783" lon="3.46437">
        <ele>22.251527</ele>
        <time>2019-09-17T11:50:38.143Z</time>
      </trkpt>
      <trkpt lat="50.54797" lon="3.46495">
        <ele>22.273231</ele>
        <time>2019-09-17T11:50:45.829Z</time>
      </trkpt>
      <trkpt lat="50.54807" lon="3.46548">
        <ele>22.292517</ele>
        <time>2019-09-17T11:51:24.560Z</time>
      </trkpt>
      <trkpt lat="50.54812" lon="3.46573">
        <ele>22.319127</ele>
        <time>2019-09-17T11:51:42.952Z</time>
      </trkpt>
      <trkpt lat="50.54824" lon="3.46616">
        <ele>22.407243</ele>
        <time>2019-09-17T11:51:48.998Z</time>
      </trkpt>
      <trkpt lat="50.54974" lon="3.47214">
        <ele>23.998772</ele>
        <time>2019-09-17T11:53:19.241Z</time>
      </trkpt>
      <trkpt lat="50.54985" lon="3.47264">
        <ele>24.147329</ele>
        <time>2019-09-17T11:53:26.636Z</time>
      </trkpt>
      <trkpt lat="50.54987" lon="3.47273">
        <ele>24.172338</ele>
        <time>2019-09-17T11:53:27.994Z</time>
      </trkpt>
      <trkpt lat="50.55024" lon="3.47426">
        <ele>24.635733</ele>
        <time>2019-09-17T11:53:50.704Z</time>
      </trkpt>
      <trkpt lat="50.55139" lon="3.47888">
        <ele>26.093577</ele>
        <time>2019-09-17T11:55:00.613Z</time>
      </trkpt>
      <trkpt lat="50.5518" lon="3.48053">
        <ele>26.638438</ele>
        <time>2019-09-17T11:55:25.316Z</time>
      </trkpt>
      <trkpt lat="50.55188" lon="3.48046">
        <ele>26.684003</ele>
        <time>2019-09-17T11:55:26.871Z</time>
      </trkpt>
      <trkpt lat="50.55197" lon="3.48034">
        <ele>26.739491</ele>
        <time>2019-09-17T11:55:28.742Z</time>
      </trkpt>
      <trkpt lat="50.55201" lon="3.48028">
        <ele>26.76762</ele>
        <time>2019-09-17T11:55:29.742Z</time>
      </trkpt>
      <trkpt lat="50.55205" lon="3.4802">
        <ele>26.797387</ele>
        <time>2019-09-17T11:55:30.842Z</time>
      </trkpt>
      <trkpt lat="50.5521" lon="3.48008">
        <ele>26.840855</ele>
        <time>2019-09-17T11:55:32.408Z</time>
      </trkpt>
      <trkpt lat="50.55261" lon="3.47984">
        <ele>27.21116</ele>
        <time>2019-09-17T11:55:41.587Z</time>
      </trkpt>
      <trkpt lat="50.55426" lon="3.47881">
        <ele>28.811265</ele>
        <time>2019-09-17T11:56:13.896Z</time>
      </trkpt>
      <trkpt lat="50.5553" lon="3.47818">
        <ele>30.297181</ele>
        <time>2019-09-17T11:56:36.736Z</time>
      </trkpt>
      <trkpt lat="50.55556" lon="3.47802">
        <ele>30.66374</ele>
        <time>2019-09-17T11:56:42.692Z</time>
      </trkpt>
      <trkpt lat="50.55584" lon="3.47785">
        <ele>31.021026</ele>
        <time>2019-09-17T11:56:49.299Z</time>
      </trkpt>
      <trkpt lat="50.55636" lon="3.47763">
        <ele>31.598754</ele>
        <time>2019-09-17T11:57:00.637Z</time>
      </trkpt>
      <trkpt lat="50.55658" lon="3.47761">
        <ele>31.833023</ele>
        <time>2019-09-17T11:57:05.241Z</time>
      </trkpt>
      <trkpt lat="50.55681" lon="3.4776">
        <ele>32.079766</ele>
        <time>2019-09-17T11:57:09.502Z</time>
      </trkpt>
      <trkpt lat="50.55701" lon="3.47748">
        <ele>32.314346</ele>
        <time>2019-09-17T11:57:13.302Z</time>
      </trkpt>
      <trkpt lat="50.55728" lon="3.47699">
        <ele>32.732926</ele>
        <time>2019-09-17T11:57:19.915Z</time>
      </trkpt>
      <trkpt lat="50.55744" lon="3.47681">
        <ele>32.754245</ele>
        <time>2019-09-17T11:57:22.937Z</time>
      </trkpt>
      <trkpt lat="50.55747" lon="3.47679">
        <ele>32.757434</ele>
        <time>2019-09-17T11:57:23.605Z</time>
      </trkpt>
      <trkpt lat="50.55752" lon="3.47676">
        <ele>32.764075</ele>
        <time>2019-09-17T11:57:24.473Z</time>
      </trkpt>
      <trkpt lat="50.55759" lon="3.47674">
        <ele>32.771385</ele>
        <time>2019-09-17T11:57:25.466Z</time>
      </trkpt>
      <trkpt lat="50.55776" lon="3.47674">
        <ele>32.78961</ele>
        <time>2019-09-17T11:57:28.085Z</time>
      </trkpt>
      <trkpt lat="50.55831" lon="3.47675">
        <ele>32.849529</ele>
        <time>2019-09-17T11:57:36.319Z</time>
      </trkpt>
      <trkpt lat="50.55848" lon="3.47676">
        <ele>32.868633</ele>
        <time>2019-09-17T11:57:38.775Z</time>
      </trkpt>
      <trkpt lat="50.55876" lon="3.47695">
        <ele>32.901543</ele>
        <time>2019-09-17T11:57:43.141Z</time>
      </trkpt>
      <trkpt lat="50.55915" lon="3.47765">
        <ele>33.171282</ele>
        <time>2019-09-17T11:57:51.735Z</time>
      </trkpt>
      <trkpt lat="50.56024" lon="3.47769">
        <ele>33.909727</ele>
        <time>2019-09-17T11:58:11.785Z</time>
      </trkpt>
      <trkpt lat="50.56079" lon="3.47789">
        <ele>34.334937</ele>
        <time>2019-09-17T11:58:22.384Z</time>
      </trkpt>
      <trkpt lat="50.56092" lon="3.47804">
        <ele>34.469349</ele>
        <time>2019-09-17T11:58:25.565Z</time>
      </trkpt>
      <trkpt lat="50.56104" lon="3.47783">
        <ele>34.625935</ele>
        <time>2019-09-17T11:58:28.758Z</time>
      </trkpt>
      <trkpt lat="50.56138" lon="3.47691">
        <ele>35.21583</ele>
        <time>2019-09-17T11:58:41.336Z</time>
      </trkpt>
      <trkpt lat="50.56142" lon="3.47684">
        <ele>35.267854</ele>
        <time>2019-09-17T11:58:42.361Z</time>
      </trkpt>
      <trkpt lat="50.5615" lon="3.4768">
        <ele>35.342567</ele>
        <time>2019-09-17T11:58:44.082Z</time>
      </trkpt>
      <trkpt lat="50.56158" lon="3.47679">
        <ele>35.405555</ele>
        <time>2019-09-17T11:58:45.475Z</time>
      </trkpt>
      <trkpt lat="50.56187" lon="3.47692">
        <ele>35.669619</ele>
        <time>2019-09-17T11:58:50.834Z</time>
      </trkpt>
      <trkpt lat="50.56193" lon="3.47696">
        <ele>35.723794</ele>
        <time>2019-09-17T11:58:52.177Z</time>
      </trkpt>
      <trkpt lat="50.5623" lon="3.47745">
        <ele>36.001859</ele>
        <time>2019-09-17T11:59:00.006Z</time>
      </trkpt>
      <trkpt lat="50.56236" lon="3.47754">
        <ele>36.054865</ele>
        <time>2019-09-17T11:59:01.508Z</time>
      </trkpt>
      <trkpt lat="50.5624" lon="3.47748">
        <ele>36.084258</ele>
        <time>2019-09-17T11:59:02.388Z</time>
      </trkpt>
      <trkpt lat="50.56298" lon="3.47689">
        <ele>36.489454</ele>
        <time>2019-09-17T11:59:14.113Z</time>
      </trkpt>
      <trkpt lat="50.56326" lon="3.47642">
        <ele>36.72634</ele>
        <time>2019-09-17T11:59:21.222Z</time>
      </trkpt>
      <trkpt lat="50.5639" lon="3.47615">
        <ele>37.297733</ele>
        <time>2019-09-17T11:59:32.907Z</time>
      </trkpt>
      <trkpt lat="50.56432" lon="3.47581">
        <ele>37.718333</ele>
        <time>2019-09-17T11:59:41.328Z</time>
      </trkpt>
      <trkpt lat="50.56483" lon="3.4754">
        <ele>38.229637</ele>
        <time>2019-09-17T11:59:52.279Z</time>
      </trkpt>
      <trkpt lat="50.56562" lon="3.47477">
        <ele>39.453336</ele>
        <time>2019-09-17T12:00:10.127Z</time>
      </trkpt>
      <trkpt lat="50.56576" lon="3.47466">
        <ele>39.696945</ele>
        <time>2019-09-17T12:00:13.985Z</time>
      </trkpt>
      <trkpt lat="50.56619" lon="3.47432">
        <ele>40.403224</ele>
        <time>2019-09-17T12:00:23.912Z</time>
      </trkpt>
      <trkpt lat="50.56634" lon="3.47422">
        <ele>40.656446</ele>
        <time>2019-09-17T12:00:27.406Z</time>
      </trkpt>
      <trkpt lat="50.56641" lon="3.47421">
        <ele>40.748563</ele>
        <time>2019-09-17T12:00:28.829Z</time>
      </trkpt>
      <trkpt lat="50.56648" lon="3.47418">
        <ele>40.856165</ele>
        <time>2019-09-17T12:00:30.404Z</time>
      </trkpt>
      <trkpt lat="50.56697" lon="3.47412">
        <ele>41.580374</ele>
        <time>2019-09-17T12:00:40.176Z</time>
      </trkpt>
      <trkpt lat="50.56701" lon="3.47411">
        <ele>41.645463</ele>
        <time>2019-09-17T12:00:41.275Z</time>
      </trkpt>
      <trkpt lat="50.56705" lon="3.47409">
        <ele>41.713422</ele>
        <time>2019-09-17T12:00:42.249Z</time>
      </trkpt>
      <trkpt lat="50.56717" lon="3.47403">
        <ele>41.891095</ele>
        <time>2019-09-17T12:00:44.955Z</time>
      </trkpt>
      <trkpt lat="50.56774" lon="3.47365">
        <ele>42.806024</ele>
        <time>2019-09-17T12:00:57.855Z</time>
      </trkpt>
      <trkpt lat="50.56807" lon="3.47489">
        <ele>43.962398</ele>
        <time>2019-09-17T12:01:15.388Z</time>
      </trkpt>
      <trkpt lat="50.56812" lon="3.47507">
        <ele>44.097187</ele>
        <time>2019-09-17T12:01:17.687Z</time>
      </trkpt>
      <trkpt lat="50.56815" lon="3.47518">
        <ele>44.185231</ele>
        <time>2019-09-17T12:01:19.097Z</time>
      </trkpt>
      <trkpt lat="50.5682" lon="3.47528">
        <ele>44.273913</ele>
        <time>2019-09-17T12:01:20.934Z</time>
      </trkpt>
      <trkpt lat="50.56838" lon="3.47544">
        <ele>44.500189</ele>
        <time>2019-09-17T12:01:24.776Z</time>
      </trkpt>
      <trkpt lat="50.56882" lon="3.47565">
        <ele>45.000018</ele>
        <time>2019-09-17T12:01:33.465Z</time>
      </trkpt>
      <trkpt lat="50.569" lon="3.47571">
        <ele>45.201953</ele>
        <time>2019-09-17T12:01:37.146Z</time>
      </trkpt>
      <trkpt lat="50.56943" lon="3.476">
        <ele>45.667923</ele>
        <time>2019-09-17T12:01:45.741Z</time>
      </trkpt>
      <trkpt lat="50.56963" lon="3.47614">
        <ele>45.767824</ele>
        <time>2019-09-17T12:01:49.998Z</time>
      </trkpt>
      <trkpt lat="50.57008" lon="3.47669">
        <ele>46.030741</ele>
        <time>2019-09-17T12:01:59.678Z</time>
      </trkpt>
      <trkpt lat="50.57068" lon="3.47744">
        <ele>46.381468</ele>
        <time>2019-09-17T12:02:11.880Z</time>
      </trkpt>
      <trkpt lat="50.57079" lon="3.47757">
        <ele>46.441933</ele>
        <time>2019-09-17T12:02:13.902Z</time>
      </trkpt>
      <trkpt lat="50.57106" lon="3.47799">
        <ele>46.55663</ele>
        <time>2019-09-17T12:02:19.612Z</time>
      </trkpt>
      <trkpt lat="50.57133" lon="3.47873">
        <ele>46.708601</ele>
        <time>2019-09-17T12:02:27.552Z</time>
      </trkpt>
      <trkpt lat="50.57171" lon="3.48065">
        <ele>47.322759</ele>
        <time>2019-09-17T12:02:49.082Z</time>
      </trkpt>
      <trkpt lat="50.57175" lon="3.4809">
        <ele>47.483414</ele>
        <time>2019-09-17T12:02:51.780Z</time>
      </trkpt>
      <trkpt lat="50.57179" lon="3.48099">
        <ele>47.557146</ele>
        <time>2019-09-17T12:02:53.446Z</time>
      </trkpt>
      <trkpt lat="50.57191" lon="3.48156">
        <ele>47.941429</ele>
        <time>2019-09-17T12:03:00.696Z</time>
      </trkpt>
      <trkpt lat="50.57235" lon="3.48362">
        <ele>49.154488</ele>
        <time>2019-09-17T12:03:28.452Z</time>
      </trkpt>
      <trkpt lat="50.5724" lon="3.48391">
        <ele>49.289223</ele>
        <time>2019-09-17T12:03:31.981Z</time>
      </trkpt>
      <trkpt lat="50.57246" lon="3.48417">
        <ele>49.411986</ele>
        <time>2019-09-17T12:03:34.953Z</time>
      </trkpt>
      <trkpt lat="50.57252" lon="3.48448">
        <ele>49.558291</ele>
        <time>2019-09-17T12:03:38.581Z</time>
      </trkpt>
      <trkpt lat="50.57263" lon="3.48501">
        <ele>49.81002</ele>
        <time>2019-09-17T12:03:46.321Z</time>
      </trkpt>
      <trkpt lat="50.57284" lon="3.48598">
        <ele>50.101694</ele>
        <time>2019-09-17T12:03:56.080Z</time>
      </trkpt>
      <trkpt lat="50.57308" lon="3.48672">
        <ele>50.214827</ele>
        <time>2019-09-17T12:04:03.665Z</time>
      </trkpt>
      <trkpt lat="50.57351" lon="3.48791">
        <ele>50.400383</ele>
        <time>2019-09-17T12:04:16.958Z</time>
      </trkpt>
      <trkpt lat="50.57355" lon="3.4881">
        <ele>50.500757</ele>
        <time>2019-09-17T12:04:19.099Z</time>
      </trkpt>
      <trkpt lat="50.57338" lon="3.48512">
        <ele>53.21493</ele>
        <time>2019-09-17T12:04:58.826Z</time>
      </trkpt>
      <trkpt lat="50.57343" lon="3.48486">
        <ele>53.586457</ele>
        <time>2019-09-17T12:05:02.950Z</time>
      </trkpt>
      <trkpt lat="50.57368" lon="3.48467">
        <ele>54.180656</ele>
        <time>2019-09-17T12:05:09.567Z</time>
      </trkpt>
      <trkpt lat="50.57614" lon="3.48354">
        <ele>59.651379</ele>
        <time>2019-09-17T12:06:10.667Z</time>
      </trkpt>
      <trkpt lat="50.57828" lon="3.48274">
        <ele>63.609052</ele>
        <time>2019-09-17T12:06:59.679Z</time>
      </trkpt>
      <trkpt lat="50.57835" lon="3.48271">
        <ele>63.618682</ele>
        <time>2019-09-17T12:07:01.355Z</time>
      </trkpt>
      <trkpt lat="50.57854" lon="3.48264">
        <ele>63.602251</ele>
        <time>2019-09-17T12:07:04.536Z</time>
      </trkpt>
      <trkpt lat="50.57903" lon="3.48269">
        <ele>63.558912</ele>
        <time>2019-09-17T12:07:12.806Z</time>
      </trkpt>
      <trkpt lat="50.57955" lon="3.48264">
        <ele>63.513477</ele>
        <time>2019-09-17T12:07:20.165Z</time>
      </trkpt>
      <trkpt lat="50.58057" lon="3.48288">
        <ele>62.338834</ele>
        <time>2019-09-17T12:07:32.319Z</time>
      </trkpt>
      <trkpt lat="50.58217" lon="3.48384">
        <ele>58.38998</ele>
        <time>2019-09-17T12:07:50.226Z</time>
      </trkpt>
      <trkpt lat="50.5826" lon="3.484">
        <ele>57.304979</ele>
        <time>2019-09-17T12:07:54.812Z</time>
      </trkpt>
      <trkpt lat="50.58269" lon="3.484">
        <ele>57.066234</ele>
        <time>2019-09-17T12:07:55.710Z</time>
      </trkpt>
      <trkpt lat="50.5853" lon="3.48404">
        <ele>51.902673</ele>
        <time>2019-09-17T12:08:24.602Z</time>
      </trkpt>
      <trkpt lat="50.58543" lon="3.4841">
        <ele>51.782579</ele>
        <time>2019-09-17T12:08:26.227Z</time>
      </trkpt>
      <trkpt lat="50.5859" lon="3.48481">
        <ele>51.392809</ele>
        <time>2019-09-17T12:08:34.708Z</time>
      </trkpt>
      <trkpt lat="50.58625" lon="3.48547">
        <ele>51.06758</ele>
        <time>2019-09-17T12:08:42.125Z</time>
      </trkpt>
      <trkpt lat="50.58634" lon="3.48585">
        <ele>50.912106</ele>
        <time>2019-09-17T12:08:45.755Z</time>
      </trkpt>
      <trkpt lat="50.58649" lon="3.48728">
        <ele>50.433178</ele>
        <time>2019-09-17T12:08:58.704Z</time>
      </trkpt>
      <trkpt lat="50.58665" lon="3.48769">
        <ele>50.280611</ele>
        <time>2019-09-17T12:09:02.958Z</time>
      </trkpt>
      <trkpt lat="50.58682" lon="3.48786">
        <ele>50.181943</ele>
        <time>2019-09-17T12:09:05.668Z</time>
      </trkpt>
      <trkpt lat="50.5871" lon="3.48796">
        <ele>50.041001</ele>
        <time>2019-09-17T12:09:09.326Z</time>
      </trkpt>
      <trkpt lat="50.58803" lon="3.48807">
        <ele>49.157264</ele>
        <time>2019-09-17T12:09:20.804Z</time>
      </trkpt>
      <trkpt lat="50.58813" lon="3.48812">
        <ele>49.025156</ele>
        <time>2019-09-17T12:09:22.083Z</time>
      </trkpt>
      <trkpt lat="50.58835" lon="3.48839">
        <ele>48.690981</ele>
        <time>2019-09-17T12:09:25.368Z</time>
      </trkpt>
      <trkpt lat="50.58847" lon="3.48855">
        <ele>48.501588</ele>
        <time>2019-09-17T12:09:27.136Z</time>
      </trkpt>
      <trkpt lat="50.58859" lon="3.48834">
        <ele>48.284845</ele>
        <time>2019-09-17T12:09:30.178Z</time>
      </trkpt>
      <trkpt lat="50.58869" lon="3.48814">
        <ele>48.098847</ele>
        <time>2019-09-17T12:09:32.693Z</time>
      </trkpt>
      <trkpt lat="50.58876" lon="3.488">
        <ele>47.955073</ele>
        <time>2019-09-17T12:09:34.700Z</time>
      </trkpt>
      <trkpt lat="50.58898" lon="3.48765">
        <ele>47.572764</ele>
        <time>2019-09-17T12:09:39.898Z</time>
      </trkpt>
      <trkpt lat="50.5893" lon="3.4871">
        <ele>46.963151</ele>
        <time>2019-09-17T12:09:47.763Z</time>
      </trkpt>
      <trkpt lat="50.58945" lon="3.48719">
        <ele>46.75412</ele>
        <time>2019-09-17T12:09:50.405Z</time>
      </trkpt>
      <trkpt lat="50.58963" lon="3.48724">
        <ele>46.512369</ele>
        <time>2019-09-17T12:09:53.508Z</time>
      </trkpt>
      <trkpt lat="50.5898" lon="3.48729">
        <ele>46.28852</ele>
        <time>2019-09-17T12:09:56.444Z</time>
      </trkpt>
      <trkpt lat="50.59022" lon="3.48704">
        <ele>45.719503</ele>
        <time>2019-09-17T12:10:03.817Z</time>
      </trkpt>
      <trkpt lat="50.59026" lon="3.48698">
        <ele>45.646863</ele>
        <time>2019-09-17T12:10:04.784Z</time>
      </trkpt>
      <trkpt lat="50.59035" lon="3.48686">
        <ele>45.495002</ele>
        <time>2019-09-17T12:10:06.784Z</time>
      </trkpt>
      <trkpt lat="50.59039" lon="3.48677">
        <ele>45.397094</ele>
        <time>2019-09-17T12:10:08.146Z</time>
      </trkpt>
      <trkpt lat="50.59042" lon="3.48665">
        <ele>45.327586</ele>
        <time>2019-09-17T12:10:09.394Z</time>
      </trkpt>
      <trkpt lat="50.59042" lon="3.48656">
        <ele>45.279765</ele>
        <time>2019-09-17T12:10:10.441Z</time>
      </trkpt>
      <trkpt lat="50.59042" lon="3.48628">
        <ele>45.130541</ele>
        <time>2019-09-17T12:10:13.610Z</time>
      </trkpt>
      <trkpt lat="50.59039" lon="3.48507">
        <ele>44.49848</ele>
        <time>2019-09-17T12:10:27.618Z</time>
      </trkpt>
      <trkpt lat="50.59042" lon="3.48498">
        <ele>44.442999</ele>
        <time>2019-09-17T12:10:28.725Z</time>
      </trkpt>
      <trkpt lat="50.59071" lon="3.48457">
        <ele>44.120095</ele>
        <time>2019-09-17T12:10:35.782Z</time>
      </trkpt>
      <trkpt lat="50.59089" lon="3.4842">
        <ele>43.85698</ele>
        <time>2019-09-17T12:10:41.148Z</time>
      </trkpt>
      <trkpt lat="50.59102" lon="3.48367">
        <ele>43.348478</ele>
        <time>2019-09-17T12:10:47.555Z</time>
      </trkpt>
      <trkpt lat="50.5911" lon="3.48351">
        <ele>43.170283</ele>
        <time>2019-09-17T12:10:49.722Z</time>
      </trkpt>
      <trkpt lat="50.59122" lon="3.48337">
        <ele>42.949773</ele>
        <time>2019-09-17T12:10:52.389Z</time>
      </trkpt>
      <trkpt lat="50.5914" lon="3.48328">
        <ele>42.682847</ele>
        <time>2019-09-17T12:10:55.438Z</time>
      </trkpt>
      <trkpt lat="50.59243" lon="3.48273">
        <ele>41.141207</ele>
        <time>2019-09-17T12:11:13.002Z</time>
      </trkpt>
      <trkpt lat="50.59263" lon="3.48244">
        <ele>40.756954</ele>
        <time>2019-09-17T12:11:17.066Z</time>
      </trkpt>
      <trkpt lat="50.59332" lon="3.48142">
        <ele>39.402292</ele>
        <time>2019-09-17T12:11:32.445Z</time>
      </trkpt>
      <trkpt lat="50.59369" lon="3.48082">
        <ele>38.795493</ele>
        <time>2019-09-17T12:11:41.868Z</time>
      </trkpt>
      <trkpt lat="50.59314" lon="3.48023">
        <ele>39.013209</ele>
        <time>2019-09-17T12:11:55.534Z</time>
      </trkpt>
      <trkpt lat="50.59304" lon="3.48014">
        <ele>39.052212</ele>
        <time>2019-09-17T12:11:58.523Z</time>
      </trkpt>
      <trkpt lat="50.59293" lon="3.48005">
        <ele>39.093435</ele>
        <time>2019-09-17T12:12:01.204Z</time>
      </trkpt>
      <trkpt lat="50.59219" lon="3.47937">
        <ele>39.375826</ele>
        <time>2019-09-17T12:12:21.351Z</time>
      </trkpt>
      <trkpt lat="50.59216" lon="3.4792">
        <ele>39.422416</ele>
        <time>2019-09-17T12:12:24.432Z</time>
      </trkpt>
      <trkpt lat="50.59222" lon="3.47886">
        <ele>39.514814</ele>
        <time>2019-09-17T12:12:29.448Z</time>
      </trkpt>
      <trkpt lat="50.59244" lon="3.47797">
        <ele>39.766307</ele>
        <time>2019-09-17T12:12:42.850Z</time>
      </trkpt>
      <trkpt lat="50.59249" lon="3.47785">
        <ele>39.802559</ele>
        <time>2019-09-17T12:12:44.646Z</time>
      </trkpt>
      <trkpt lat="50.59268" lon="3.47728">
        <ele>39.972251</ele>
        <time>2019-09-17T12:12:52.967Z</time>
      </trkpt>
      <trkpt lat="50.59314" lon="3.47621">
        <ele>40.207739</ele>
        <time>2019-09-17T12:13:10.193Z</time>
      </trkpt>
      <trkpt lat="50.59327" lon="3.47572">
        <ele>40.278037</ele>
        <time>2019-09-17T12:13:17.371Z</time>
      </trkpt>
      <trkpt lat="50.59327" lon="3.47572">
        <ele>40.278738</ele>
        <time>2019-09-17T12:13:17.431Z</time>
      </trkpt>
      <trkpt lat="50.59329" lon="3.47563">
        <ele>40.291911</ele>
        <time>2019-09-17T12:13:18.644Z</time>
      </trkpt>
      <trkpt lat="50.59341" lon="3.47519">
        <ele>40.355602</ele>
        <time>2019-09-17T12:13:25.202Z</time>
      </trkpt>
      <trkpt lat="50.59349" lon="3.47485">
        <ele>40.404309</ele>
        <time>2019-09-17T12:13:29.903Z</time>
      </trkpt>
      <trkpt lat="50.59356" lon="3.47475">
        <ele>40.424744</ele>
        <time>2019-09-17T12:13:32.229Z</time>
      </trkpt>
      <trkpt lat="50.59381" lon="3.47432">
        <ele>40.487685</ele>
        <time>2019-09-17T12:13:40.064Z</time>
      </trkpt>
      <trkpt lat="50.59515" lon="3.47314">
        <ele>40.616154</ele>
        <time>2019-09-17T12:14:12.211Z</time>
      </trkpt>
      <trkpt lat="50.59579" lon="3.47278">
        <ele>40.238263</ele>
        <time>2019-09-17T12:14:24.972Z</time>
      </trkpt>
      <trkpt lat="50.59579" lon="3.47291">
        <ele>40.175134</ele>
        <time>2019-09-17T12:14:26.150Z</time>
      </trkpt>
      <trkpt lat="50.59595" lon="3.47275">
        <ele>40.039298</ele>
        <time>2019-09-17T12:14:29.441Z</time>
      </trkpt>
      <trkpt lat="50.59637" lon="3.47245">
        <ele>39.703916</ele>
        <time>2019-09-17T12:14:37.557Z</time>
      </trkpt>
      <trkpt lat="50.59656" lon="3.47237">
        <ele>39.556431</ele>
        <time>2019-09-17T12:14:41.009Z</time>
      </trkpt>
      <trkpt lat="50.59662" lon="3.47236">
        <ele>39.509358</ele>
        <time>2019-09-17T12:14:42.136Z</time>
      </trkpt>
      <trkpt lat="50.59674" lon="3.47241">
        <ele>39.420229</ele>
        <time>2019-09-17T12:14:44.264Z</time>
      </trkpt>
      <trkpt lat="50.59694" lon="3.47157">
        <ele>38.694776</ele>
        <time>2019-09-17T12:14:54.017Z</time>
      </trkpt>
      <trkpt lat="50.59691" lon="3.47138">
        <ele>38.507152</ele>
        <time>2019-09-17T12:14:56.224Z</time>
      </trkpt>
      <trkpt lat="50.59693" lon="3.47125">
        <ele>38.388265</ele>
        <time>2019-09-17T12:14:57.579Z</time>
      </trkpt>
      <trkpt lat="50.5971" lon="3.47089">
        <ele>37.965306</ele>
        <time>2019-09-17T12:15:02.474Z</time>
      </trkpt>
      <trkpt lat="50.59713" lon="3.4708">
        <ele>37.877492</ele>
        <time>2019-09-17T12:15:03.470Z</time>
      </trkpt>
      <trkpt lat="50.59734" lon="3.46984">
        <ele>36.942535</ele>
        <time>2019-09-17T12:15:14.016Z</time>
      </trkpt>
      <trkpt lat="50.59748" lon="3.46916">
        <ele>36.069276</ele>
        <time>2019-09-17T12:15:21.329Z</time>
      </trkpt>
      <trkpt lat="50.59802" lon="3.4695">
        <ele>34.815788</ele>
        <time>2019-09-17T12:15:27.593Z</time>
      </trkpt>
      <trkpt lat="50.59859" lon="3.46986">
        <ele>33.489722</ele>
        <time>2019-09-17T12:15:34.107Z</time>
      </trkpt>
      <trkpt lat="50.59862" lon="3.46989">
        <ele>33.403541</ele>
        <time>2019-09-17T12:15:34.538Z</time>
      </trkpt>
      <trkpt lat="50.59938" lon="3.47033">
        <ele>31.720963</ele>
        <time>2019-09-17T12:15:43.212Z</time>
      </trkpt>
      <trkpt lat="50.59959" lon="3.47034">
        <ele>31.302534</ele>
        <time>2019-09-17T12:15:45.422Z</time>
      </trkpt>
      <trkpt lat="50.60084" lon="3.46996">
        <ele>28.601335</ele>
        <time>2019-09-17T12:15:59.623Z</time>
      </trkpt>
      <trkpt lat="50.60107" lon="3.47009">
        <ele>28.01103</ele>
        <time>2019-09-17T12:16:02.340Z</time>
      </trkpt>
      <trkpt lat="50.60118" lon="3.47021">
        <ele>27.684681</ele>
        <time>2019-09-17T12:16:03.860Z</time>
      </trkpt>
      <trkpt lat="50.60172" lon="3.47099">
        <ele>25.877345</ele>
        <time>2019-09-17T12:16:12.102Z</time>
      </trkpt>
      <trkpt lat="50.60256" lon="3.47185">
        <ele>22.464678</ele>
        <time>2019-09-17T12:16:21.859Z</time>
      </trkpt>
      <trkpt lat="50.60298" lon="3.47212">
        <ele>20.533125</ele>
        <time>2019-09-17T12:16:26.357Z</time>
      </trkpt>
      <trkpt lat="50.60304" lon="3.47216">
        <ele>20.242643</ele>
        <time>2019-09-17T12:16:26.982Z</time>
      </trkpt>
      <trkpt lat="50.6031" lon="3.47219">
        <ele>19.971829</ele>
        <time>2019-09-17T12:16:27.542Z</time>
      </trkpt>
      <trkpt lat="50.60354" lon="3.47232">
        <ele>18.087676</ele>
        <time>2019-09-17T12:16:31.945Z</time>
      </trkpt>
      <trkpt lat="50.60385" lon="3.47232">
        <ele>16.751591</ele>
        <time>2019-09-17T12:16:34.915Z</time>
      </trkpt>
      <trkpt lat="50.60496" lon="3.47205">
        <ele>11.86668</ele>
        <time>2019-09-17T12:16:45.598Z</time>
      </trkpt>
      <trkpt lat="50.60516" lon="3.47202">
        <ele>10.999264</ele>
        <time>2019-09-17T12:16:47.702Z</time>
      </trkpt>
      <trkpt lat="50.60535" lon="3.47205">
        <ele>10.184252</ele>
        <time>2019-09-17T12:16:49.463Z</time>
      </trkpt>
      <trkpt lat="50.60613" lon="3.47237">
        <ele>7.621531</ele>
        <time>2019-09-17T12:16:57.379Z</time>
      </trkpt>
      <trkpt lat="50.60758" lon="3.47353">
        <ele>4.874721</ele>
        <time>2019-09-17T12:17:14.751Z</time>
      </trkpt>
      <trkpt lat="50.60973" lon="3.47511">
        <ele>11.875449</ele>
        <time>2019-09-17T12:18:16.853Z</time>
      </trkpt>
      <trkpt lat="50.6098" lon="3.47517">
        <ele>12.290834</ele>
        <time>2019-09-17T12:18:20.465Z</time>
      </trkpt>
      <trkpt lat="50.61076" lon="3.47588">
        <ele>18.305852</ele>
        <time>2019-09-17T12:19:09.117Z</time>
      </trkpt>
      <trkpt lat="50.61119" lon="3.47603">
        <ele>21.315712</ele>
        <time>2019-09-17T12:19:30.289Z</time>
      </trkpt>
      <trkpt lat="50.61163" lon="3.47606">
        <ele>24.366677</ele>
        <time>2019-09-17T12:19:50.328Z</time>
      </trkpt>
      <trkpt lat="50.61212" lon="3.47601">
        <ele>27.717516</ele>
        <time>2019-09-17T12:20:09.336Z</time>
      </trkpt>
      <trkpt lat="50.6125" lon="3.47598">
        <ele>29.064079</ele>
        <time>2019-09-17T12:20:21.513Z</time>
      </trkpt>
      <trkpt lat="50.61314" lon="3.47606">
        <ele>30.580417</ele>
        <time>2019-09-17T12:20:38.512Z</time>
      </trkpt>
      <trkpt lat="50.61372" lon="3.47635">
        <ele>32.019791</ele>
        <time>2019-09-17T12:20:50.646Z</time>
      </trkpt>
      <trkpt lat="50.61462" lon="3.47684">
        <ele>32.611799</ele>
        <time>2019-09-17T12:21:05.057Z</time>
      </trkpt>
      <trkpt lat="50.61466" lon="3.47636">
        <ele>32.593063</ele>
        <time>2019-09-17T12:21:09.483Z</time>
      </trkpt>
      <trkpt lat="50.6152" lon="3.47351">
        <ele>32.173417</ele>
        <time>2019-09-17T12:21:35.647Z</time>
      </trkpt>
      <trkpt lat="50.6152" lon="3.4732">
        <ele>32.1069</ele>
        <time>2019-09-17T12:21:38.288Z</time>
      </trkpt>
      <trkpt lat="50.61516" lon="3.47267">
        <ele>31.991421</ele>
        <time>2019-09-17T12:21:42.961Z</time>
      </trkpt>
      <trkpt lat="50.61511" lon="3.47175">
        <ele>31.778699</ele>
        <time>2019-09-17T12:21:50.973Z</time>
      </trkpt>
      <trkpt lat="50.61517" lon="3.47009">
        <ele>31.384575</ele>
        <time>2019-09-17T12:22:05.139Z</time>
      </trkpt>
      <trkpt lat="50.61518" lon="3.46985">
        <ele>31.328241</ele>
        <time>2019-09-17T12:22:07.182Z</time>
      </trkpt>
      <trkpt lat="50.6152" lon="3.46932">
        <ele>31.218537</ele>
        <time>2019-09-17T12:22:11.769Z</time>
      </trkpt>
      <trkpt lat="50.61522" lon="3.46849">
        <ele>31.074537</ele>
        <time>2019-09-17T12:22:19.365Z</time>
      </trkpt>
      <trkpt lat="50.61527" lon="3.46703">
        <ele>30.823257</ele>
        <time>2019-09-17T12:22:32.096Z</time>
      </trkpt>
      <trkpt lat="50.61529" lon="3.46685">
        <ele>30.791428</ele>
        <time>2019-09-17T12:22:33.881Z</time>
      </trkpt>
      <trkpt lat="50.6155" lon="3.4652">
        <ele>30.454722</ele>
        <time>2019-09-17T12:22:48.796Z</time>
      </trkpt>
      <trkpt lat="50.61559" lon="3.46447">
        <ele>30.303866</ele>
        <time>2019-09-17T12:22:55.346Z</time>
      </trkpt>
      <trkpt lat="50.61571" lon="3.46346">
        <ele>29.959927</ele>
        <time>2019-09-17T12:23:04.021Z</time>
      </trkpt>
      <trkpt lat="50.61572" lon="3.46324">
        <ele>29.855322</ele>
        <time>2019-09-17T12:23:05.830Z</time>
      </trkpt>
      <trkpt lat="50.61573" lon="3.46302">
        <ele>29.751269</ele>
        <time>2019-09-17T12:23:07.614Z</time>
      </trkpt>
      <trkpt lat="50.61571" lon="3.46281">
        <ele>29.649958</ele>
        <time>2019-09-17T12:23:09.324Z</time>
      </trkpt>
      <trkpt lat="50.61557" lon="3.46223">
        <ele>29.35198</ele>
        <time>2019-09-17T12:23:14.310Z</time>
      </trkpt>
      <trkpt lat="50.61536" lon="3.46182">
        <ele>29.107163</ele>
        <time>2019-09-17T12:23:18.425Z</time>
      </trkpt>
      <trkpt lat="50.61476" lon="3.46064">
        <ele>28.195546</ele>
        <time>2019-09-17T12:23:30.312Z</time>
      </trkpt>
      <trkpt lat="50.61459" lon="3.46021">
        <ele>27.850074</ele>
        <time>2019-09-17T12:23:34.263Z</time>
      </trkpt>
      <trkpt lat="50.6145" lon="3.45968">
        <ele>27.481363</ele>
        <time>2019-09-17T12:23:38.434Z</time>
      </trkpt>
      <trkpt lat="50.61452" lon="3.45923">
        <ele>27.18358</ele>
        <time>2019-09-17T12:23:41.802Z</time>
      </trkpt>
      <trkpt lat="50.61472" lon="3.4582">
        <ele>26.447825</ele>
        <time>2019-09-17T12:23:50.130Z</time>
      </trkpt>
      <trkpt lat="50.61478" lon="3.45763">
        <ele>26.048932</ele>
        <time>2019-09-17T12:23:54.607Z</time>
      </trkpt>
      <trkpt lat="50.6147" lon="3.4558">
        <ele>24.870921</ele>
        <time>2019-09-17T12:24:08.630Z</time>
      </trkpt>
      <trkpt lat="50.61461" lon="3.45436">
        <ele>24.288942</ele>
        <time>2019-09-17T12:24:20.314Z</time>
      </trkpt>
      <trkpt lat="50.61458" lon="3.45388">
        <ele>24.096436</ele>
        <time>2019-09-17T12:24:24.409Z</time>
      </trkpt>
      <trkpt lat="50.61447" lon="3.45289">
        <ele>23.910832</ele>
        <time>2019-09-17T12:24:33.452Z</time>
      </trkpt>
      <trkpt lat="50.61407" lon="3.45134">
        <ele>24.137188</ele>
        <time>2019-09-17T12:24:50.451Z</time>
      </trkpt>
      <trkpt lat="50.614" lon="3.45082">
        <ele>24.208262</ele>
        <time>2019-09-17T12:24:55.942Z</time>
      </trkpt>
      <trkpt lat="50.61399" lon="3.45039">
        <ele>24.295979</ele>
        <time>2019-09-17T12:25:00.457Z</time>
      </trkpt>
      <trkpt lat="50.61414" lon="3.4485">
        <ele>24.824899</ele>
        <time>2019-09-17T12:25:20.376Z</time>
      </trkpt>
      <trkpt lat="50.61424" lon="3.44721">
        <ele>25.190785</ele>
        <time>2019-09-17T12:25:34.332Z</time>
      </trkpt>
      <trkpt lat="50.61442" lon="3.44629">
        <ele>25.462867</ele>
        <time>2019-09-17T12:25:44.845Z</time>
      </trkpt>
      <trkpt lat="50.61473" lon="3.44542">
        <ele>25.74389</ele>
        <time>2019-09-17T12:25:55.419Z</time>
      </trkpt>
      <trkpt lat="50.61501" lon="3.44484">
        <ele>25.787057</ele>
        <time>2019-09-17T12:26:03.135Z</time>
      </trkpt>
      <trkpt lat="50.6152" lon="3.44451">
        <ele>25.745118</ele>
        <time>2019-09-17T12:26:07.304Z</time>
      </trkpt>
      <trkpt lat="50.61553" lon="3.44375">
        <ele>25.657144</ele>
        <time>2019-09-17T12:26:15.944Z</time>
      </trkpt>
      <trkpt lat="50.61561" lon="3.44342">
        <ele>25.623731</ele>
        <time>2019-09-17T12:26:18.942Z</time>
      </trkpt>
      <trkpt lat="50.61569" lon="3.44279">
        <ele>25.562202</ele>
        <time>2019-09-17T12:26:24.338Z</time>
      </trkpt>
      <trkpt lat="50.6157" lon="3.44261">
        <ele>25.462308</ele>
        <time>2019-09-17T12:26:25.854Z</time>
      </trkpt>
      <trkpt lat="50.61569" lon="3.4425">
        <ele>25.390049</ele>
        <time>2019-09-17T12:26:26.623Z</time>
      </trkpt>
      <trkpt lat="50.61568" lon="3.44194">
        <ele>25.011491</ele>
        <time>2019-09-17T12:26:31.047Z</time>
      </trkpt>
      <trkpt lat="50.61544" lon="3.43992">
        <ele>23.628718</ele>
        <time>2019-09-17T12:26:46.506Z</time>
      </trkpt>
      <trkpt lat="50.61523" lon="3.43855">
        <ele>22.721274</ele>
        <time>2019-09-17T12:26:57.404Z</time>
      </trkpt>
      <trkpt lat="50.6152" lon="3.4384">
        <ele>22.620022</ele>
        <time>2019-09-17T12:26:58.639Z</time>
      </trkpt>
      <trkpt lat="50.61582" lon="3.43792">
        <ele>21.923101</ele>
        <time>2019-09-17T12:27:07.152Z</time>
      </trkpt>
      <trkpt lat="50.61585" lon="3.4379">
        <ele>21.889089</ele>
        <time>2019-09-17T12:27:07.576Z</time>
      </trkpt>
      <trkpt lat="50.61596" lon="3.43782">
        <ele>21.792281</ele>
        <time>2019-09-17T12:27:09.086Z</time>
      </trkpt>
      <trkpt lat="50.61696" lon="3.43709">
        <ele>21.11903</ele>
        <time>2019-09-17T12:27:23.338Z</time>
      </trkpt>
      <trkpt lat="50.61769" lon="3.43705">
        <ele>20.723064</ele>
        <time>2019-09-17T12:27:32.961Z</time>
      </trkpt>
      <trkpt lat="50.61783" lon="3.43704">
        <ele>20.715362</ele>
        <time>2019-09-17T12:27:34.787Z</time>
      </trkpt>
      <trkpt lat="50.61829" lon="3.43672">
        <ele>20.68646</ele>
        <time>2019-09-17T12:27:41.939Z</time>
      </trkpt>
      <trkpt lat="50.61852" lon="3.43642">
        <ele>20.669241</ele>
        <time>2019-09-17T12:27:46.350Z</time>
      </trkpt>
      <trkpt lat="50.61873" lon="3.43588">
        <ele>20.646446</ele>
        <time>2019-09-17T12:27:52.360Z</time>
      </trkpt>
      <trkpt lat="50.61878" lon="3.43555">
        <ele>20.633848</ele>
        <time>2019-09-17T12:27:55.576Z</time>
      </trkpt>
      <trkpt lat="50.61878" lon="3.43555">
        <ele>20.633848</ele>
        <time>2019-09-17T12:27:55.622Z</time>
      </trkpt>
      <trkpt lat="50.61877" lon="3.43476">
        <ele>20.781035</ele>
        <time>2019-09-17T12:28:03.790Z</time>
      </trkpt>
      <trkpt lat="50.61869" lon="3.43334">
        <ele>21.183085</ele>
        <time>2019-09-17T12:28:18.762Z</time>
      </trkpt>
      <trkpt lat="50.61867" lon="3.43302">
        <ele>21.272276</ele>
        <time>2019-09-17T12:28:22.302Z</time>
      </trkpt>
      <trkpt lat="50.61867" lon="3.43274">
        <ele>21.352167</ele>
        <time>2019-09-17T12:28:25.338Z</time>
      </trkpt>
      <trkpt lat="50.61868" lon="3.43203">
        <ele>21.713169</ele>
        <time>2019-09-17T12:28:32.918Z</time>
      </trkpt>
      <trkpt lat="50.61873" lon="3.43113">
        <ele>22.292628</ele>
        <time>2019-09-17T12:28:43.635Z</time>
      </trkpt>
      <trkpt lat="50.6188" lon="3.42998">
        <ele>23.0217</ele>
        <time>2019-09-17T12:28:57.860Z</time>
      </trkpt>
      <trkpt lat="50.61891" lon="3.42897">
        <ele>23.795685</ele>
        <time>2019-09-17T12:29:11.158Z</time>
      </trkpt>
      <trkpt lat="50.61956" lon="3.42882">
        <ele>24.639697</ele>
        <time>2019-09-17T12:29:28.303Z</time>
      </trkpt>
      <trkpt lat="50.62034" lon="3.4286">
        <ele>25.578427</ele>
        <time>2019-09-17T12:29:48.136Z</time>
      </trkpt>
      <trkpt lat="50.62097" lon="3.42841">
        <ele>25.985847</ele>
        <time>2019-09-17T12:30:02.899Z</time>
      </trkpt>
      <trkpt lat="50.62059" lon="3.42593">
        <ele>26.949109</ele>
        <time>2019-09-17T12:30:29.809Z</time>
      </trkpt>
      <trkpt lat="50.62041" lon="3.42471">
        <ele>27.359288</ele>
        <time>2019-09-17T12:30:43.164Z</time>
      </trkpt>
      <trkpt lat="50.62074" lon="3.42455">
        <ele>27.536833</ele>
        <time>2019-09-17T12:30:51.057Z</time>
      </trkpt>
      <trkpt lat="50.62162" lon="3.42418">
        <ele>28.597905</ele>
        <time>2019-09-17T12:31:12.152Z</time>
      </trkpt>
      <trkpt lat="50.62168" lon="3.42417">
        <ele>28.663925</ele>
        <time>2019-09-17T12:31:13.721Z</time>
      </trkpt>
      <trkpt lat="50.62292" lon="3.42395">
        <ele>30.602091</ele>
        <time>2019-09-17T12:31:46.883Z</time>
      </trkpt>
      <trkpt lat="50.62534" lon="3.42734">
        <ele>38.409058</ele>
        <time>2019-09-17T12:33:27.049Z</time>
      </trkpt>
      <trkpt lat="50.62569" lon="3.42785">
        <ele>38.250963</ele>
        <time>2019-09-17T12:33:38.853Z</time>
      </trkpt>
      <trkpt lat="50.62646" lon="3.42659">
        <ele>37.647915</ele>
        <time>2019-09-17T12:33:58.856Z</time>
      </trkpt>
      <trkpt lat="50.62827" lon="3.42385">
        <ele>30.913247</ele>
        <time>2019-09-17T12:34:35.398Z</time>
      </trkpt>
      <trkpt lat="50.62852" lon="3.42367">
        <ele>30.233207</ele>
        <time>2019-09-17T12:34:39.548Z</time>
      </trkpt>
      <trkpt lat="50.62941" lon="3.42376">
        <ele>28.108202</ele>
        <time>2019-09-17T12:34:53.143Z</time>
      </trkpt>
      <trkpt lat="50.62946" lon="3.42378">
        <ele>27.974595</ele>
        <time>2019-09-17T12:34:53.952Z</time>
      </trkpt>
      <trkpt lat="50.63055" lon="3.42404">
        <ele>28.048319</ele>
        <time>2019-09-17T12:35:14.450Z</time>
      </trkpt>
      <trkpt lat="50.63129" lon="3.42419">
        <ele>28.301987</ele>
        <time>2019-09-17T12:35:33.664Z</time>
      </trkpt>
      <trkpt lat="50.63171" lon="3.42425">
        <ele>29.349675</ele>
        <time>2019-09-17T12:35:46.056Z</time>
      </trkpt>
      <trkpt lat="50.63415" lon="3.42483">
        <ele>36.326966</ele>
        <time>2019-09-17T12:37:07.750Z</time>
      </trkpt>
      <trkpt lat="50.63565" lon="3.42543">
        <ele>39.358227</ele>
        <time>2019-09-17T12:37:52.174Z</time>
      </trkpt>
      <trkpt lat="50.63651" lon="3.42607">
        <ele>40.492067</ele>
        <time>2019-09-17T12:38:13.904Z</time>
      </trkpt>
      <trkpt lat="50.63724" lon="3.42683">
        <ele>40.619585</ele>
        <time>2019-09-17T12:38:31.676Z</time>
      </trkpt>
      <trkpt lat="50.63824" lon="3.42836">
        <ele>40.410856</ele>
        <time>2019-09-17T12:38:59.612Z</time>
      </trkpt>
      <trkpt lat="50.63866" lon="3.42917">
        <ele>39.9741</ele>
        <time>2019-09-17T12:39:12.335Z</time>
      </trkpt>
      <trkpt lat="50.63982" lon="3.4315">
        <ele>37.932748</ele>
        <time>2019-09-17T12:39:44.124Z</time>
      </trkpt>
      <trkpt lat="50.64111" lon="3.43497">
        <ele>34.071095</ele>
        <time>2019-09-17T12:40:25.688Z</time>
      </trkpt>
      <trkpt lat="50.64124" lon="3.43476">
        <ele>33.846266</ele>
        <time>2019-09-17T12:40:28.859Z</time>
      </trkpt>
      <trkpt lat="50.64159" lon="3.43431">
        <ele>33.313054</ele>
        <time>2019-09-17T12:40:36.406Z</time>
      </trkpt>
      <trkpt lat="50.64185" lon="3.43397">
        <ele>32.914689</ele>
        <time>2019-09-17T12:40:42.090Z</time>
      </trkpt>
      <trkpt lat="50.64304" lon="3.43238">
        <ele>31.589653</ele>
        <time>2019-09-17T12:41:09.450Z</time>
      </trkpt>
      <trkpt lat="50.64338" lon="3.43192">
        <ele>31.343264</ele>
        <time>2019-09-17T12:41:17.956Z</time>
      </trkpt>
      <trkpt lat="50.64331" lon="3.43168">
        <ele>31.25343</ele>
        <time>2019-09-17T12:41:20.315Z</time>
      </trkpt>
      <trkpt lat="50.64325" lon="3.43126">
        <ele>31.101071</ele>
        <time>2019-09-17T12:41:24.234Z</time>
      </trkpt>
      <trkpt lat="50.64326" lon="3.4297">
        <ele>31.02531</ele>
        <time>2019-09-17T12:41:38.965Z</time>
      </trkpt>
      <trkpt lat="50.64328" lon="3.42754">
        <ele>30.869021</ele>
        <time>2019-09-17T12:41:59.341Z</time>
      </trkpt>
      <trkpt lat="50.64328" lon="3.42719">
        <ele>30.809821</ele>
        <time>2019-09-17T12:42:02.444Z</time>
      </trkpt>
      <trkpt lat="50.64326" lon="3.42676">
        <ele>30.737069</ele>
        <time>2019-09-17T12:42:06.217Z</time>
      </trkpt>
      <trkpt lat="50.64286" lon="3.42515">
        <ele>30.393567</ele>
        <time>2019-09-17T12:42:21.082Z</time>
      </trkpt>
      <trkpt lat="50.64278" lon="3.42396">
        <ele>30.052595</ele>
        <time>2019-09-17T12:42:31.172Z</time>
      </trkpt>
      <trkpt lat="50.64269" lon="3.42265">
        <ele>29.678821</ele>
        <time>2019-09-17T12:42:42.436Z</time>
      </trkpt>
      <trkpt lat="50.64221" lon="3.4199">
        <ele>28.829268</ele>
        <time>2019-09-17T12:43:06.727Z</time>
      </trkpt>
      <trkpt lat="50.64208" lon="3.4191">
        <ele>28.394213</ele>
        <time>2019-09-17T12:43:13.449Z</time>
      </trkpt>
      <trkpt lat="50.64235" lon="3.41916">
        <ele>28.166638</ele>
        <time>2019-09-17T12:43:16.900Z</time>
      </trkpt>
      <trkpt lat="50.64318" lon="3.41961">
        <ele>27.432973</ele>
        <time>2019-09-17T12:43:27.628Z</time>
      </trkpt>
      <trkpt lat="50.64328" lon="3.41974">
        <ele>27.298189</ele>
        <time>2019-09-17T12:43:29.204Z</time>
      </trkpt>
      <trkpt lat="50.64341" lon="3.41994">
        <ele>27.091842</ele>
        <time>2019-09-17T12:43:31.332Z</time>
      </trkpt>
      <trkpt lat="50.64345" lon="3.41973">
        <ele>26.925388</ele>
        <time>2019-09-17T12:43:33.805Z</time>
      </trkpt>
      <trkpt lat="50.64355" lon="3.41935">
        <ele>26.628205</ele>
        <time>2019-09-17T12:43:38.232Z</time>
      </trkpt>
      <trkpt lat="50.64364" lon="3.41874">
        <ele>26.171675</ele>
        <time>2019-09-17T12:43:45.001Z</time>
      </trkpt>
      <trkpt lat="50.6437" lon="3.4181">
        <ele>25.692187</ele>
        <time>2019-09-17T12:43:52.052Z</time>
      </trkpt>
      <trkpt lat="50.64371" lon="3.41749">
        <ele>25.262437</ele>
        <time>2019-09-17T12:43:58.512Z</time>
      </trkpt>
      <trkpt lat="50.64331" lon="3.4158">
        <ele>24.191432</ele>
        <time>2019-09-17T12:44:18.358Z</time>
      </trkpt>
      <trkpt lat="50.64325" lon="3.41541">
        <ele>23.952445</ele>
        <time>2019-09-17T12:44:22.882Z</time>
      </trkpt>
      <trkpt lat="50.64334" lon="3.41347">
        <ele>23.279793</ele>
        <time>2019-09-17T12:44:45.693Z</time>
      </trkpt>
      <trkpt lat="50.64335" lon="3.41332">
        <ele>23.244448</ele>
        <time>2019-09-17T12:44:47.311Z</time>
      </trkpt>
      <trkpt lat="50.64328" lon="3.41289">
        <ele>23.133451</ele>
        <time>2019-09-17T12:44:52.764Z</time>
      </trkpt>
      <trkpt lat="50.64302" lon="3.41185">
        <ele>22.933135</ele>
        <time>2019-09-17T12:45:06.692Z</time>
      </trkpt>
      <trkpt lat="50.64292" lon="3.41155">
        <ele>22.944833</ele>
        <time>2019-09-17T12:45:10.889Z</time>
      </trkpt>
      <trkpt lat="50.64283" lon="3.41119">
        <ele>22.958838</ele>
        <time>2019-09-17T12:45:15.895Z</time>
      </trkpt>
      <trkpt lat="50.64257" lon="3.41008">
        <ele>23.000929</ele>
        <time>2019-09-17T12:45:31.650Z</time>
      </trkpt>
      <trkpt lat="50.64223" lon="3.4083">
        <ele>23.169392</ele>
        <time>2019-09-17T12:45:56.089Z</time>
      </trkpt>
      <trkpt lat="50.64199" lon="3.40589">
        <ele>23.476086</ele>
        <time>2019-09-17T12:46:28.920Z</time>
      </trkpt>
      <trkpt lat="50.64206" lon="3.4034">
        <ele>23.625348</ele>
        <time>2019-09-17T12:47:02.486Z</time>
      </trkpt>
      <trkpt lat="50.64164" lon="3.40131">
        <ele>23.038628</ele>
        <time>2019-09-17T12:47:28.539Z</time>
      </trkpt>
      <trkpt lat="50.64142" lon="3.40029">
        <ele>22.510192</ele>
        <time>2019-09-17T12:47:40.347Z</time>
      </trkpt>
      <trkpt lat="50.64132" lon="3.39975">
        <ele>22.209729</ele>
        <time>2019-09-17T12:47:46.497Z</time>
      </trkpt>
      <trkpt lat="50.64119" lon="3.39964">
        <ele>22.085272</ele>
        <time>2019-09-17T12:47:48.246Z</time>
      </trkpt>
      <trkpt lat="50.641" lon="3.39951">
        <ele>21.911315</ele>
        <time>2019-09-17T12:47:50.786Z</time>
      </trkpt>
      <trkpt lat="50.64069" lon="3.3994">
        <ele>21.64166</ele>
        <time>2019-09-17T12:47:54.746Z</time>
      </trkpt>
      <trkpt lat="50.64051" lon="3.39935">
        <ele>21.491693</ele>
        <time>2019-09-17T12:47:57.044Z</time>
      </trkpt>
      <trkpt lat="50.64015" lon="3.39927">
        <ele>21.600827</ele>
        <time>2019-09-17T12:48:02.070Z</time>
      </trkpt>
      <trkpt lat="50.63994" lon="3.39921">
        <ele>21.67954</ele>
        <time>2019-09-17T12:48:05.167Z</time>
      </trkpt>
      <trkpt lat="50.63983" lon="3.39917">
        <ele>21.723338</ele>
        <time>2019-09-17T12:48:06.986Z</time>
      </trkpt>
      <trkpt lat="50.63962" lon="3.39911">
        <ele>21.804083</ele>
        <time>2019-09-17T12:48:10.583Z</time>
      </trkpt>
      <trkpt lat="50.63948" lon="3.39789">
        <ele>22.100177</ele>
        <time>2019-09-17T12:48:29.608Z</time>
      </trkpt>
      <trkpt lat="50.63951" lon="3.39599">
        <ele>22.830008</ele>
        <time>2019-09-17T12:48:57.148Z</time>
      </trkpt>
      <trkpt lat="50.63954" lon="3.39546">
        <ele>23.043926</ele>
        <time>2019-09-17T12:49:04.478Z</time>
      </trkpt>
      <trkpt lat="50.63955" lon="3.395">
        <ele>23.227642</ele>
        <time>2019-09-17T12:49:11.029Z</time>
      </trkpt>
      <trkpt lat="50.63955" lon="3.39451">
        <ele>23.525741</ele>
        <time>2019-09-17T12:49:18.168Z</time>
      </trkpt>
      <trkpt lat="50.63957" lon="3.39421">
        <ele>23.744204</ele>
        <time>2019-09-17T12:49:22.691Z</time>
      </trkpt>
      <trkpt lat="50.63966" lon="3.39352">
        <ele>24.242664</ele>
        <time>2019-09-17T12:49:33.114Z</time>
      </trkpt>
      <trkpt lat="50.63971" lon="3.39331">
        <ele>24.395239</ele>
        <time>2019-09-17T12:49:36.343Z</time>
      </trkpt>
      <trkpt lat="50.64008" lon="3.3935">
        <ele>24.833038</ele>
        <time>2019-09-17T12:49:45.467Z</time>
      </trkpt>
      <trkpt lat="50.64135" lon="3.39374">
        <ele>27.826904</ele>
        <time>2019-09-17T12:50:22.918Z</time>
      </trkpt>
      <trkpt lat="50.64492" lon="3.39416">
        <ele>41.153343</ele>
        <time>2019-09-17T12:52:28.023Z</time>
      </trkpt>
      <trkpt lat="50.64533" lon="3.39412">
        <ele>43.082325</ele>
        <time>2019-09-17T12:52:44.928Z</time>
      </trkpt>
      <trkpt lat="50.64625" lon="3.39401">
        <ele>47.883898</ele>
        <time>2019-09-17T12:53:24.793Z</time>
      </trkpt>
      <trkpt lat="50.64803" lon="3.39392">
        <ele>58.292054</ele>
        <time>2019-09-17T12:54:43.061Z</time>
      </trkpt>
      <trkpt lat="50.64873" lon="3.39368">
        <ele>62.49474</ele>
        <time>2019-09-17T12:55:15.028Z</time>
      </trkpt>
      <trkpt lat="50.64893" lon="3.39348">
        <ele>63.895504</ele>
        <time>2019-09-17T12:55:25.609Z</time>
      </trkpt>
      <trkpt lat="50.64986" lon="3.39367">
        <ele>69.575882</ele>
        <time>2019-09-17T12:56:04.401Z</time>
      </trkpt>
      <trkpt lat="50.64999" lon="3.39365">
        <ele>70.38191</ele>
        <time>2019-09-17T12:56:10.748Z</time>
      </trkpt>
      <trkpt lat="50.65044" lon="3.39341">
        <ele>73.404803</ele>
        <time>2019-09-17T12:56:32.302Z</time>
      </trkpt>
      <trkpt lat="50.65063" lon="3.39343">
        <ele>74.607309</ele>
        <time>2019-09-17T12:56:40.712Z</time>
      </trkpt>
      <trkpt lat="50.65087" lon="3.39352">
        <ele>76.135439</ele>
        <time>2019-09-17T12:56:51.555Z</time>
      </trkpt>
      <trkpt lat="50.65107" lon="3.39373">
        <ele>77.650037</ele>
        <time>2019-09-17T12:57:03.520Z</time>
      </trkpt>
      <trkpt lat="50.65118" lon="3.39401">
        <ele>79.354779</ele>
        <time>2019-09-17T12:57:13.453Z</time>
      </trkpt>
      <trkpt lat="50.65168" lon="3.39474">
        <ele>85.288063</ele>
        <time>2019-09-17T12:57:49.637Z</time>
      </trkpt>
      <trkpt lat="50.6522" lon="3.39537">
        <ele>91.076264</ele>
        <time>2019-09-17T12:58:29.065Z</time>
      </trkpt>
      <trkpt lat="50.65277" lon="3.39556">
        <ele>96.020925</ele>
        <time>2019-09-17T12:59:03.046Z</time>
      </trkpt>
      <trkpt lat="50.6536" lon="3.39584">
        <ele>103.185631</ele>
        <time>2019-09-17T12:59:51.525Z</time>
      </trkpt>
      <trkpt lat="50.65372" lon="3.39607">
        <ele>104.787017</ele>
        <time>2019-09-17T13:00:01.911Z</time>
      </trkpt>
      <trkpt lat="50.65401" lon="3.39634">
        <ele>107.605175</ele>
        <time>2019-09-17T13:00:18.619Z</time>
      </trkpt>
      <trkpt lat="50.6545" lon="3.39641">
        <ele>111.067492</ele>
        <time>2019-09-17T13:00:39.797Z</time>
      </trkpt>
      <trkpt lat="50.65501" lon="3.39675">
        <ele>114.566189</ele>
        <time>2019-09-17T13:01:04.303Z</time>
      </trkpt>
      <trkpt lat="50.65528" lon="3.39721">
        <ele>117.046509</ele>
        <time>2019-09-17T13:01:20.561Z</time>
      </trkpt>
      <trkpt lat="50.65542" lon="3.39724">
        <ele>117.980504</ele>
        <time>2019-09-17T13:01:28.723Z</time>
      </trkpt>
      <trkpt lat="50.65558" lon="3.39709">
        <ele>119.116309</ele>
        <time>2019-09-17T13:01:35.981Z</time>
      </trkpt>
      <trkpt lat="50.65571" lon="3.39685">
        <ele>120.405486</ele>
        <time>2019-09-17T13:01:47.405Z</time>
      </trkpt>
      <trkpt lat="50.65578" lon="3.39731">
        <ele>122.148284</ele>
        <time>2019-09-17T13:02:02.413Z</time>
      </trkpt>
      <trkpt lat="50.65592" lon="3.39822">
        <ele>125.57667</ele>
        <time>2019-09-17T13:02:28.644Z</time>
      </trkpt>
      <trkpt lat="50.65593" lon="3.39836">
        <ele>126.086949</ele>
        <time>2019-09-17T13:02:34.099Z</time>
      </trkpt>
      <trkpt lat="50.65593" lon="3.3985">
        <ele>126.593569</ele>
        <time>2019-09-17T13:02:38.455Z</time>
      </trkpt>
      <trkpt lat="50.65586" lon="3.3988">
        <ele>127.789341</ele>
        <time>2019-09-17T13:02:46.233Z</time>
      </trkpt>
      <trkpt lat="50.65579" lon="3.39904">
        <ele>128.733749</ele>
        <time>2019-09-17T13:02:55.097Z</time>
      </trkpt>
      <trkpt lat="50.65572" lon="3.39934">
        <ele>129.932073</ele>
        <time>2019-09-17T13:03:03.149Z</time>
      </trkpt>
      <trkpt lat="50.65567" lon="3.39964">
        <ele>130.659102</ele>
        <time>2019-09-17T13:03:11.733Z</time>
      </trkpt>
      <trkpt lat="50.65565" lon="3.39984">
        <ele>130.692848</ele>
        <time>2019-09-17T13:03:13.685Z</time>
      </trkpt>
      <trkpt lat="50.65545" lon="3.40158">
        <ele>130.99577</ele>
        <time>2019-09-17T13:03:37.414Z</time>
      </trkpt>
      <trkpt lat="50.65536" lon="3.40182">
        <ele>131.042912</ele>
        <time>2019-09-17T13:03:40.369Z</time>
      </trkpt>
      <trkpt lat="50.65535" lon="3.40186">
        <ele>131.050117</ele>
        <time>2019-09-17T13:03:40.834Z</time>
      </trkpt>
      <trkpt lat="50.65533" lon="3.40189">
        <ele>131.057616</ele>
        <time>2019-09-17T13:03:41.167Z</time>
      </trkpt>
      <trkpt lat="50.65508" lon="3.40242">
        <ele>130.881888</ele>
        <time>2019-09-17T13:03:47.886Z</time>
      </trkpt>
      <trkpt lat="50.65498" lon="3.40251">
        <ele>130.720617</ele>
        <time>2019-09-17T13:03:49.626Z</time>
      </trkpt>
      <trkpt lat="50.65491" lon="3.4012">
        <ele>129.549185</ele>
        <time>2019-09-17T13:04:03.686Z</time>
      </trkpt>
      <trkpt lat="50.65494" lon="3.40013">
        <ele>128.595205</ele>
        <time>2019-09-17T13:04:14.722Z</time>
      </trkpt>
      <trkpt lat="50.65493" lon="3.40003">
        <ele>128.417631</ele>
        <time>2019-09-17T13:04:16.027Z</time>
      </trkpt>
      <trkpt lat="50.65488" lon="3.39976">
        <ele>127.935973</ele>
        <time>2019-09-17T13:04:19.892Z</time>
      </trkpt>
      <trkpt lat="50.65493" lon="3.40003">
        <ele>127.454315</ele>
        <time>2019-09-17T13:04:23.231Z</time>
      </trkpt>
      <trkpt lat="50.65494" lon="3.40013">
        <ele>127.276742</ele>
        <time>2019-09-17T13:04:24.552Z</time>
      </trkpt>
      <trkpt lat="50.65491" lon="3.4012">
        <ele>125.425108</ele>
        <time>2019-09-17T13:04:35.752Z</time>
      </trkpt>
      <trkpt lat="50.65498" lon="3.40251">
        <ele>122.273915</ele>
        <time>2019-09-17T13:04:46.994Z</time>
      </trkpt>
      <trkpt lat="50.65495" lon="3.40271">
        <ele>121.352652</ele>
        <time>2019-09-17T13:04:48.710Z</time>
      </trkpt>
      <trkpt lat="50.65489" lon="3.40319">
        <ele>119.172322</ele>
        <time>2019-09-17T13:04:52.672Z</time>
      </trkpt>
      <trkpt lat="50.65485" lon="3.40349">
        <ele>117.78018</ele>
        <time>2019-09-17T13:04:55.258Z</time>
      </trkpt>
      <trkpt lat="50.65482" lon="3.40369">
        <ele>116.888127</ele>
        <time>2019-09-17T13:04:56.838Z</time>
      </trkpt>
      <trkpt lat="50.65478" lon="3.40403">
        <ele>115.335133</ele>
        <time>2019-09-17T13:04:59.734Z</time>
      </trkpt>
      <trkpt lat="50.65475" lon="3.40415">
        <ele>114.75554</ele>
        <time>2019-09-17T13:05:00.722Z</time>
      </trkpt>
      <trkpt lat="50.65256" lon="3.40487">
        <ele>97.97297</ele>
        <time>2019-09-17T13:05:28.649Z</time>
      </trkpt>
      <trkpt lat="50.65252" lon="3.40488">
        <ele>97.613071</ele>
        <time>2019-09-17T13:05:29.187Z</time>
      </trkpt>
      <trkpt lat="50.65223" lon="3.40496">
        <ele>96.739885</ele>
        <time>2019-09-17T13:05:33.623Z</time>
      </trkpt>
      <trkpt lat="50.65217" lon="3.40497">
        <ele>96.619817</ele>
        <time>2019-09-17T13:05:34.381Z</time>
      </trkpt>
      <trkpt lat="50.65211" lon="3.40502">
        <ele>96.490448</ele>
        <time>2019-09-17T13:05:35.559Z</time>
      </trkpt>
      <trkpt lat="50.65205" lon="3.4051">
        <ele>96.342097</ele>
        <time>2019-09-17T13:05:36.868Z</time>
      </trkpt>
      <trkpt lat="50.65202" lon="3.40521">
        <ele>96.200146</ele>
        <time>2019-09-17T13:05:38.001Z</time>
      </trkpt>
      <trkpt lat="50.65207" lon="3.40526">
        <ele>96.089113</ele>
        <time>2019-09-17T13:05:38.675Z</time>
      </trkpt>
      <trkpt lat="50.65237" lon="3.40567">
        <ele>95.334228</ele>
        <time>2019-09-17T13:05:42.936Z</time>
      </trkpt>
      <trkpt lat="50.65247" lon="3.40586">
        <ele>95.037942</ele>
        <time>2019-09-17T13:05:44.602Z</time>
      </trkpt>
      <trkpt lat="50.65312" lon="3.40696">
        <ele>94.342463</ele>
        <time>2019-09-17T13:06:02.845Z</time>
      </trkpt>
      <trkpt lat="50.65465" lon="3.41075">
        <ele>99.982211</ele>
        <time>2019-09-17T13:07:10.747Z</time>
      </trkpt>
      <trkpt lat="50.65489" lon="3.41169">
        <ele>100.985327</ele>
        <time>2019-09-17T13:07:24.711Z</time>
      </trkpt>
      <trkpt lat="50.65499" lon="3.41243">
        <ele>101.181749</ele>
        <time>2019-09-17T13:07:32.997Z</time>
      </trkpt>
      <trkpt lat="50.65502" lon="3.41273">
        <ele>101.260979</ele>
        <time>2019-09-17T13:07:36.590Z</time>
      </trkpt>
      <trkpt lat="50.65518" lon="3.41358">
        <ele>101.491428</ele>
        <time>2019-09-17T13:07:44.924Z</time>
      </trkpt>
      <trkpt lat="50.6555" lon="3.41455">
        <ele>101.202951</ele>
        <time>2019-09-17T13:07:54.207Z</time>
      </trkpt>
      <trkpt lat="50.65565" lon="3.41501">
        <ele>100.733925</ele>
        <time>2019-09-17T13:07:58.365Z</time>
      </trkpt>
      <trkpt lat="50.65582" lon="3.41522">
        <ele>100.426221</ele>
        <time>2019-09-17T13:08:00.855Z</time>
      </trkpt>
      <trkpt lat="50.65601" lon="3.41528">
        <ele>100.151896</ele>
        <time>2019-09-17T13:08:03.063Z</time>
      </trkpt>
      <trkpt lat="50.65703" lon="3.41515">
        <ele>97.797758</ele>
        <time>2019-09-17T13:08:14.398Z</time>
      </trkpt>
      <trkpt lat="50.65738" lon="3.41516">
        <ele>96.19633</ele>
        <time>2019-09-17T13:08:17.953Z</time>
      </trkpt>
      <trkpt lat="50.65817" lon="3.41541">
        <ele>92.540665</ele>
        <time>2019-09-17T13:08:25.543Z</time>
      </trkpt>
      <trkpt lat="50.65894" lon="3.41552">
        <ele>87.903216</ele>
        <time>2019-09-17T13:08:32.465Z</time>
      </trkpt>
      <trkpt lat="50.6607" lon="3.41541">
        <ele>76.164529</ele>
        <time>2019-09-17T13:08:48.155Z</time>
      </trkpt>
      <trkpt lat="50.66106" lon="3.4154">
        <ele>74.731667</ele>
        <time>2019-09-17T13:08:51.488Z</time>
      </trkpt>
      <trkpt lat="50.66109" lon="3.41556">
        <ele>74.291498</ele>
        <time>2019-09-17T13:08:52.551Z</time>
      </trkpt>
      <trkpt lat="50.6611" lon="3.41619">
        <ele>72.67464</ele>
        <time>2019-09-17T13:08:56.517Z</time>
      </trkpt>
      <trkpt lat="50.66088" lon="3.41783">
        <ele>70.787128</ele>
        <time>2019-09-17T13:09:09.433Z</time>
      </trkpt>
      <trkpt lat="50.66077" lon="3.41846">
        <ele>71.113222</ele>
        <time>2019-09-17T13:09:17.732Z</time>
      </trkpt>
      <trkpt lat="50.66065" lon="3.41921">
        <ele>71.493922</ele>
        <time>2019-09-17T13:09:28.165Z</time>
      </trkpt>
      <trkpt lat="50.66054" lon="3.41977">
        <ele>71.781934</ele>
        <time>2019-09-17T13:09:36.392Z</time>
      </trkpt>
      <trkpt lat="50.66051" lon="3.42054">
        <ele>72.443834</ele>
        <time>2019-09-17T13:09:47.619Z</time>
      </trkpt>
      <trkpt lat="50.66044" lon="3.42089">
        <ele>72.769119</ele>
        <time>2019-09-17T13:09:53.186Z</time>
      </trkpt>
      <trkpt lat="50.66001" lon="3.42204">
        <ele>73.939353</ele>
        <time>2019-09-17T13:10:11.227Z</time>
      </trkpt>
      <trkpt lat="50.65983" lon="3.42289">
        <ele>73.740833</ele>
        <time>2019-09-17T13:10:19.667Z</time>
      </trkpt>
      <trkpt lat="50.65948" lon="3.42378">
        <ele>72.571142</ele>
        <time>2019-09-17T13:10:27.532Z</time>
      </trkpt>
      <trkpt lat="50.65936" lon="3.42386">
        <ele>72.346295</ele>
        <time>2019-09-17T13:10:29.044Z</time>
      </trkpt>
      <trkpt lat="50.65923" lon="3.42397">
        <ele>72.079258</ele>
        <time>2019-09-17T13:10:30.574Z</time>
      </trkpt>
      <trkpt lat="50.65913" lon="3.42417">
        <ele>71.789294</ele>
        <time>2019-09-17T13:10:32.353Z</time>
      </trkpt>
      <trkpt lat="50.65853" lon="3.42587">
        <ele>67.925023</ele>
        <time>2019-09-17T13:10:44.416Z</time>
      </trkpt>
      <trkpt lat="50.65856" lon="3.42643">
        <ele>66.583666</ele>
        <time>2019-09-17T13:10:47.935Z</time>
      </trkpt>
      <trkpt lat="50.65857" lon="3.42659">
        <ele>66.204737</ele>
        <time>2019-09-17T13:10:48.911Z</time>
      </trkpt>
      <trkpt lat="50.65854" lon="3.4278">
        <ele>63.716107</ele>
        <time>2019-09-17T13:10:56.626Z</time>
      </trkpt>
      <trkpt lat="50.65836" lon="3.4287">
        <ele>62.308136</ele>
        <time>2019-09-17T13:11:02.803Z</time>
      </trkpt>
      <trkpt lat="50.65847" lon="3.42991">
        <ele>60.472454</ele>
        <time>2019-09-17T13:11:11.604Z</time>
      </trkpt>
      <trkpt lat="50.65845" lon="3.43095">
        <ele>59.681048</ele>
        <time>2019-09-17T13:11:19.467Z</time>
      </trkpt>
      <trkpt lat="50.65849" lon="3.43116">
        <ele>59.557905</ele>
        <time>2019-09-17T13:11:21.193Z</time>
      </trkpt>
      <trkpt lat="50.65858" lon="3.43129">
        <ele>59.452093</ele>
        <time>2019-09-17T13:11:22.684Z</time>
      </trkpt>
      <trkpt lat="50.65889" lon="3.43161">
        <ele>59.120345</ele>
        <time>2019-09-17T13:11:27.479Z</time>
      </trkpt>
      <trkpt lat="50.65893" lon="3.43186">
        <ele>58.974331</ele>
        <time>2019-09-17T13:11:29.594Z</time>
      </trkpt>
      <trkpt lat="50.65891" lon="3.43209">
        <ele>58.845369</ele>
        <time>2019-09-17T13:11:31.454Z</time>
      </trkpt>
      <trkpt lat="50.65884" lon="3.43243">
        <ele>58.64435</ele>
        <time>2019-09-17T13:11:34.362Z</time>
      </trkpt>
      <trkpt lat="50.65856" lon="3.43381">
        <ele>58.48831</ele>
        <time>2019-09-17T13:11:46.588Z</time>
      </trkpt>
      <trkpt lat="50.658" lon="3.43509">
        <ele>58.422382</ele>
        <time>2019-09-17T13:12:02.176Z</time>
      </trkpt>
      <trkpt lat="50.65779" lon="3.43498">
        <ele>58.310501</ele>
        <time>2019-09-17T13:12:06.517Z</time>
      </trkpt>
      <trkpt lat="50.65718" lon="3.43468">
        <ele>57.982689</ele>
        <time>2019-09-17T13:12:15.736Z</time>
      </trkpt>
      <trkpt lat="50.65671" lon="3.43464">
        <ele>57.736402</ele>
        <time>2019-09-17T13:12:22.018Z</time>
      </trkpt>
      <trkpt lat="50.65632" lon="3.43472">
        <ele>57.535954</ele>
        <time>2019-09-17T13:12:26.838Z</time>
      </trkpt>
      <trkpt lat="50.6563" lon="3.43572">
        <ele>55.808805</ele>
        <time>2019-09-17T13:12:33.736Z</time>
      </trkpt>
      <trkpt lat="50.65616" lon="3.43725">
        <ele>52.802484</ele>
        <time>2019-09-17T13:12:43.502Z</time>
      </trkpt>
      <trkpt lat="50.656" lon="3.4382">
        <ele>50.811178</ele>
        <time>2019-09-17T13:12:49.607Z</time>
      </trkpt>
      <trkpt lat="50.65571" lon="3.43951">
        <ele>47.949386</ele>
        <time>2019-09-17T13:12:58.441Z</time>
      </trkpt>
      <trkpt lat="50.65513" lon="3.4415">
        <ele>44.140718</ele>
        <time>2019-09-17T13:13:13.082Z</time>
      </trkpt>
      <trkpt lat="50.65509" lon="3.44161">
        <ele>43.938297</ele>
        <time>2019-09-17T13:13:13.978Z</time>
      </trkpt>
      <trkpt lat="50.65498" lon="3.44194">
        <ele>43.380754</ele>
        <time>2019-09-17T13:13:16.583Z</time>
      </trkpt>
      <trkpt lat="50.65411" lon="3.4435">
        <ele>40.407169</ele>
        <time>2019-09-17T13:13:30.820Z</time>
      </trkpt>
      <trkpt lat="50.6532" lon="3.44422">
        <ele>38.281505</ele>
        <time>2019-09-17T13:13:41.854Z</time>
      </trkpt>
      <trkpt lat="50.65317" lon="3.44432">
        <ele>38.122527</ele>
        <time>2019-09-17T13:13:42.688Z</time>
      </trkpt>
      <trkpt lat="50.65315" lon="3.44445">
        <ele>37.98526</ele>
        <time>2019-09-17T13:13:43.613Z</time>
      </trkpt>
      <trkpt lat="50.65335" lon="3.44515">
        <ele>37.55809</ele>
        <time>2019-09-17T13:13:49.057Z</time>
      </trkpt>
      <trkpt lat="50.65336" lon="3.44581">
        <ele>37.19344</ele>
        <time>2019-09-17T13:13:53.913Z</time>
      </trkpt>
      <trkpt lat="50.65371" lon="3.44714">
        <ele>36.505153</ele>
        <time>2019-09-17T13:14:06.485Z</time>
      </trkpt>
      <trkpt lat="50.65375" lon="3.44729">
        <ele>36.679932</ele>
        <time>2019-09-17T13:14:08.199Z</time>
      </trkpt>
      <trkpt lat="50.65381" lon="3.44753">
        <ele>36.950254</ele>
        <time>2019-09-17T13:14:11.441Z</time>
      </trkpt>
      <trkpt lat="50.65403" lon="3.44837">
        <ele>37.892216</ele>
        <time>2019-09-17T13:14:23.383Z</time>
      </trkpt>
      <trkpt lat="50.65406" lon="3.44859">
        <ele>38.125411</ele>
        <time>2019-09-17T13:14:26.676Z</time>
      </trkpt>
      <trkpt lat="50.65404" lon="3.4488">
        <ele>38.345522</ele>
        <time>2019-09-17T13:14:29.799Z</time>
      </trkpt>
      <trkpt lat="50.65397" lon="3.44915">
        <ele>38.731924</ele>
        <time>2019-09-17T13:14:35.277Z</time>
      </trkpt>
      <trkpt lat="50.65389" lon="3.44922">
        <ele>38.881869</ele>
        <time>2019-09-17T13:14:37.623Z</time>
      </trkpt>
      <trkpt lat="50.65375" lon="3.44939">
        <ele>39.168922</ele>
        <time>2019-09-17T13:14:41.608Z</time>
      </trkpt>
      <trkpt lat="50.65367" lon="3.44943">
        <ele>39.299909</ele>
        <time>2019-09-17T13:14:43.795Z</time>
      </trkpt>
      <trkpt lat="50.65374" lon="3.44965">
        <ele>39.689985</ele>
        <time>2019-09-17T13:14:47.886Z</time>
      </trkpt>
      <trkpt lat="50.65333" lon="3.45004">
        <ele>41.066914</ele>
        <time>2019-09-17T13:15:00.277Z</time>
      </trkpt>
      <trkpt lat="50.6529" lon="3.45037">
        <ele>42.441301</ele>
        <time>2019-09-17T13:15:13.434Z</time>
      </trkpt>
      <trkpt lat="50.65228" lon="3.4503">
        <ele>44.25021</ele>
        <time>2019-09-17T13:15:30.105Z</time>
      </trkpt>
      <trkpt lat="50.65194" lon="3.45042">
        <ele>45.216803</ele>
        <time>2019-09-17T13:15:39.298Z</time>
      </trkpt>
      <trkpt lat="50.65163" lon="3.45063">
        <ele>46.14892</ele>
        <time>2019-09-17T13:15:48.012Z</time>
      </trkpt>
      <trkpt lat="50.65111" lon="3.45119">
        <ele>47.881846</ele>
        <time>2019-09-17T13:16:04.218Z</time>
      </trkpt>
      <trkpt lat="50.65104" lon="3.45124">
        <ele>48.075244</ele>
        <time>2019-09-17T13:16:06.390Z</time>
      </trkpt>
      <trkpt lat="50.65093" lon="3.45133">
        <ele>48.419753</ele>
        <time>2019-09-17T13:16:09.748Z</time>
      </trkpt>
      <trkpt lat="50.65076" lon="3.45148">
        <ele>48.959768</ele>
        <time>2019-09-17T13:16:14.509Z</time>
      </trkpt>
      <trkpt lat="50.65049" lon="3.45189">
        <ele>49.931686</ele>
        <time>2019-09-17T13:16:24.171Z</time>
      </trkpt>
      <trkpt lat="50.65029" lon="3.45234">
        <ele>50.75332</ele>
        <time>2019-09-17T13:16:32.723Z</time>
      </trkpt>
      <trkpt lat="50.64968" lon="3.45377">
        <ele>53.356982</ele>
        <time>2019-09-17T13:16:59.050Z</time>
      </trkpt>
      <trkpt lat="50.64956" lon="3.45423">
        <ele>54.063571</ele>
        <time>2019-09-17T13:17:06.625Z</time>
      </trkpt>
      <trkpt lat="50.64942" lon="3.455">
        <ele>55.130306</ele>
        <time>2019-09-17T13:17:18.458Z</time>
      </trkpt>
      <trkpt lat="50.64923" lon="3.456">
        <ele>56.525115</ele>
        <time>2019-09-17T13:17:33.925Z</time>
      </trkpt>
      <trkpt lat="50.64921" lon="3.45607">
        <ele>56.629534</ele>
        <time>2019-09-17T13:17:35.018Z</time>
      </trkpt>
      <trkpt lat="50.64911" lon="3.45649">
        <ele>57.220651</ele>
        <time>2019-09-17T13:17:41.595Z</time>
      </trkpt>
      <trkpt lat="50.64868" lon="3.45742">
        <ele>58.331555</ele>
        <time>2019-09-17T13:17:58.272Z</time>
      </trkpt>
      <trkpt lat="50.64791" lon="3.45877">
        <ele>59.892842</ele>
        <time>2019-09-17T13:18:21.182Z</time>
      </trkpt>
      <trkpt lat="50.64537" lon="3.46302">
        <ele>60.75184</ele>
        <time>2019-09-17T13:19:18.539Z</time>
      </trkpt>
      <trkpt lat="50.64459" lon="3.4661">
        <ele>60.897494</ele>
        <time>2019-09-17T13:19:49.279Z</time>
      </trkpt>
      <trkpt lat="50.64394" lon="3.46898">
        <ele>62.061056</ele>
        <time>2019-09-17T13:20:22.131Z</time>
      </trkpt>
      <trkpt lat="50.64393" lon="3.46902">
        <ele>62.096235</ele>
        <time>2019-09-17T13:20:22.695Z</time>
      </trkpt>
      <trkpt lat="50.64375" lon="3.46964">
        <ele>62.628994</ele>
        <time>2019-09-17T13:20:31.237Z</time>
      </trkpt>
      <trkpt lat="50.64292" lon="3.47148">
        <ele>64.327948</ele>
        <time>2019-09-17T13:21:02.371Z</time>
      </trkpt>
      <trkpt lat="50.64257" lon="3.47199">
        <ele>64.852252</ele>
        <time>2019-09-17T13:21:11.757Z</time>
      </trkpt>
      <trkpt lat="50.64256" lon="3.47201">
        <ele>64.879733</ele>
        <time>2019-09-17T13:21:12.551Z</time>
      </trkpt>
      <trkpt lat="50.64203" lon="3.47276">
        <ele>65.665709</ele>
        <time>2019-09-17T13:21:25.647Z</time>
      </trkpt>
      <trkpt lat="50.64145" lon="3.47375">
        <ele>64.678419</ele>
        <time>2019-09-17T13:21:36.875Z</time>
      </trkpt>
      <trkpt lat="50.64102" lon="3.47418">
        <ele>64.051834</ele>
        <time>2019-09-17T13:21:42.579Z</time>
      </trkpt>
      <trkpt lat="50.64092" lon="3.47422">
        <ele>63.918731</ele>
        <time>2019-09-17T13:21:43.805Z</time>
      </trkpt>
      <trkpt lat="50.64087" lon="3.47424">
        <ele>63.85667</ele>
        <time>2019-09-17T13:21:44.300Z</time>
      </trkpt>
      <trkpt lat="50.63999" lon="3.47435">
        <ele>61.893206</ele>
        <time>2019-09-17T13:21:53.574Z</time>
      </trkpt>
      <trkpt lat="50.63873" lon="3.47451">
        <ele>58.379447</ele>
        <time>2019-09-17T13:22:06.552Z</time>
      </trkpt>
      <trkpt lat="50.63837" lon="3.47455">
        <ele>57.492448</ele>
        <time>2019-09-17T13:22:10.385Z</time>
      </trkpt>
      <trkpt lat="50.63834" lon="3.47456">
        <ele>57.423202</ele>
        <time>2019-09-17T13:22:10.679Z</time>
      </trkpt>
      <trkpt lat="50.63808" lon="3.47516">
        <ele>56.279041</ele>
        <time>2019-09-17T13:22:17.817Z</time>
      </trkpt>
      <trkpt lat="50.63834" lon="3.47456">
        <ele>55.134881</ele>
        <time>2019-09-17T13:22:24.988Z</time>
      </trkpt>
      <trkpt lat="50.63567" lon="3.47498">
        <ele>49.0599</ele>
        <time>2019-09-17T13:22:53.662Z</time>
      </trkpt>
      <trkpt lat="50.63544" lon="3.47492">
        <ele>48.679432</ele>
        <time>2019-09-17T13:22:56.153Z</time>
      </trkpt>
      <trkpt lat="50.63361" lon="3.47264">
        <ele>45.624576</ele>
        <time>2019-09-17T13:23:23.621Z</time>
      </trkpt>
      <trkpt lat="50.63333" lon="3.47252">
        <ele>45.332687</ele>
        <time>2019-09-17T13:23:27.427Z</time>
      </trkpt>
      <trkpt lat="50.63155" lon="3.47359">
        <ele>45.18189</ele>
        <time>2019-09-17T13:23:54.920Z</time>
      </trkpt>
      <trkpt lat="50.63104" lon="3.47372">
        <ele>45.693507</ele>
        <time>2019-09-17T13:24:04.410Z</time>
      </trkpt>
      <trkpt lat="50.62972" lon="3.47378">
        <ele>47.710412</ele>
        <time>2019-09-17T13:24:33.095Z</time>
      </trkpt>
      <trkpt lat="50.62937" lon="3.47366">
        <ele>48.306861</ele>
        <time>2019-09-17T13:24:41.591Z</time>
      </trkpt>
      <trkpt lat="50.62912" lon="3.47344">
        <ele>48.815073</ele>
        <time>2019-09-17T13:24:48.350Z</time>
      </trkpt>
      <trkpt lat="50.62837" lon="3.47257">
        <ele>50.479496</ele>
        <time>2019-09-17T13:25:09.883Z</time>
      </trkpt>
      <trkpt lat="50.62606" lon="3.47097">
        <ele>52.343316</ele>
        <time>2019-09-17T13:25:56.567Z</time>
      </trkpt>
      <trkpt lat="50.62553" lon="3.47075">
        <ele>51.743834</ele>
        <time>2019-09-17T13:26:03.298Z</time>
      </trkpt>
      <trkpt lat="50.6252" lon="3.47058">
        <ele>51.358979</ele>
        <time>2019-09-17T13:26:07.333Z</time>
      </trkpt>
      <trkpt lat="50.62395" lon="3.47004">
        <ele>48.572951</ele>
        <time>2019-09-17T13:26:21.031Z</time>
      </trkpt>
      <trkpt lat="50.62367" lon="3.46963">
        <ele>47.471404</ele>
        <time>2019-09-17T13:26:24.885Z</time>
      </trkpt>
      <trkpt lat="50.62296" lon="3.468">
        <ele>43.493314</ele>
        <time>2019-09-17T13:26:37.658Z</time>
      </trkpt>
      <trkpt lat="50.62205" lon="3.46737">
        <ele>40.109471</ele>
        <time>2019-09-17T13:26:47.518Z</time>
      </trkpt>
      <trkpt lat="50.62169" lon="3.46724">
        <ele>38.788283</ele>
        <time>2019-09-17T13:26:51.271Z</time>
      </trkpt>
      <trkpt lat="50.62098" lon="3.46721">
        <ele>36.227887</ele>
        <time>2019-09-17T13:26:58.187Z</time>
      </trkpt>
      <trkpt lat="50.62004" lon="3.46748">
        <ele>32.748554</ele>
        <time>2019-09-17T13:27:07.679Z</time>
      </trkpt>
      <trkpt lat="50.61966" lon="3.46753">
        <ele>31.72269</ele>
        <time>2019-09-17T13:27:11.573Z</time>
      </trkpt>
      <trkpt lat="50.61939" lon="3.46886">
        <ele>29.351007</ele>
        <time>2019-09-17T13:27:20.840Z</time>
      </trkpt>
      <trkpt lat="50.6192" lon="3.46906">
        <ele>28.744309</ele>
        <time>2019-09-17T13:27:23.241Z</time>
      </trkpt>
      <trkpt lat="50.61882" lon="3.46906">
        <ele>27.880558</ele>
        <time>2019-09-17T13:27:27.448Z</time>
      </trkpt>
      <trkpt lat="50.61874" lon="3.46919">
        <ele>27.766286</ele>
        <time>2019-09-17T13:27:28.826Z</time>
      </trkpt>
      <trkpt lat="50.61872" lon="3.4693">
        <ele>27.684674</ele>
        <time>2019-09-17T13:27:29.715Z</time>
      </trkpt>
      <trkpt lat="50.61869" lon="3.46929">
        <ele>27.652197</ele>
        <time>2019-09-17T13:27:30.069Z</time>
      </trkpt>
      <trkpt lat="50.61859" lon="3.46938">
        <ele>27.540271</ele>
        <time>2019-09-17T13:27:31.378Z</time>
      </trkpt>
      <trkpt lat="50.61859" lon="3.46942">
        <ele>27.511033</ele>
        <time>2019-09-17T13:27:31.702Z</time>
      </trkpt>
      <trkpt lat="50.61859" lon="3.46943">
        <ele>27.500444</ele>
        <time>2019-09-17T13:27:31.832Z</time>
      </trkpt>
      <trkpt lat="50.61859" lon="3.46946">
        <ele>27.481887</ele>
        <time>2019-09-17T13:27:32.140Z</time>
      </trkpt>
      <trkpt lat="50.6187" lon="3.46956">
        <ele>27.349407</ele>
        <time>2019-09-17T13:27:33.654Z</time>
      </trkpt>
      <trkpt lat="50.61872" lon="3.46955">
        <ele>27.320597</ele>
        <time>2019-09-17T13:27:34.006Z</time>
      </trkpt>
      <trkpt lat="50.61884" lon="3.46986">
        <ele>27.081337</ele>
        <time>2019-09-17T13:27:38.042Z</time>
      </trkpt>
      <trkpt lat="50.61887" lon="3.47018">
        <ele>26.866376</ele>
        <time>2019-09-17T13:27:41.631Z</time>
      </trkpt>
      <trkpt lat="50.61873" lon="3.47085">
        <ele>26.405585</ele>
        <time>2019-09-17T13:27:49.580Z</time>
      </trkpt>
      <trkpt lat="50.61902" lon="3.47188">
        <ele>25.990689</ele>
        <time>2019-09-17T13:28:02.943Z</time>
      </trkpt>
      <trkpt lat="50.61956" lon="3.47264">
        <ele>25.788803</ele>
        <time>2019-09-17T13:28:16.862Z</time>
      </trkpt>
      <trkpt lat="50.61978" lon="3.4746">
        <ele>25.826004</ele>
        <time>2019-09-17T13:28:42.305Z</time>
      </trkpt>
      <trkpt lat="50.61979" lon="3.47475">
        <ele>25.860013</ele>
        <time>2019-09-17T13:28:44.399Z</time>
      </trkpt>
      <trkpt lat="50.61968" lon="3.47527">
        <ele>25.981206</ele>
        <time>2019-09-17T13:28:51.906Z</time>
      </trkpt>
      <trkpt lat="50.61965" lon="3.47613">
        <ele>26.17202</ele>
        <time>2019-09-17T13:29:04.110Z</time>
      </trkpt>
      <trkpt lat="50.6199" lon="3.47808">
        <ele>27.316939</ele>
        <time>2019-09-17T13:29:34.214Z</time>
      </trkpt>
      <trkpt lat="50.61996" lon="3.47832">
        <ele>27.483525</ele>
        <time>2019-09-17T13:29:38.305Z</time>
      </trkpt>
      <trkpt lat="50.62008" lon="3.47853">
        <ele>27.666114</ele>
        <time>2019-09-17T13:29:42.875Z</time>
      </trkpt>
      <trkpt lat="50.62039" lon="3.47881">
        <ele>28.02446</ele>
        <time>2019-09-17T13:29:51.824Z</time>
      </trkpt>
      <trkpt lat="50.62048" lon="3.47897">
        <ele>28.195016</ele>
        <time>2019-09-17T13:29:55.285Z</time>
      </trkpt>
      <trkpt lat="50.62052" lon="3.47916">
        <ele>28.354821</ele>
        <time>2019-09-17T13:29:58.429Z</time>
      </trkpt>
      <trkpt lat="50.62044" lon="3.48058">
        <ele>29.526108</ele>
        <time>2019-09-17T13:30:21.554Z</time>
      </trkpt>
      <trkpt lat="50.62021" lon="3.48242">
        <ele>31.264434</ele>
        <time>2019-09-17T13:30:51.969Z</time>
      </trkpt>
      <trkpt lat="50.62024" lon="3.48345">
        <ele>32.34836</ele>
        <time>2019-09-17T13:31:08.630Z</time>
      </trkpt>
      <trkpt lat="50.62004" lon="3.48424">
        <ele>33.238481</ele>
        <time>2019-09-17T13:31:23.670Z</time>
      </trkpt>
      <trkpt lat="50.61995" lon="3.48554">
        <ele>35.663451</ele>
        <time>2019-09-17T13:31:49.933Z</time>
      </trkpt>
      <trkpt lat="50.62" lon="3.48603">
        <ele>36.608169</ele>
        <time>2019-09-17T13:32:00.490Z</time>
      </trkpt>
      <trkpt lat="50.62008" lon="3.48611">
        <ele>36.878979</ele>
        <time>2019-09-17T13:32:03.463Z</time>
      </trkpt>
      <trkpt lat="50.62023" lon="3.48583">
        <ele>37.572717</ele>
        <time>2019-09-17T13:32:11.423Z</time>
      </trkpt>
      <trkpt lat="50.62033" lon="3.48566">
        <ele>38.019159</ele>
        <time>2019-09-17T13:32:16.341Z</time>
      </trkpt>
      <trkpt lat="50.62048" lon="3.48557">
        <ele>38.508988</ele>
        <time>2019-09-17T13:32:21.849Z</time>
      </trkpt>
      <trkpt lat="50.6208" lon="3.48549">
        <ele>39.260425</ele>
        <time>2019-09-17T13:32:32.534Z</time>
      </trkpt>
      <trkpt lat="50.62096" lon="3.48548">
        <ele>39.592206</ele>
        <time>2019-09-17T13:32:38.471Z</time>
      </trkpt>
      <trkpt lat="50.62124" lon="3.48692">
        <ele>41.527034</ele>
        <time>2019-09-17T13:33:07.759Z</time>
      </trkpt>
      <trkpt lat="50.62212" lon="3.48853">
        <ele>41.326347</ele>
        <time>2019-09-17T13:33:33.874Z</time>
      </trkpt>
      <trkpt lat="50.62251" lon="3.48963">
        <ele>40.331169</ele>
        <time>2019-09-17T13:33:46.229Z</time>
      </trkpt>
      <trkpt lat="50.62237" lon="3.48978">
        <ele>40.024811</ele>
        <time>2019-09-17T13:33:48.822Z</time>
      </trkpt>
      <trkpt lat="50.6222" lon="3.49014">
        <ele>39.299672</ele>
        <time>2019-09-17T13:33:53.085Z</time>
      </trkpt>
      <trkpt lat="50.62135" lon="3.49196">
        <ele>35.63038</ele>
        <time>2019-09-17T13:34:14.522Z</time>
      </trkpt>
      <trkpt lat="50.62126" lon="3.49226">
        <ele>35.400275</ele>
        <time>2019-09-17T13:34:17.974Z</time>
      </trkpt>
      <trkpt lat="50.62116" lon="3.4932">
        <ele>34.805599</ele>
        <time>2019-09-17T13:34:28.213Z</time>
      </trkpt>
      <trkpt lat="50.62116" lon="3.49347">
        <ele>34.634837</ele>
        <time>2019-09-17T13:34:31.212Z</time>
      </trkpt>
      <trkpt lat="50.62174" lon="3.49545">
        <ele>33.927477</ele>
        <time>2019-09-17T13:34:57.559Z</time>
      </trkpt>
      <trkpt lat="50.62184" lon="3.49642">
        <ele>34.042315</ele>
        <time>2019-09-17T13:35:10.937Z</time>
      </trkpt>
      <trkpt lat="50.62184" lon="3.49648">
        <ele>34.049755</ele>
        <time>2019-09-17T13:35:11.985Z</time>
      </trkpt>
      <trkpt lat="50.62188" lon="3.49704">
        <ele>34.115465</ele>
        <time>2019-09-17T13:35:19.837Z</time>
      </trkpt>
      <trkpt lat="50.62205" lon="3.49879">
        <ele>34.683421</ele>
        <time>2019-09-17T13:35:45.419Z</time>
      </trkpt>
      <trkpt lat="50.62235" lon="3.49989">
        <ele>35.128308</ele>
        <time>2019-09-17T13:36:02.454Z</time>
      </trkpt>
      <trkpt lat="50.62245" lon="3.50048">
        <ele>35.417053</ele>
        <time>2019-09-17T13:36:11.285Z</time>
      </trkpt>
      <trkpt lat="50.62256" lon="3.50303">
        <ele>36.815609</ele>
        <time>2019-09-17T13:36:49.473Z</time>
      </trkpt>
      <trkpt lat="50.62255" lon="3.50359">
        <ele>37.418741</ele>
        <time>2019-09-17T13:36:58.311Z</time>
      </trkpt>
      <trkpt lat="50.62278" lon="3.50438">
        <ele>38.349589</ele>
        <time>2019-09-17T13:37:12.371Z</time>
      </trkpt>
      <trkpt lat="50.62277" lon="3.50467">
        <ele>38.66078</ele>
        <time>2019-09-17T13:37:17.240Z</time>
      </trkpt>
      <trkpt lat="50.62261" lon="3.50577">
        <ele>39.989685</ele>
        <time>2019-09-17T13:37:38.929Z</time>
      </trkpt>
      <trkpt lat="50.62265" lon="3.50598">
        <ele>40.418937</ele>
        <time>2019-09-17T13:37:42.936Z</time>
      </trkpt>
      <trkpt lat="50.62276" lon="3.50608">
        <ele>40.807201</ele>
        <time>2019-09-17T13:37:46.771Z</time>
      </trkpt>
      <trkpt lat="50.62337" lon="3.50637">
        <ele>42.862529</ele>
        <time>2019-09-17T13:38:07.394Z</time>
      </trkpt>
      <trkpt lat="50.62358" lon="3.50651">
        <ele>43.576241</ele>
        <time>2019-09-17T13:38:15.477Z</time>
      </trkpt>
      <trkpt lat="50.62349" lon="3.50687">
        <ele>44.358786</ele>
        <time>2019-09-17T13:38:24.097Z</time>
      </trkpt>
      <trkpt lat="50.62336" lon="3.5081">
        <ele>46.462714</ele>
        <time>2019-09-17T13:38:51.939Z</time>
      </trkpt>
      <trkpt lat="50.6235" lon="3.50828">
        <ele>46.867471</ele>
        <time>2019-09-17T13:38:57.605Z</time>
      </trkpt>
      <trkpt lat="50.62394" lon="3.50876">
        <ele>48.079185</ele>
        <time>2019-09-17T13:39:14.476Z</time>
      </trkpt>
      <trkpt lat="50.62374" lon="3.50965">
        <ele>49.437059</ele>
        <time>2019-09-17T13:39:29.405Z</time>
      </trkpt>
      <trkpt lat="50.62366" lon="3.51">
        <ele>49.245785</ele>
        <time>2019-09-17T13:39:34.810Z</time>
      </trkpt>
      <trkpt lat="50.62362" lon="3.51022">
        <ele>49.050672</ele>
        <time>2019-09-17T13:39:37.833Z</time>
      </trkpt>
      <trkpt lat="50.62355" lon="3.51246">
        <ele>47.121642</ele>
        <time>2019-09-17T13:40:00.592Z</time>
      </trkpt>
      <trkpt lat="50.62349" lon="3.51273">
        <ele>46.813051</ele>
        <time>2019-09-17T13:40:03.233Z</time>
      </trkpt>
      <trkpt lat="50.6234" lon="3.51376">
        <ele>45.677471</ele>
        <time>2019-09-17T13:40:13.221Z</time>
      </trkpt>
      <trkpt lat="50.62334" lon="3.51401">
        <ele>45.383162</ele>
        <time>2019-09-17T13:40:15.921Z</time>
      </trkpt>
      <trkpt lat="50.62325" lon="3.51411">
        <ele>45.180514</ele>
        <time>2019-09-17T13:40:17.764Z</time>
      </trkpt>
      <trkpt lat="50.62259" lon="3.51449">
        <ele>43.967025</ele>
        <time>2019-09-17T13:40:29.444Z</time>
      </trkpt>
      <trkpt lat="50.62159" lon="3.51468">
        <ele>43.92766</ele>
        <time>2019-09-17T13:40:51.077Z</time>
      </trkpt>
      <trkpt lat="50.62059" lon="3.51483">
        <ele>43.74648</ele>
        <time>2019-09-17T13:41:12.057Z</time>
      </trkpt>
      <trkpt lat="50.62064" lon="3.51531">
        <ele>43.517845</ele>
        <time>2019-09-17T13:41:18.070Z</time>
      </trkpt>
      <trkpt lat="50.62098" lon="3.51668">
        <ele>42.837195</ele>
        <time>2019-09-17T13:41:34.489Z</time>
      </trkpt>
      <trkpt lat="50.62146" lon="3.5186">
        <ele>42.110745</ele>
        <time>2019-09-17T13:41:56.468Z</time>
      </trkpt>
      <trkpt lat="50.62159" lon="3.51883">
        <ele>42.017943</ele>
        <time>2019-09-17T13:41:59.881Z</time>
      </trkpt>
      <trkpt lat="50.62248" lon="3.5196">
        <ele>42.506457</ele>
        <time>2019-09-17T13:42:22.359Z</time>
      </trkpt>
      <trkpt lat="50.62564" lon="3.52137">
        <ele>50.730539</ele>
        <time>2019-09-17T13:44:06.657Z</time>
      </trkpt>
      <trkpt lat="50.62586" lon="3.52161">
        <ele>51.341805</ele>
        <time>2019-09-17T13:44:14.854Z</time>
      </trkpt>
      <trkpt lat="50.62645" lon="3.52268">
        <ele>53.424116</ele>
        <time>2019-09-17T13:44:42.187Z</time>
      </trkpt>
      <trkpt lat="50.62664" lon="3.52291">
        <ele>53.984827</ele>
        <time>2019-09-17T13:44:49.231Z</time>
      </trkpt>
      <trkpt lat="50.62766" lon="3.52359">
        <ele>55.416246</ele>
        <time>2019-09-17T13:45:18.179Z</time>
      </trkpt>
      <trkpt lat="50.628" lon="3.52382">
        <ele>55.786877</ele>
        <time>2019-09-17T13:45:26.994Z</time>
      </trkpt>
      <trkpt lat="50.62956" lon="3.52488">
        <ele>57.050567</ele>
        <time>2019-09-17T13:46:03.132Z</time>
      </trkpt>
      <trkpt lat="50.63039" lon="3.5256">
        <ele>58.080049</ele>
        <time>2019-09-17T13:46:26.058Z</time>
      </trkpt>
      <trkpt lat="50.63044" lon="3.52566">
        <ele>58.21616</ele>
        <time>2019-09-17T13:46:27.587Z</time>
      </trkpt>
      <trkpt lat="50.63051" lon="3.52546">
        <ele>58.528918</ele>
        <time>2019-09-17T13:46:31.554Z</time>
      </trkpt>
      <trkpt lat="50.63071" lon="3.52452">
        <ele>59.937788</ele>
        <time>2019-09-17T13:46:50.196Z</time>
      </trkpt>
      <trkpt lat="50.63087" lon="3.52385">
        <ele>60.939959</ele>
        <time>2019-09-17T13:47:04.209Z</time>
      </trkpt>
      <trkpt lat="50.63081" lon="3.52377">
        <ele>61.123204</ele>
        <time>2019-09-17T13:47:07.182Z</time>
      </trkpt>
      <trkpt lat="50.6305" lon="3.52349">
        <ele>62.162036</ele>
        <time>2019-09-17T13:47:18.583Z</time>
      </trkpt>
      <trkpt lat="50.6304" lon="3.52327">
        <ele>62.793378</ele>
        <time>2019-09-17T13:47:23.912Z</time>
      </trkpt>
      <trkpt lat="50.62995" lon="3.52079">
        <ele>68.516476</ele>
        <time>2019-09-17T13:48:21.474Z</time>
      </trkpt>
      <trkpt lat="50.62992" lon="3.5206">
        <ele>68.939094</ele>
        <time>2019-09-17T13:48:26.629Z</time>
      </trkpt>
      <trkpt lat="50.62994" lon="3.52041">
        <ele>69.365838</ele>
        <time>2019-09-17T13:48:30.401Z</time>
      </trkpt>
      <trkpt lat="50.63002" lon="3.52022">
        <ele>69.869654</ele>
        <time>2019-09-17T13:48:35.242Z</time>
      </trkpt>
      <trkpt lat="50.63173" lon="3.5189">
        <ele>76.492092</ele>
        <time>2019-09-17T13:49:38.729Z</time>
      </trkpt>
      <trkpt lat="50.63236" lon="3.51857">
        <ele>78.876603</ele>
        <time>2019-09-17T13:50:01.738Z</time>
      </trkpt>
      <trkpt lat="50.63242" lon="3.51844">
        <ele>79.23336</ele>
        <time>2019-09-17T13:50:05.524Z</time>
      </trkpt>
      <trkpt lat="50.63236" lon="3.51807">
        <ele>80.109093</ele>
        <time>2019-09-17T13:50:13.909Z</time>
      </trkpt>
      <trkpt lat="50.63217" lon="3.51766">
        <ele>81.195626</ele>
        <time>2019-09-17T13:50:25.501Z</time>
      </trkpt>
      <trkpt lat="50.63212" lon="3.51736">
        <ele>81.846392</ele>
        <time>2019-09-17T13:50:33.624Z</time>
      </trkpt>
      <trkpt lat="50.63209" lon="3.51712">
        <ele>82.368262</ele>
        <time>2019-09-17T13:50:39.398Z</time>
      </trkpt>
      <trkpt lat="50.63214" lon="3.51643">
        <ele>83.845442</ele>
        <time>2019-09-17T13:50:55.060Z</time>
      </trkpt>
      <trkpt lat="50.6322" lon="3.51606">
        <ele>84.665062</ele>
        <time>2019-09-17T13:51:03.701Z</time>
      </trkpt>
      <trkpt lat="50.63237" lon="3.51559">
        <ele>85.80413</ele>
        <time>2019-09-17T13:51:14.609Z</time>
      </trkpt>
      <trkpt lat="50.63264" lon="3.51514">
        <ele>86.192089</ele>
        <time>2019-09-17T13:51:25.705Z</time>
      </trkpt>
      <trkpt lat="50.63274" lon="3.51523">
        <ele>86.067801</ele>
        <time>2019-09-17T13:51:27.907Z</time>
      </trkpt>
      <trkpt lat="50.63317" lon="3.51535">
        <ele>85.604463</ele>
        <time>2019-09-17T13:51:36.946Z</time>
      </trkpt>
      <trkpt lat="50.63488" lon="3.51483">
        <ele>82.086363</ele>
        <time>2019-09-17T13:52:03.190Z</time>
      </trkpt>
      <trkpt lat="50.63509" lon="3.5148">
        <ele>81.397867</ele>
        <time>2019-09-17T13:52:06.048Z</time>
      </trkpt>
      <trkpt lat="50.63533" lon="3.51477">
        <ele>80.562803</ele>
        <time>2019-09-17T13:52:09.498Z</time>
      </trkpt>
      <trkpt lat="50.63586" lon="3.51442">
        <ele>78.619231</ele>
        <time>2019-09-17T13:52:17.624Z</time>
      </trkpt>
      <trkpt lat="50.63624" lon="3.51422">
        <ele>77.29598</ele>
        <time>2019-09-17T13:52:23.229Z</time>
      </trkpt>
      <trkpt lat="50.63638" lon="3.51466">
        <ele>76.263577</ele>
        <time>2019-09-17T13:52:26.310Z</time>
      </trkpt>
      <trkpt lat="50.63642" lon="3.51517">
        <ele>75.178743</ele>
        <time>2019-09-17T13:52:29.606Z</time>
      </trkpt>
      <trkpt lat="50.63644" lon="3.51539">
        <ele>74.717361</ele>
        <time>2019-09-17T13:52:31.009Z</time>
      </trkpt>
      <trkpt lat="50.6369" lon="3.51979">
        <ele>66.460797</ele>
        <time>2019-09-17T13:53:00.368Z</time>
      </trkpt>
      <trkpt lat="50.63745" lon="3.52198">
        <ele>62.678284</ele>
        <time>2019-09-17T13:53:16.354Z</time>
      </trkpt>
      <trkpt lat="50.6376" lon="3.52321">
        <ele>60.09799</ele>
        <time>2019-09-17T13:53:24.622Z</time>
      </trkpt>
      <trkpt lat="50.63759" lon="3.5246">
        <ele>57.216806</ele>
        <time>2019-09-17T13:53:33.416Z</time>
      </trkpt>
      <trkpt lat="50.63776" lon="3.52578">
        <ele>54.241023</ele>
        <time>2019-09-17T13:53:40.894Z</time>
      </trkpt>
      <trkpt lat="50.63799" lon="3.5271">
        <ele>50.781109</ele>
        <time>2019-09-17T13:53:49.386Z</time>
      </trkpt>
      <trkpt lat="50.63807" lon="3.52845">
        <ele>48.195118</ele>
        <time>2019-09-17T13:53:57.902Z</time>
      </trkpt>
      <trkpt lat="50.63812" lon="3.53167">
        <ele>44.366368</ele>
        <time>2019-09-17T13:54:20.284Z</time>
      </trkpt>
      <trkpt lat="50.63813" lon="3.53251">
        <ele>43.939603</ele>
        <time>2019-09-17T13:54:27.346Z</time>
      </trkpt>
      <trkpt lat="50.6381" lon="3.53265">
        <ele>43.866722</ele>
        <time>2019-09-17T13:54:28.919Z</time>
      </trkpt>
      <trkpt lat="50.63771" lon="3.53339">
        <ele>44.404362</ele>
        <time>2019-09-17T13:54:40.202Z</time>
      </trkpt>
      <trkpt lat="50.63723" lon="3.53429">
        <ele>46.464018</ele>
        <time>2019-09-17T13:54:58.987Z</time>
      </trkpt>
      <trkpt lat="50.63705" lon="3.53461">
        <ele>47.216449</ele>
        <time>2019-09-17T13:55:06.901Z</time>
      </trkpt>
      <trkpt lat="50.63703" lon="3.53497">
        <ele>47.853046</ele>
        <time>2019-09-17T13:55:14.525Z</time>
      </trkpt>
      <trkpt lat="50.637" lon="3.53627">
        <ele>50.514185</ele>
        <time>2019-09-17T13:55:40.409Z</time>
      </trkpt>
      <trkpt lat="50.63698" lon="3.53769">
        <ele>53.593439</ele>
        <time>2019-09-17T13:56:06.830Z</time>
      </trkpt>
      <trkpt lat="50.63693" lon="3.53782">
        <ele>53.919146</ele>
        <time>2019-09-17T13:56:09.106Z</time>
      </trkpt>
      <trkpt lat="50.6367" lon="3.53812">
        <ele>54.826831</ele>
        <time>2019-09-17T13:56:16.300Z</time>
      </trkpt>
      <trkpt lat="50.63641" lon="3.53862">
        <ele>55.327371</ele>
        <time>2019-09-17T13:56:26.055Z</time>
      </trkpt>
      <trkpt lat="50.636" lon="3.53954">
        <ele>56.164416</ele>
        <time>2019-09-17T13:56:39.540Z</time>
      </trkpt>
      <trkpt lat="50.63593" lon="3.53977">
        <ele>56.355166</ele>
        <time>2019-09-17T13:56:41.973Z</time>
      </trkpt>
      <trkpt lat="50.63574" lon="3.54023">
        <ele>56.757707</ele>
        <time>2019-09-17T13:56:47.612Z</time>
      </trkpt>
      <trkpt lat="50.63471" lon="3.5415">
        <ele>56.907878</ele>
        <time>2019-09-17T13:57:09.360Z</time>
      </trkpt>
      <trkpt lat="50.63458" lon="3.54169">
        <ele>56.914025</ele>
        <time>2019-09-17T13:57:11.904Z</time>
      </trkpt>
      <trkpt lat="50.63454" lon="3.54191">
        <ele>56.918947</ele>
        <time>2019-09-17T13:57:13.906Z</time>
      </trkpt>
      <trkpt lat="50.63463" lon="3.54227">
        <ele>56.927563</ele>
        <time>2019-09-17T13:57:17.113Z</time>
      </trkpt>
      <trkpt lat="50.63466" lon="3.5425">
        <ele>56.689033</ele>
        <time>2019-09-17T13:57:18.974Z</time>
      </trkpt>
      <trkpt lat="50.63463" lon="3.54271">
        <ele>56.433062</ele>
        <time>2019-09-17T13:57:20.714Z</time>
      </trkpt>
      <trkpt lat="50.63455" lon="3.54306">
        <ele>56.012946</ele>
        <time>2019-09-17T13:57:23.517Z</time>
      </trkpt>
      <trkpt lat="50.63547" lon="3.54632">
        <ele>51.659157</ele>
        <time>2019-09-17T13:57:47.861Z</time>
      </trkpt>
      <trkpt lat="50.63588" lon="3.5469">
        <ele>50.514514</ele>
        <time>2019-09-17T13:57:53.769Z</time>
      </trkpt>
      <trkpt lat="50.63759" lon="3.548">
        <ele>47.74327</ele>
        <time>2019-09-17T13:58:14.923Z</time>
      </trkpt>
      <trkpt lat="50.63835" lon="3.54698">
        <ele>47.374602</ele>
        <time>2019-09-17T13:58:28.159Z</time>
      </trkpt>
      <trkpt lat="50.63905" lon="3.54617">
        <ele>47.324645</ele>
        <time>2019-09-17T13:58:41.900Z</time>
      </trkpt>
      <trkpt lat="50.63967" lon="3.54545">
        <ele>47.63459</ele>
        <time>2019-09-17T13:58:55.785Z</time>
      </trkpt>
      <trkpt lat="50.63995" lon="3.54517">
        <ele>47.811381</ele>
        <time>2019-09-17T13:59:02.120Z</time>
      </trkpt>
      <trkpt lat="50.64133" lon="3.54416">
        <ele>47.691599</ele>
        <time>2019-09-17T13:59:26.381Z</time>
      </trkpt>
      <trkpt lat="50.64154" lon="3.54409">
        <ele>47.500689</ele>
        <time>2019-09-17T13:59:29.434Z</time>
      </trkpt>
      <trkpt lat="50.64165" lon="3.5442">
        <ele>47.387125</ele>
        <time>2019-09-17T13:59:30.917Z</time>
      </trkpt>
      <trkpt lat="50.64371" lon="3.54739">
        <ele>42.83618</ele>
        <time>2019-09-17T14:00:02.993Z</time>
      </trkpt>
      <trkpt lat="50.64457" lon="3.54873">
        <ele>41.021252</ele>
        <time>2019-09-17T14:00:16.634Z</time>
      </trkpt>
      <trkpt lat="50.64476" lon="3.54916">
        <ele>40.581875</ele>
        <time>2019-09-17T14:00:20.579Z</time>
      </trkpt>
      <trkpt lat="50.64558" lon="3.55286">
        <ele>41.272041</ele>
        <time>2019-09-17T14:00:58.922Z</time>
      </trkpt>
      <trkpt lat="50.64563" lon="3.55303">
        <ele>41.400034</ele>
        <time>2019-09-17T14:01:01.294Z</time>
      </trkpt>
      <trkpt lat="50.64569" lon="3.55322">
        <ele>41.547706</ele>
        <time>2019-09-17T14:01:04.032Z</time>
      </trkpt>
      <trkpt lat="50.64575" lon="3.55338">
        <ele>41.672035</ele>
        <time>2019-09-17T14:01:06.822Z</time>
      </trkpt>
      <trkpt lat="50.64638" lon="3.55486">
        <ele>43.023347</ele>
        <time>2019-09-17T14:01:31.668Z</time>
      </trkpt>
      <trkpt lat="50.64661" lon="3.55538">
        <ele>43.572809</ele>
        <time>2019-09-17T14:01:40.496Z</time>
      </trkpt>
      <trkpt lat="50.64685" lon="3.55573">
        <ele>44.012916</ele>
        <time>2019-09-17T14:01:46.796Z</time>
      </trkpt>
      <trkpt lat="50.64708" lon="3.55604">
        <ele>44.440153</ele>
        <time>2019-09-17T14:01:52.827Z</time>
      </trkpt>
      <trkpt lat="50.64721" lon="3.55621">
        <ele>44.660003</ele>
        <time>2019-09-17T14:01:55.900Z</time>
      </trkpt>
      <trkpt lat="50.64743" lon="3.55648">
        <ele>44.954511</ele>
        <time>2019-09-17T14:02:01.162Z</time>
      </trkpt>
      <trkpt lat="50.64715" lon="3.55707">
        <ele>45.191967</ele>
        <time>2019-09-17T14:02:11.992Z</time>
      </trkpt>
      <trkpt lat="50.64678" lon="3.55805">
        <ele>45.564457</ele>
        <time>2019-09-17T14:02:27.804Z</time>
      </trkpt>
      <trkpt lat="50.64638" lon="3.55884">
        <ele>45.807047</ele>
        <time>2019-09-17T14:02:41.577Z</time>
      </trkpt>
      <trkpt lat="50.64624" lon="3.55932">
        <ele>45.769483</ele>
        <time>2019-09-17T14:02:48.489Z</time>
      </trkpt>
      <trkpt lat="50.6461" lon="3.56112">
        <ele>45.640626</ele>
        <time>2019-09-17T14:03:10.999Z</time>
      </trkpt>
      <trkpt lat="50.64617" lon="3.56329">
        <ele>45.465217</ele>
        <time>2019-09-17T14:03:37.169Z</time>
      </trkpt>
      <trkpt lat="50.64591" lon="3.56466">
        <ele>45.947461</ele>
        <time>2019-09-17T14:03:56.248Z</time>
      </trkpt>
      <trkpt lat="50.64586" lon="3.5653">
        <ele>46.684191</ele>
        <time>2019-09-17T14:04:05.444Z</time>
      </trkpt>
      <trkpt lat="50.64583" lon="3.56542">
        <ele>46.833695</ele>
        <time>2019-09-17T14:04:07.470Z</time>
      </trkpt>
      <trkpt lat="50.64582" lon="3.56549">
        <ele>46.915039</ele>
        <time>2019-09-17T14:04:08.748Z</time>
      </trkpt>
      <trkpt lat="50.64564" lon="3.56585">
        <ele>47.448016</ele>
        <time>2019-09-17T14:04:15.339Z</time>
      </trkpt>
      <trkpt lat="50.64555" lon="3.56599">
        <ele>47.674419</ele>
        <time>2019-09-17T14:04:18.843Z</time>
      </trkpt>
      <trkpt lat="50.64512" lon="3.56661">
        <ele>48.821999</ele>
        <time>2019-09-17T14:04:34.047Z</time>
      </trkpt>
      <trkpt lat="50.64487" lon="3.56705">
        <ele>50.422906</ele>
        <time>2019-09-17T14:04:45.353Z</time>
      </trkpt>
      <trkpt lat="50.64484" lon="3.56713">
        <ele>50.652867</ele>
        <time>2019-09-17T14:04:47.338Z</time>
      </trkpt>
      <trkpt lat="50.64479" lon="3.5674">
        <ele>51.421226</ele>
        <time>2019-09-17T14:04:53.451Z</time>
      </trkpt>
      <trkpt lat="50.64463" lon="3.56796">
        <ele>53.055192</ele>
        <time>2019-09-17T14:05:05.888Z</time>
      </trkpt>
      <trkpt lat="50.64391" lon="3.56944">
        <ele>57.373099</ele>
        <time>2019-09-17T14:05:46.049Z</time>
      </trkpt>
      <trkpt lat="50.6435" lon="3.56998">
        <ele>58.795165</ele>
        <time>2019-09-17T14:06:00.370Z</time>
      </trkpt>
      <trkpt lat="50.64339" lon="3.57043">
        <ele>59.620443</ele>
        <time>2019-09-17T14:06:07.503Z</time>
      </trkpt>
      <trkpt lat="50.64333" lon="3.57073">
        <ele>60.136379</ele>
        <time>2019-09-17T14:06:12.146Z</time>
      </trkpt>
      <trkpt lat="50.64319" lon="3.57131">
        <ele>61.053981</ele>
        <time>2019-09-17T14:06:19.447Z</time>
      </trkpt>
      <trkpt lat="50.6432" lon="3.57144">
        <ele>61.075436</ele>
        <time>2019-09-17T14:06:20.563Z</time>
      </trkpt>
      <trkpt lat="50.64334" lon="3.57175">
        <ele>61.138091</ele>
        <time>2019-09-17T14:06:24.692Z</time>
      </trkpt>
      <trkpt lat="50.64345" lon="3.57199">
        <ele>61.186665</ele>
        <time>2019-09-17T14:06:27.006Z</time>
      </trkpt>
      <trkpt lat="50.64373" lon="3.57262">
        <ele>61.313073</ele>
        <time>2019-09-17T14:06:33.314Z</time>
      </trkpt>
      <trkpt lat="50.64398" lon="3.57289">
        <ele>61.39011</ele>
        <time>2019-09-17T14:06:37.713Z</time>
      </trkpt>
      <trkpt lat="50.64418" lon="3.57303">
        <ele>61.445753</ele>
        <time>2019-09-17T14:06:41.345Z</time>
      </trkpt>
      <trkpt lat="50.6446" lon="3.5733">
        <ele>62.373828</ele>
        <time>2019-09-17T14:06:49.153Z</time>
      </trkpt>
      <trkpt lat="50.64497" lon="3.57353">
        <ele>63.907446</ele>
        <time>2019-09-17T14:06:58.556Z</time>
      </trkpt>
      <trkpt lat="50.64503" lon="3.57356">
        <ele>64.134686</ele>
        <time>2019-09-17T14:06:59.566Z</time>
      </trkpt>
      <trkpt lat="50.64496" lon="3.57362">
        <ele>64.42881</ele>
        <time>2019-09-17T14:07:02.984Z</time>
      </trkpt>
      <trkpt lat="50.64449" lon="3.57393">
        <ele>66.379535</ele>
        <time>2019-09-17T14:07:18.621Z</time>
      </trkpt>
      <trkpt lat="50.64381" lon="3.5741">
        <ele>69.584526</ele>
        <time>2019-09-17T14:07:45.861Z</time>
      </trkpt>
      <trkpt lat="50.6434" lon="3.57437">
        <ele>72.767533</ele>
        <time>2019-09-17T14:08:05.998Z</time>
      </trkpt>
      <trkpt lat="50.64201" lon="3.57557">
        <ele>83.208571</ele>
        <time>2019-09-17T14:09:18.532Z</time>
      </trkpt>
      <trkpt lat="50.64076" lon="3.57743">
        <ele>89.171607</ele>
        <time>2019-09-17T14:10:11.587Z</time>
      </trkpt>
      <trkpt lat="50.64074" lon="3.57748">
        <ele>89.114352</ele>
        <time>2019-09-17T14:10:11.943Z</time>
      </trkpt>
      <trkpt lat="50.63953" lon="3.57873">
        <ele>87.036462</ele>
        <time>2019-09-17T14:10:27.083Z</time>
      </trkpt>
      <trkpt lat="50.63939" lon="3.57894">
        <ele>86.271318</ele>
        <time>2019-09-17T14:10:28.912Z</time>
      </trkpt>
      <trkpt lat="50.6392" lon="3.5792">
        <ele>85.299961</ele>
        <time>2019-09-17T14:10:31.293Z</time>
      </trkpt>
      <trkpt lat="50.63852" lon="3.58029">
        <ele>81.544945</ele>
        <time>2019-09-17T14:10:40.711Z</time>
      </trkpt>
      <trkpt lat="50.6384" lon="3.58043">
        <ele>80.94085</ele>
        <time>2019-09-17T14:10:42.180Z</time>
      </trkpt>
      <trkpt lat="50.63819" lon="3.58098">
        <ele>79.692416</ele>
        <time>2019-09-17T14:10:48.173Z</time>
      </trkpt>
      <trkpt lat="50.63793" lon="3.58133">
        <ele>78.983123</ele>
        <time>2019-09-17T14:10:53.498Z</time>
      </trkpt>
      <trkpt lat="50.63742" lon="3.5817">
        <ele>77.818243</ele>
        <time>2019-09-17T14:11:02.437Z</time>
      </trkpt>
      <trkpt lat="50.63732" lon="3.58181">
        <ele>77.565241</ele>
        <time>2019-09-17T14:11:03.702Z</time>
      </trkpt>
      <trkpt lat="50.63694" lon="3.58217">
        <ele>76.648547</ele>
        <time>2019-09-17T14:11:11.108Z</time>
      </trkpt>
      <trkpt lat="50.63658" lon="3.58269">
        <ele>75.816058</ele>
        <time>2019-09-17T14:11:19.289Z</time>
      </trkpt>
      <trkpt lat="50.636" lon="3.58335">
        <ele>74.718464</ele>
        <time>2019-09-17T14:11:31.137Z</time>
      </trkpt>
      <trkpt lat="50.6355" lon="3.58409">
        <ele>73.670708</ele>
        <time>2019-09-17T14:11:42.307Z</time>
      </trkpt>
      <trkpt lat="50.63523" lon="3.58456">
        <ele>72.974638</ele>
        <time>2019-09-17T14:11:48.906Z</time>
      </trkpt>
      <trkpt lat="50.63455" lon="3.58522">
        <ele>71.587935</ele>
        <time>2019-09-17T14:12:01.788Z</time>
      </trkpt>
      <trkpt lat="50.63426" lon="3.58564">
        <ele>70.89499</ele>
        <time>2019-09-17T14:12:08.172Z</time>
      </trkpt>
      <trkpt lat="50.63422" lon="3.58586">
        <ele>70.640113</ele>
        <time>2019-09-17T14:12:10.522Z</time>
      </trkpt>
      <trkpt lat="50.63423" lon="3.58634">
        <ele>69.94584</ele>
        <time>2019-09-17T14:12:15.377Z</time>
      </trkpt>
      <trkpt lat="50.63418" lon="3.5865">
        <ele>69.641579</ele>
        <time>2019-09-17T14:12:17.223Z</time>
      </trkpt>
      <trkpt lat="50.63073" lon="3.58804">
        <ele>59.79413</ele>
        <time>2019-09-17T14:13:10.529Z</time>
      </trkpt>
      <trkpt lat="50.62869" lon="3.58888">
        <ele>55.062665</ele>
        <time>2019-09-17T14:13:41.814Z</time>
      </trkpt>
      <trkpt lat="50.62846" lon="3.58887">
        <ele>54.900325</ele>
        <time>2019-09-17T14:13:45.943Z</time>
      </trkpt>
      <trkpt lat="50.62785" lon="3.58943">
        <ele>54.406116</ele>
        <time>2019-09-17T14:14:00.480Z</time>
      </trkpt>
      <trkpt lat="50.62703" lon="3.5898">
        <ele>55.336119</ele>
        <time>2019-09-17T14:14:23.572Z</time>
      </trkpt>
      <trkpt lat="50.62644" lon="3.58991">
        <ele>56.480837</ele>
        <time>2019-09-17T14:14:41.259Z</time>
      </trkpt>
      <trkpt lat="50.62561" lon="3.59041">
        <ele>57.95076</ele>
        <time>2019-09-17T14:15:06.623Z</time>
      </trkpt>
      <trkpt lat="50.62504" lon="3.5904">
        <ele>58.584803</ele>
        <time>2019-09-17T14:15:22.006Z</time>
      </trkpt>
      <trkpt lat="50.62335" lon="3.59026">
        <ele>59.616927</ele>
        <time>2019-09-17T14:15:59.095Z</time>
      </trkpt>
      <trkpt lat="50.6233" lon="3.59084">
        <ele>59.601678</ele>
        <time>2019-09-17T14:16:04.199Z</time>
      </trkpt>
      <trkpt lat="50.62327" lon="3.59101">
        <ele>59.597226</ele>
        <time>2019-09-17T14:16:05.665Z</time>
      </trkpt>
      <trkpt lat="50.62301" lon="3.59121">
        <ele>59.585214</ele>
        <time>2019-09-17T14:16:09.623Z</time>
      </trkpt>
      <trkpt lat="50.62289" lon="3.5914">
        <ele>59.578405</ele>
        <time>2019-09-17T14:16:11.826Z</time>
      </trkpt>
      <trkpt lat="50.6226" lon="3.59249">
        <ele>59.540015</ele>
        <time>2019-09-17T14:16:22.082Z</time>
      </trkpt>
      <trkpt lat="50.62213" lon="3.59335">
        <ele>59.502096</ele>
        <time>2019-09-17T14:16:32.622Z</time>
      </trkpt>
      <trkpt lat="50.62212" lon="3.59339">
        <ele>59.500462</ele>
        <time>2019-09-17T14:16:33.269Z</time>
      </trkpt>
      <trkpt lat="50.62153" lon="3.59543">
        <ele>59.620115</ele>
        <time>2019-09-17T14:16:55.847Z</time>
      </trkpt>
      <trkpt lat="50.6208" lon="3.59712">
        <ele>59.536228</ele>
        <time>2019-09-17T14:17:15.470Z</time>
      </trkpt>
      <trkpt lat="50.62049" lon="3.5983">
        <ele>59.203157</ele>
        <time>2019-09-17T14:17:26.326Z</time>
      </trkpt>
      <trkpt lat="50.62037" lon="3.59863">
        <ele>59.104879</ele>
        <time>2019-09-17T14:17:29.447Z</time>
      </trkpt>
      <trkpt lat="50.62017" lon="3.59897">
        <ele>58.947013</ele>
        <time>2019-09-17T14:17:33.198Z</time>
      </trkpt>
      <trkpt lat="50.61994" lon="3.59925">
        <ele>58.558132</ele>
        <time>2019-09-17T14:17:36.717Z</time>
      </trkpt>
      <trkpt lat="50.61968" lon="3.60101">
        <ele>57.009694</ele>
        <time>2019-09-17T14:17:50.199Z</time>
      </trkpt>
      <trkpt lat="50.61964" lon="3.60249">
        <ele>55.344374</ele>
        <time>2019-09-17T14:18:00.546Z</time>
      </trkpt>
      <trkpt lat="50.61961" lon="3.6039">
        <ele>53.550339</ele>
        <time>2019-09-17T14:18:10.219Z</time>
      </trkpt>
      <trkpt lat="50.61942" lon="3.60418">
        <ele>53.023196</ele>
        <time>2019-09-17T14:18:14.438Z</time>
      </trkpt>
      <trkpt lat="50.61919" lon="3.60441">
        <ele>52.706129</ele>
        <time>2019-09-17T14:18:18.785Z</time>
      </trkpt>
      <trkpt lat="50.61874" lon="3.60443">
        <ele>52.216908</ele>
        <time>2019-09-17T14:18:26.255Z</time>
      </trkpt>
      <trkpt lat="50.6187" lon="3.60446">
        <ele>52.164365</ele>
        <time>2019-09-17T14:18:26.962Z</time>
      </trkpt>
      <trkpt lat="50.61867" lon="3.60453">
        <ele>52.110884</ele>
        <time>2019-09-17T14:18:27.785Z</time>
      </trkpt>
      <trkpt lat="50.61866" lon="3.60458">
        <ele>52.070221</ele>
        <time>2019-09-17T14:18:28.417Z</time>
      </trkpt>
      <trkpt lat="50.61866" lon="3.60467">
        <ele>52.008154</ele>
        <time>2019-09-17T14:18:29.404Z</time>
      </trkpt>
      <trkpt lat="50.61811" lon="3.60483">
        <ele>51.410758</ele>
        <time>2019-09-17T14:18:39.087Z</time>
      </trkpt>
      <trkpt lat="50.61807" lon="3.605">
        <ele>51.282554</ele>
        <time>2019-09-17T14:18:41.166Z</time>
      </trkpt>
      <trkpt lat="50.61801" lon="3.60514">
        <ele>51.169272</ele>
        <time>2019-09-17T14:18:43.209Z</time>
      </trkpt>
      <trkpt lat="50.61795" lon="3.60531">
        <ele>51.032641</ele>
        <time>2019-09-17T14:18:45.872Z</time>
      </trkpt>
      <trkpt lat="50.61783" lon="3.60531">
        <ele>51.079437</ele>
        <time>2019-09-17T14:18:47.266Z</time>
      </trkpt>
      <trkpt lat="50.6165" lon="3.60615">
        <ele>52.007231</ele>
        <time>2019-09-17T14:19:12.096Z</time>
      </trkpt>
      <trkpt lat="50.61637" lon="3.60602">
        <ele>52.11069</ele>
        <time>2019-09-17T14:19:15.316Z</time>
      </trkpt>
      <trkpt lat="50.6162" lon="3.60557">
        <ele>52.58716</ele>
        <time>2019-09-17T14:19:22.326Z</time>
      </trkpt>
      <trkpt lat="50.6154" lon="3.60343">
        <ele>55.450591</ele>
        <time>2019-09-17T14:19:58.488Z</time>
      </trkpt>
      <trkpt lat="50.61493" lon="3.6021">
        <ele>56.853908</ele>
        <time>2019-09-17T14:20:19.648Z</time>
      </trkpt>
      <trkpt lat="50.61402" lon="3.59956">
        <ele>59.127659</ele>
        <time>2019-09-17T14:20:54.431Z</time>
      </trkpt>
      <trkpt lat="50.61313" lon="3.59639">
        <ele>61.768593</ele>
        <time>2019-09-17T14:21:36.949Z</time>
      </trkpt>
      <trkpt lat="50.61292" lon="3.59536">
        <ele>62.915718</ele>
        <time>2019-09-17T14:21:51.971Z</time>
      </trkpt>
      <trkpt lat="50.61283" lon="3.59436">
        <ele>64.283558</ele>
        <time>2019-09-17T14:22:06.857Z</time>
      </trkpt>
      <trkpt lat="50.61283" lon="3.59102">
        <ele>68.744636</ele>
        <time>2019-09-17T14:22:58.617Z</time>
      </trkpt>
      <trkpt lat="50.61279" lon="3.59037">
        <ele>69.613582</ele>
        <time>2019-09-17T14:23:08.051Z</time>
      </trkpt>
      <trkpt lat="50.61234" lon="3.58851">
        <ele>70.532323</ele>
        <time>2019-09-17T14:23:31.896Z</time>
      </trkpt>
      <trkpt lat="50.61224" lon="3.58761">
        <ele>70.87932</ele>
        <time>2019-09-17T14:23:40.355Z</time>
      </trkpt>
      <trkpt lat="50.61244" lon="3.58513">
        <ele>69.420992</ele>
        <time>2019-09-17T14:23:59.749Z</time>
      </trkpt>
      <trkpt lat="50.61259" lon="3.58355">
        <ele>68.593503</ele>
        <time>2019-09-17T14:24:11.623Z</time>
      </trkpt>
      <trkpt lat="50.61264" lon="3.58301">
        <ele>68.338603</ele>
        <time>2019-09-17T14:24:16.032Z</time>
      </trkpt>
      <trkpt lat="50.61247" lon="3.583">
        <ele>68.211966</ele>
        <time>2019-09-17T14:24:18.844Z</time>
      </trkpt>
      <trkpt lat="50.6123" lon="3.58307">
        <ele>68.081807</ele>
        <time>2019-09-17T14:24:22.775Z</time>
      </trkpt>
      <trkpt lat="50.61247" lon="3.583">
        <ele>67.951648</ele>
        <time>2019-09-17T14:24:25.798Z</time>
      </trkpt>
      <trkpt lat="50.61264" lon="3.58301">
        <ele>67.82501</ele>
        <time>2019-09-17T14:24:29.860Z</time>
      </trkpt>
      <trkpt lat="50.61277" lon="3.58199">
        <ele>68.471629</ele>
        <time>2019-09-17T14:24:40.390Z</time>
      </trkpt>
      <trkpt lat="50.61355" lon="3.5793">
        <ele>70.590293</ele>
        <time>2019-09-17T14:25:20.018Z</time>
      </trkpt>
      <trkpt lat="50.61386" lon="3.57799">
        <ele>71.704601</ele>
        <time>2019-09-17T14:25:38.072Z</time>
      </trkpt>
      <trkpt lat="50.61393" lon="3.57755">
        <ele>71.911705</ele>
        <time>2019-09-17T14:25:43.110Z</time>
      </trkpt>
      <trkpt lat="50.61385" lon="3.57659">
        <ele>71.595305</ele>
        <time>2019-09-17T14:25:52.771Z</time>
      </trkpt>
      <trkpt lat="50.61376" lon="3.57629">
        <ele>71.48828</ele>
        <time>2019-09-17T14:25:55.878Z</time>
      </trkpt>
      <trkpt lat="50.61335" lon="3.57651">
        <ele>71.265007</ele>
        <time>2019-09-17T14:26:01.319Z</time>
      </trkpt>
      <trkpt lat="50.61241" lon="3.57712">
        <ele>69.206319</ele>
        <time>2019-09-17T14:26:12.560Z</time>
      </trkpt>
      <trkpt lat="50.61225" lon="3.57715">
        <ele>68.681826</ele>
        <time>2019-09-17T14:26:14.183Z</time>
      </trkpt>
      <trkpt lat="50.61111" lon="3.57701">
        <ele>64.832342</ele>
        <time>2019-09-17T14:26:25.453Z</time>
      </trkpt>
      <trkpt lat="50.61079" lon="3.57704">
        <ele>63.345479</ele>
        <time>2019-09-17T14:26:28.516Z</time>
      </trkpt>
      <trkpt lat="50.61048" lon="3.57727">
        <ele>61.736896</ele>
        <time>2019-09-17T14:26:31.803Z</time>
      </trkpt>
      <trkpt lat="50.60969" lon="3.57755">
        <ele>58.003544</ele>
        <time>2019-09-17T14:26:39.419Z</time>
      </trkpt>
      <trkpt lat="50.60869" lon="3.57808">
        <ele>54.578033</ele>
        <time>2019-09-17T14:26:49.610Z</time>
      </trkpt>
      <trkpt lat="50.60832" lon="3.57806">
        <ele>53.535452</ele>
        <time>2019-09-17T14:26:53.480Z</time>
      </trkpt>
      <trkpt lat="50.60786" lon="3.57791">
        <ele>52.206741</ele>
        <time>2019-09-17T14:26:58.759Z</time>
      </trkpt>
      <trkpt lat="50.60754" lon="3.578">
        <ele>51.821945</ele>
        <time>2019-09-17T14:27:02.732Z</time>
      </trkpt>
      <trkpt lat="50.60732" lon="3.57803">
        <ele>51.93328</ele>
        <time>2019-09-17T14:27:06.048Z</time>
      </trkpt>
      <trkpt lat="50.60687" lon="3.57804">
        <ele>52.161292</ele>
        <time>2019-09-17T14:27:13.424Z</time>
      </trkpt>
      <trkpt lat="50.60669" lon="3.57792">
        <ele>52.259277</ele>
        <time>2019-09-17T14:27:17.069Z</time>
      </trkpt>
      <trkpt lat="50.60627" lon="3.57744">
        <ele>52.516312</ele>
        <time>2019-09-17T14:27:26.917Z</time>
      </trkpt>
      <trkpt lat="50.60603" lon="3.57719">
        <ele>52.707603</ele>
        <time>2019-09-17T14:27:33.187Z</time>
      </trkpt>
      <trkpt lat="50.60607" lon="3.57697">
        <ele>52.936274</ele>
        <time>2019-09-17T14:27:36.132Z</time>
      </trkpt>
      <trkpt lat="50.60635" lon="3.57611">
        <ele>53.924786</ele>
        <time>2019-09-17T14:27:49.023Z</time>
      </trkpt>
      <trkpt lat="50.60705" lon="3.57461">
        <ele>55.911055</ele>
        <time>2019-09-17T14:28:14.692Z</time>
      </trkpt>
      <trkpt lat="50.60687" lon="3.57453">
        <ele>56.288496</ele>
        <time>2019-09-17T14:28:19.119Z</time>
      </trkpt>
      <trkpt lat="50.60601" lon="3.57424">
        <ele>58.035342</ele>
        <time>2019-09-17T14:28:39.370Z</time>
      </trkpt>
      <trkpt lat="50.60529" lon="3.57392">
        <ele>59.392857</ele>
        <time>2019-09-17T14:28:56.803Z</time>
      </trkpt>
      <trkpt lat="50.60522" lon="3.57367">
        <ele>59.627627</ele>
        <time>2019-09-17T14:29:01.698Z</time>
      </trkpt>
      <trkpt lat="50.6046" lon="3.57152">
        <ele>61.626035</ele>
        <time>2019-09-17T14:29:39.813Z</time>
      </trkpt>
      <trkpt lat="50.60386" lon="3.56988">
        <ele>62.1232</ele>
        <time>2019-09-17T14:30:06.410Z</time>
      </trkpt>
      <trkpt lat="50.60383" lon="3.56979">
        <ele>62.149357</ele>
        <time>2019-09-17T14:30:07.650Z</time>
      </trkpt>
      <trkpt lat="50.60375" lon="3.5696">
        <ele>62.203224</ele>
        <time>2019-09-17T14:30:10.797Z</time>
      </trkpt>
      <trkpt lat="50.60337" lon="3.56838">
        <ele>63.010822</ele>
        <time>2019-09-17T14:30:30.073Z</time>
      </trkpt>
      <trkpt lat="50.60336" lon="3.56833">
        <ele>63.055012</ele>
        <time>2019-09-17T14:30:30.755Z</time>
      </trkpt>
      <trkpt lat="50.60331" lon="3.56819">
        <ele>63.166072</ele>
        <time>2019-09-17T14:30:33.221Z</time>
      </trkpt>
      <trkpt lat="50.60288" lon="3.56714">
        <ele>64.079975</ele>
        <time>2019-09-17T14:30:53.858Z</time>
      </trkpt>
      <trkpt lat="50.60249" lon="3.56583">
        <ele>65.888394</ele>
        <time>2019-09-17T14:31:19.417Z</time>
      </trkpt>
      <trkpt lat="50.60244" lon="3.56574">
        <ele>66.075566</ele>
        <time>2019-09-17T14:31:22.184Z</time>
      </trkpt>
      <trkpt lat="50.60166" lon="3.56453">
        <ele>68.601744</ele>
        <time>2019-09-17T14:31:54.871Z</time>
      </trkpt>
      <trkpt lat="50.60041" lon="3.56226">
        <ele>74.032296</ele>
        <time>2019-09-17T14:32:55.591Z</time>
      </trkpt>
      <trkpt lat="50.59985" lon="3.56136">
        <ele>76.189221</ele>
        <time>2019-09-17T14:33:22.088Z</time>
      </trkpt>
      <trkpt lat="50.59946" lon="3.56088">
        <ele>77.537333</ele>
        <time>2019-09-17T14:33:37.235Z</time>
      </trkpt>
      <trkpt lat="50.59938" lon="3.56078">
        <ele>77.812677</ele>
        <time>2019-09-17T14:33:41.005Z</time>
      </trkpt>
      <trkpt lat="50.59928" lon="3.5609">
        <ele>78.152915</ele>
        <time>2019-09-17T14:33:44.343Z</time>
      </trkpt>
      <trkpt lat="50.59858" lon="3.56167">
        <ele>78.918401</ele>
        <time>2019-09-17T14:34:07.044Z</time>
      </trkpt>
      <trkpt lat="50.59833" lon="3.56204">
        <ele>79.117412</ele>
        <time>2019-09-17T14:34:15.080Z</time>
      </trkpt>
      <trkpt lat="50.59763" lon="3.56344">
        <ele>78.758165</ele>
        <time>2019-09-17T14:34:35.726Z</time>
      </trkpt>
      <trkpt lat="50.59757" lon="3.56367">
        <ele>78.447096</ele>
        <time>2019-09-17T14:34:38.317Z</time>
      </trkpt>
      <trkpt lat="50.59764" lon="3.56521">
        <ele>76.554221</ele>
        <time>2019-09-17T14:34:53.506Z</time>
      </trkpt>
      <trkpt lat="50.59767" lon="3.56589">
        <ele>75.506315</ele>
        <time>2019-09-17T14:34:59.946Z</time>
      </trkpt>
      <trkpt lat="50.59763" lon="3.567">
        <ele>73.29071</ele>
        <time>2019-09-17T14:35:10.264Z</time>
      </trkpt>
      <trkpt lat="50.59754" lon="3.56762">
        <ele>72.016734</ele>
        <time>2019-09-17T14:35:16.149Z</time>
      </trkpt>
      <trkpt lat="50.59729" lon="3.56858">
        <ele>70.026715</ele>
        <time>2019-09-17T14:35:25.699Z</time>
      </trkpt>
      <trkpt lat="50.59718" lon="3.56958">
        <ele>68.30327</ele>
        <time>2019-09-17T14:35:35.222Z</time>
      </trkpt>
      <trkpt lat="50.59685" lon="3.57127">
        <ele>65.358314</ele>
        <time>2019-09-17T14:35:52.386Z</time>
      </trkpt>
      <trkpt lat="50.59674" lon="3.57219">
        <ele>64.131195</ele>
        <time>2019-09-17T14:36:01.905Z</time>
      </trkpt>
      <trkpt lat="50.59651" lon="3.5733">
        <ele>62.608187</ele>
        <time>2019-09-17T14:36:13.687Z</time>
      </trkpt>
      <trkpt lat="50.59651" lon="3.57367">
        <ele>62.131484</ele>
        <time>2019-09-17T14:36:17.333Z</time>
      </trkpt>
      <trkpt lat="50.59676" lon="3.57467">
        <ele>60.493937</ele>
        <time>2019-09-17T14:36:28.048Z</time>
      </trkpt>
      <trkpt lat="50.59676" lon="3.57483">
        <ele>60.242119</ele>
        <time>2019-09-17T14:36:29.617Z</time>
      </trkpt>
      <trkpt lat="50.59648" lon="3.57499">
        <ele>59.500197</ele>
        <time>2019-09-17T14:36:32.838Z</time>
      </trkpt>
      <trkpt lat="50.59561" lon="3.57581">
        <ele>56.944038</ele>
        <time>2019-09-17T14:36:43.453Z</time>
      </trkpt>
      <trkpt lat="50.59508" lon="3.57612">
        <ele>55.406017</ele>
        <time>2019-09-17T14:36:49.134Z</time>
      </trkpt>
      <trkpt lat="50.59448" lon="3.57631">
        <ele>53.723209</ele>
        <time>2019-09-17T14:36:55.630Z</time>
      </trkpt>
      <trkpt lat="50.59439" lon="3.57632">
        <ele>53.489964</ele>
        <time>2019-09-17T14:36:56.474Z</time>
      </trkpt>
      <trkpt lat="50.59434" lon="3.57628">
        <ele>53.327488</ele>
        <time>2019-09-17T14:36:57.085Z</time>
      </trkpt>
      <trkpt lat="50.59367" lon="3.57524">
        <ele>51.341526</ele>
        <time>2019-09-17T14:37:07.221Z</time>
      </trkpt>
      <trkpt lat="50.59295" lon="3.57512">
        <ele>50.010363</ele>
        <time>2019-09-17T14:37:15.363Z</time>
      </trkpt>
      <trkpt lat="50.59284" lon="3.5751">
        <ele>49.811585</ele>
        <time>2019-09-17T14:37:16.524Z</time>
      </trkpt>
      <trkpt lat="50.59299" lon="3.57623">
        <ele>49.040955</ele>
        <time>2019-09-17T14:37:25.378Z</time>
      </trkpt>
      <trkpt lat="50.59212" lon="3.57683">
        <ele>48.588677</ele>
        <time>2019-09-17T14:37:43.080Z</time>
      </trkpt>
      <trkpt lat="50.59184" lon="3.57701">
        <ele>48.44357</ele>
        <time>2019-09-17T14:37:49.571Z</time>
      </trkpt>
      <trkpt lat="50.59177" lon="3.57705">
        <ele>48.406019</ele>
        <time>2019-09-17T14:37:51.288Z</time>
      </trkpt>
      <trkpt lat="50.59156" lon="3.57716">
        <ele>48.483039</ele>
        <time>2019-09-17T14:37:55.880Z</time>
      </trkpt>
      <trkpt lat="50.59114" lon="3.57724">
        <ele>48.738416</ele>
        <time>2019-09-17T14:38:04.857Z</time>
      </trkpt>
      <trkpt lat="50.59055" lon="3.57737">
        <ele>49.092476</ele>
        <time>2019-09-17T14:38:17.991Z</time>
      </trkpt>
      <trkpt lat="50.59041" lon="3.57748">
        <ele>49.188252</ele>
        <time>2019-09-17T14:38:21.813Z</time>
      </trkpt>
      <trkpt lat="50.58877" lon="3.57881">
        <ele>51.168281</ele>
        <time>2019-09-17T14:39:07.983Z</time>
      </trkpt>
      <trkpt lat="50.58871" lon="3.57886">
        <ele>51.254209</ele>
        <time>2019-09-17T14:39:10.153Z</time>
      </trkpt>
      <trkpt lat="50.58813" lon="3.5791">
        <ele>51.909941</ele>
        <time>2019-09-17T14:39:24.794Z</time>
      </trkpt>
      <trkpt lat="50.58759" lon="3.5792">
        <ele>52.400315</ele>
        <time>2019-09-17T14:39:38.565Z</time>
      </trkpt>
      <trkpt lat="50.58728" lon="3.57922">
        <ele>52.681362</ele>
        <time>2019-09-17T14:39:46.367Z</time>
      </trkpt>
      <trkpt lat="50.58574" lon="3.57915">
        <ele>53.414668</ele>
        <time>2019-09-17T14:40:20.106Z</time>
      </trkpt>
      <trkpt lat="50.58533" lon="3.57924">
        <ele>53.467906</ele>
        <time>2019-09-17T14:40:28.312Z</time>
      </trkpt>
      <trkpt lat="50.58519" lon="3.57935">
        <ele>53.487713</ele>
        <time>2019-09-17T14:40:31.470Z</time>
      </trkpt>
      <trkpt lat="50.58512" lon="3.57942">
        <ele>53.498248</ele>
        <time>2019-09-17T14:40:33.271Z</time>
      </trkpt>
      <trkpt lat="50.58505" lon="3.57949">
        <ele>53.508741</ele>
        <time>2019-09-17T14:40:34.754Z</time>
      </trkpt>
      <trkpt lat="50.58491" lon="3.5797">
        <ele>53.532612</ele>
        <time>2019-09-17T14:40:38.574Z</time>
      </trkpt>
      <trkpt lat="50.58476" lon="3.5801">
        <ele>53.41671</ele>
        <time>2019-09-17T14:40:44.466Z</time>
      </trkpt>
      <trkpt lat="50.58452" lon="3.58064">
        <ele>53.244962</ele>
        <time>2019-09-17T14:40:52.208Z</time>
      </trkpt>
      <trkpt lat="50.58402" lon="3.58003">
        <ele>52.979588</ele>
        <time>2019-09-17T14:41:03.689Z</time>
      </trkpt>
      <trkpt lat="50.58348" lon="3.57973">
        <ele>52.800082</ele>
        <time>2019-09-17T14:41:14.334Z</time>
      </trkpt>
      <trkpt lat="50.58345" lon="3.57989">
        <ele>52.815585</ele>
        <time>2019-09-17T14:41:16.343Z</time>
      </trkpt>
      <trkpt lat="50.58345" lon="3.5799">
        <ele>52.816782</ele>
        <time>2019-09-17T14:41:16.471Z</time>
      </trkpt>
      <trkpt lat="50.58332" lon="3.58063">
        <ele>52.890044</ele>
        <time>2019-09-17T14:41:26.260Z</time>
      </trkpt>
      <trkpt lat="50.58314" lon="3.58076">
        <ele>52.920279</ele>
        <time>2019-09-17T14:41:30.533Z</time>
      </trkpt>
      <trkpt lat="50.58283" lon="3.58096">
        <ele>52.970874</ele>
        <time>2019-09-17T14:41:37.433Z</time>
      </trkpt>
      <trkpt lat="50.58257" lon="3.58084">
        <ele>53.012266</ele>
        <time>2019-09-17T14:41:43.195Z</time>
      </trkpt>
      <trkpt lat="50.58232" lon="3.58054">
        <ele>53.071563</ele>
        <time>2019-09-17T14:41:50.068Z</time>
      </trkpt>
      <trkpt lat="50.58198" lon="3.5801">
        <ele>53.582985</ele>
        <time>2019-09-17T14:42:00.591Z</time>
      </trkpt>
      <trkpt lat="50.5809" lon="3.57877">
        <ele>55.181893</ele>
        <time>2019-09-17T14:42:35.754Z</time>
      </trkpt>
      <trkpt lat="50.58072" lon="3.57854">
        <ele>55.466479</ele>
        <time>2019-09-17T14:42:41.887Z</time>
      </trkpt>
      <trkpt lat="50.58031" lon="3.57803">
        <ele>56.115151</ele>
        <time>2019-09-17T14:42:55.000Z</time>
      </trkpt>
      <trkpt lat="50.58018" lon="3.57788">
        <ele>56.310529</ele>
        <time>2019-09-17T14:42:59.255Z</time>
      </trkpt>
      <trkpt lat="50.57955" lon="3.57699">
        <ele>57.356196</ele>
        <time>2019-09-17T14:43:20.186Z</time>
      </trkpt>
      <trkpt lat="50.57779" lon="3.57415">
        <ele>59.739139</ele>
        <time>2019-09-17T14:44:21.345Z</time>
      </trkpt>
      <trkpt lat="50.57735" lon="3.57343">
        <ele>60.223695</ele>
        <time>2019-09-17T14:44:36.047Z</time>
      </trkpt>
      <trkpt lat="50.57711" lon="3.57305">
        <ele>60.491713</ele>
        <time>2019-09-17T14:44:43.881Z</time>
      </trkpt>
      <trkpt lat="50.57699" lon="3.57293">
        <ele>60.585892</ele>
        <time>2019-09-17T14:44:46.773Z</time>
      </trkpt>
      <trkpt lat="50.57685" lon="3.57295">
        <ele>60.630949</ele>
        <time>2019-09-17T14:44:49.963Z</time>
      </trkpt>
      <trkpt lat="50.57677" lon="3.57303">
        <ele>60.66011</ele>
        <time>2019-09-17T14:44:52.076Z</time>
      </trkpt>
      <trkpt lat="50.57672" lon="3.57318">
        <ele>60.694234</ele>
        <time>2019-09-17T14:44:54.198Z</time>
      </trkpt>
      <trkpt lat="50.57663" lon="3.57376">
        <ele>60.817899</ele>
        <time>2019-09-17T14:45:02.536Z</time>
      </trkpt>
      <trkpt lat="50.57651" lon="3.57396">
        <ele>60.872824</ele>
        <time>2019-09-17T14:45:06.289Z</time>
      </trkpt>
      <trkpt lat="50.5753" lon="3.57323">
        <ele>61.480457</ele>
        <time>2019-09-17T14:45:33.606Z</time>
      </trkpt>
      <trkpt lat="50.57514" lon="3.57325">
        <ele>61.612419</ele>
        <time>2019-09-17T14:45:37.499Z</time>
      </trkpt>
      <trkpt lat="50.57474" lon="3.57344">
        <ele>61.943359</ele>
        <time>2019-09-17T14:45:47.221Z</time>
      </trkpt>
      <trkpt lat="50.57426" lon="3.57372">
        <ele>62.342618</ele>
        <time>2019-09-17T14:45:59.530Z</time>
      </trkpt>
      <trkpt lat="50.57397" lon="3.57303">
        <ele>62.871131</ele>
        <time>2019-09-17T14:46:09.786Z</time>
      </trkpt>
      <trkpt lat="50.57358" lon="3.57216">
        <ele>63.757584</ele>
        <time>2019-09-17T14:46:23.596Z</time>
      </trkpt>
      <trkpt lat="50.57353" lon="3.57203">
        <ele>63.876304</ele>
        <time>2019-09-17T14:46:25.591Z</time>
      </trkpt>
      <trkpt lat="50.57352" lon="3.57194">
        <ele>63.955902</ele>
        <time>2019-09-17T14:46:26.928Z</time>
      </trkpt>
      <trkpt lat="50.57365" lon="3.57123">
        <ele>64.560041</ele>
        <time>2019-09-17T14:46:36.321Z</time>
      </trkpt>
      <trkpt lat="50.57361" lon="3.57103">
        <ele>64.729531</ele>
        <time>2019-09-17T14:46:38.918Z</time>
      </trkpt>
      <trkpt lat="50.57274" lon="3.56941">
        <ele>66.138294</ele>
        <time>2019-09-17T14:47:05.277Z</time>
      </trkpt>
      <trkpt lat="50.57194" lon="3.56777">
        <ele>66.666957</ele>
        <time>2019-09-17T14:47:28.422Z</time>
      </trkpt>
      <trkpt lat="50.57163" lon="3.5671">
        <ele>66.628218</ele>
        <time>2019-09-17T14:47:35.863Z</time>
      </trkpt>
      <trkpt lat="50.57116" lon="3.56609">
        <ele>66.15336</ele>
        <time>2019-09-17T14:47:45.916Z</time>
      </trkpt>
      <trkpt lat="50.57081" lon="3.56548">
        <ele>65.271835</ele>
        <time>2019-09-17T14:47:51.875Z</time>
      </trkpt>
      <trkpt lat="50.57052" lon="3.56466">
        <ele>64.261769</ele>
        <time>2019-09-17T14:47:58.464Z</time>
      </trkpt>
      <trkpt lat="50.57042" lon="3.56362">
        <ele>63.036767</ele>
        <time>2019-09-17T14:48:05.704Z</time>
      </trkpt>
      <trkpt lat="50.5703" lon="3.56333">
        <ele>62.586427</ele>
        <time>2019-09-17T14:48:08.061Z</time>
      </trkpt>
      <trkpt lat="50.5692" lon="3.56103">
        <ele>59.140117</ele>
        <time>2019-09-17T14:48:28.116Z</time>
      </trkpt>
      <trkpt lat="50.5687" lon="3.56039">
        <ele>58.232643</ele>
        <time>2019-09-17T14:48:35.666Z</time>
      </trkpt>
      <trkpt lat="50.56844" lon="3.56019">
        <ele>57.818783</ele>
        <time>2019-09-17T14:48:39.176Z</time>
      </trkpt>
      <trkpt lat="50.56752" lon="3.5596">
        <ele>56.768861</ele>
        <time>2019-09-17T14:48:51.593Z</time>
      </trkpt>
      <trkpt lat="50.56724" lon="3.55934">
        <ele>56.495992</ele>
        <time>2019-09-17T14:48:55.576Z</time>
      </trkpt>
      <trkpt lat="50.56675" lon="3.55895">
        <ele>56.031652</ele>
        <time>2019-09-17T14:49:02.629Z</time>
      </trkpt>
      <trkpt lat="50.56653" lon="3.55885">
        <ele>55.839944</ele>
        <time>2019-09-17T14:49:05.530Z</time>
      </trkpt>
      <trkpt lat="50.56603" lon="3.55849">
        <ele>55.229563</ele>
        <time>2019-09-17T14:49:12.279Z</time>
      </trkpt>
      <trkpt lat="50.56564" lon="3.55809">
        <ele>54.698246</ele>
        <time>2019-09-17T14:49:17.822Z</time>
      </trkpt>
      <trkpt lat="50.56547" lon="3.55782">
        <ele>54.422768</ele>
        <time>2019-09-17T14:49:20.640Z</time>
      </trkpt>
      <trkpt lat="50.56456" lon="3.5558">
        <ele>52.547957</ele>
        <time>2019-09-17T14:49:39.396Z</time>
      </trkpt>
      <trkpt lat="50.56383" lon="3.5546">
        <ele>51.25145</ele>
        <time>2019-09-17T14:49:52.011Z</time>
      </trkpt>
      <trkpt lat="50.56313" lon="3.5538">
        <ele>50.13815</ele>
        <time>2019-09-17T14:50:02.276Z</time>
      </trkpt>
      <trkpt lat="50.56242" lon="3.55321">
        <ele>49.099651</ele>
        <time>2019-09-17T14:50:11.637Z</time>
      </trkpt>
      <trkpt lat="50.56196" lon="3.55248">
        <ele>48.235183</ele>
        <time>2019-09-17T14:50:19.256Z</time>
      </trkpt>
      <trkpt lat="50.56182" lon="3.55226">
        <ele>47.97479</ele>
        <time>2019-09-17T14:50:21.519Z</time>
      </trkpt>
      <trkpt lat="50.56166" lon="3.55201">
        <ele>47.675102</ele>
        <time>2019-09-17T14:50:24.210Z</time>
      </trkpt>
      <trkpt lat="50.56152" lon="3.55189">
        <ele>47.465556</ele>
        <time>2019-09-17T14:50:26.058Z</time>
      </trkpt>
      <trkpt lat="50.56116" lon="3.55181">
        <ele>46.987495</ele>
        <time>2019-09-17T14:50:30.323Z</time>
      </trkpt>
      <trkpt lat="50.55878" lon="3.55061">
        <ele>44.437866</ele>
        <time>2019-09-17T14:51:00.786Z</time>
      </trkpt>
      <trkpt lat="50.55832" lon="3.55038">
        <ele>44.045526</ele>
        <time>2019-09-17T14:51:06.804Z</time>
      </trkpt>
      <trkpt lat="50.55854" lon="3.54922">
        <ele>43.433751</ele>
        <time>2019-09-17T14:51:16.732Z</time>
      </trkpt>
      <trkpt lat="50.55828" lon="3.54903">
        <ele>43.310241</ele>
        <time>2019-09-17T14:51:21.928Z</time>
      </trkpt>
      <trkpt lat="50.55713" lon="3.54836">
        <ele>42.773411</ele>
        <time>2019-09-17T14:51:45.412Z</time>
      </trkpt>
      <trkpt lat="50.55629" lon="3.54826">
        <ele>42.432588</ele>
        <time>2019-09-17T14:52:01.233Z</time>
      </trkpt>
      <trkpt lat="50.55581" lon="3.54823">
        <ele>42.245495</ele>
        <time>2019-09-17T14:52:10.112Z</time>
      </trkpt>
      <trkpt lat="50.554" lon="3.54809">
        <ele>41.920309</ele>
        <time>2019-09-17T14:52:44.731Z</time>
      </trkpt>
      <trkpt lat="50.55364" lon="3.54813">
        <ele>41.906083</ele>
        <time>2019-09-17T14:52:52.360Z</time>
      </trkpt>
      <trkpt lat="50.55207" lon="3.54961">
        <ele>42.713895</ele>
        <time>2019-09-17T14:53:33.120Z</time>
      </trkpt>
      <trkpt lat="50.55191" lon="3.55031">
        <ele>42.915143</ele>
        <time>2019-09-17T14:53:41.566Z</time>
      </trkpt>
      <trkpt lat="50.55157" lon="3.55116">
        <ele>43.031221</ele>
        <time>2019-09-17T14:53:53.049Z</time>
      </trkpt>
      <trkpt lat="50.55145" lon="3.55144">
        <ele>43.070205</ele>
        <time>2019-09-17T14:53:56.236Z</time>
      </trkpt>
      <trkpt lat="50.55108" lon="3.55228">
        <ele>43.189103</ele>
        <time>2019-09-17T14:54:05.372Z</time>
      </trkpt>
      <trkpt lat="50.55094" lon="3.55255">
        <ele>43.144039</ele>
        <time>2019-09-17T14:54:08.463Z</time>
      </trkpt>
      <trkpt lat="50.55001" lon="3.55282">
        <ele>42.380885</ele>
        <time>2019-09-17T14:54:20.585Z</time>
      </trkpt>
      <trkpt lat="50.54849" lon="3.5518">
        <ele>41.31869</ele>
        <time>2019-09-17T14:54:40.539Z</time>
      </trkpt>
      <trkpt lat="50.54738" lon="3.55105">
        <ele>41.088336</ele>
        <time>2019-09-17T14:54:58.444Z</time>
      </trkpt>
      <trkpt lat="50.54693" lon="3.55074">
        <ele>41.455135</ele>
        <time>2019-09-17T14:55:06.792Z</time>
      </trkpt>
      <trkpt lat="50.54689" lon="3.55072">
        <ele>41.485611</ele>
        <time>2019-09-17T14:55:07.515Z</time>
      </trkpt>
      <trkpt lat="50.54665" lon="3.55052">
        <ele>41.696075</ele>
        <time>2019-09-17T14:55:12.667Z</time>
      </trkpt>
      <trkpt lat="50.54639" lon="3.55029">
        <ele>41.919994</ele>
        <time>2019-09-17T14:55:18.314Z</time>
      </trkpt>
      <trkpt lat="50.54611" lon="3.54994">
        <ele>42.191255</ele>
        <time>2019-09-17T14:55:25.473Z</time>
      </trkpt>
      <trkpt lat="50.54548" lon="3.54956">
        <ele>42.93845</ele>
        <time>2019-09-17T14:55:39.452Z</time>
      </trkpt>
      <trkpt lat="50.54492" lon="3.54932">
        <ele>43.594666</ele>
        <time>2019-09-17T14:55:50.838Z</time>
      </trkpt>
      <trkpt lat="50.54428" lon="3.54902">
        <ele>44.319126</ele>
        <time>2019-09-17T14:56:03.077Z</time>
      </trkpt>
      <trkpt lat="50.54348" lon="3.54866">
        <ele>44.855843</ele>
        <time>2019-09-17T14:56:17.516Z</time>
      </trkpt>
      <trkpt lat="50.54316" lon="3.54851">
        <ele>45.073966</ele>
        <time>2019-09-17T14:56:23.186Z</time>
      </trkpt>
      <trkpt lat="50.54293" lon="3.54836">
        <ele>45.241125</ele>
        <time>2019-09-17T14:56:27.766Z</time>
      </trkpt>
      <trkpt lat="50.5425" lon="3.54789">
        <ele>45.615974</ele>
        <time>2019-09-17T14:56:36.452Z</time>
      </trkpt>
      <trkpt lat="50.54189" lon="3.54724">
        <ele>46.198014</ele>
        <time>2019-09-17T14:56:49.490Z</time>
      </trkpt>
      <trkpt lat="50.54183" lon="3.54702">
        <ele>46.320192</ele>
        <time>2019-09-17T14:56:52.530Z</time>
      </trkpt>
      <trkpt lat="50.54148" lon="3.54582">
        <ele>46.935536</ele>
        <time>2019-09-17T14:57:07.877Z</time>
      </trkpt>
      <trkpt lat="50.54141" lon="3.5453">
        <ele>47.086589</ele>
        <time>2019-09-17T14:57:14.076Z</time>
      </trkpt>
      <trkpt lat="50.54138" lon="3.54508">
        <ele>47.152307</ele>
        <time>2019-09-17T14:57:16.826Z</time>
      </trkpt>
      <trkpt lat="50.54133" lon="3.54488">
        <ele>47.212676</ele>
        <time>2019-09-17T14:57:19.296Z</time>
      </trkpt>
      <trkpt lat="50.54113" lon="3.54448">
        <ele>47.357255</ele>
        <time>2019-09-17T14:57:24.783Z</time>
      </trkpt>
      <trkpt lat="50.54093" lon="3.54426">
        <ele>47.467654</ele>
        <time>2019-09-17T14:57:28.844Z</time>
      </trkpt>
      <trkpt lat="50.54011" lon="3.54358">
        <ele>47.206309</ele>
        <time>2019-09-17T14:57:42.133Z</time>
      </trkpt>
      <trkpt lat="50.54" lon="3.54351">
        <ele>47.087645</ele>
        <time>2019-09-17T14:57:43.613Z</time>
      </trkpt>
      <trkpt lat="50.53985" lon="3.54339">
        <ele>46.918591</ele>
        <time>2019-09-17T14:57:45.707Z</time>
      </trkpt>
      <trkpt lat="50.53958" lon="3.54335">
        <ele>46.643134</ele>
        <time>2019-09-17T14:57:49.007Z</time>
      </trkpt>
      <trkpt lat="50.53932" lon="3.54346">
        <ele>46.37429</ele>
        <time>2019-09-17T14:57:52.190Z</time>
      </trkpt>
      <trkpt lat="50.53806" lon="3.54383">
        <ele>44.517435</ele>
        <time>2019-09-17T14:58:06.602Z</time>
      </trkpt>
      <trkpt lat="50.53683" lon="3.5442">
        <ele>42.443561</ele>
        <time>2019-09-17T14:58:20.519Z</time>
      </trkpt>
      <trkpt lat="50.53569" lon="3.54336">
        <ele>40.73311</ele>
        <time>2019-09-17T14:58:41.578Z</time>
      </trkpt>
      <trkpt lat="50.53466" lon="3.54251">
        <ele>39.545528</ele>
        <time>2019-09-17T14:59:01.622Z</time>
      </trkpt>
      <trkpt lat="50.53452" lon="3.54235">
        <ele>39.392852</ele>
        <time>2019-09-17T14:59:04.630Z</time>
      </trkpt>
      <trkpt lat="50.53424" lon="3.54177">
        <ele>38.978038</ele>
        <time>2019-09-17T14:59:12.879Z</time>
      </trkpt>
      <trkpt lat="50.5338" lon="3.53948">
        <ele>38.190871</ele>
        <time>2019-09-17T14:59:41.325Z</time>
      </trkpt>
      <trkpt lat="50.53363" lon="3.53717">
        <ele>37.553042</ele>
        <time>2019-09-17T15:00:09.669Z</time>
      </trkpt>
      <trkpt lat="50.53338" lon="3.536">
        <ele>37.205851</ele>
        <time>2019-09-17T15:00:24.316Z</time>
      </trkpt>
      <trkpt lat="50.53181" lon="3.53222">
        <ele>35.042404</ele>
        <time>2019-09-17T15:01:15.427Z</time>
      </trkpt>
      <trkpt lat="50.53094" lon="3.52967">
        <ele>33.834079</ele>
        <time>2019-09-17T15:01:48.554Z</time>
      </trkpt>
      <trkpt lat="50.53077" lon="3.52917">
        <ele>33.625337</ele>
        <time>2019-09-17T15:01:55.349Z</time>
      </trkpt>
      <trkpt lat="50.53069" lon="3.52893">
        <ele>33.529647</ele>
        <time>2019-09-17T15:01:58.459Z</time>
      </trkpt>
      <trkpt lat="50.53059" lon="3.5286">
        <ele>33.3952</ele>
        <time>2019-09-17T15:02:02.949Z</time>
      </trkpt>
      <trkpt lat="50.53055" lon="3.5285">
        <ele>33.366518</ele>
        <time>2019-09-17T15:02:04.359Z</time>
      </trkpt>
      <trkpt lat="50.53039" lon="3.52801">
        <ele>33.360671</ele>
        <time>2019-09-17T15:02:11.109Z</time>
      </trkpt>
      <trkpt lat="50.5297" lon="3.52582">
        <ele>33.350736</ele>
        <time>2019-09-17T15:02:43.231Z</time>
      </trkpt>
      <trkpt lat="50.53017" lon="3.52536">
        <ele>33.408268</ele>
        <time>2019-09-17T15:02:55.245Z</time>
      </trkpt>
      <trkpt lat="50.53087" lon="3.52472">
        <ele>33.492233</ele>
        <time>2019-09-17T15:03:11.914Z</time>
      </trkpt>
      <trkpt lat="50.53075" lon="3.524">
        <ele>33.508252</ele>
        <time>2019-09-17T15:03:21.277Z</time>
      </trkpt>
      <trkpt lat="50.53069" lon="3.52383">
        <ele>33.496791</ele>
        <time>2019-09-17T15:03:23.633Z</time>
      </trkpt>
      <trkpt lat="50.53017" lon="3.52251">
        <ele>33.406152</ele>
        <time>2019-09-17T15:03:43.356Z</time>
      </trkpt>
      <trkpt lat="50.53004" lon="3.52202">
        <ele>33.375406</ele>
        <time>2019-09-17T15:03:49.970Z</time>
      </trkpt>
      <trkpt lat="50.53008" lon="3.52185">
        <ele>33.36521</ele>
        <time>2019-09-17T15:03:52.095Z</time>
      </trkpt>
      <trkpt lat="50.53009" lon="3.5217">
        <ele>33.368671</ele>
        <time>2019-09-17T15:03:54.064Z</time>
      </trkpt>
      <trkpt lat="50.53012" lon="3.52147">
        <ele>33.417133</ele>
        <time>2019-09-17T15:03:56.811Z</time>
      </trkpt>
      <trkpt lat="50.53017" lon="3.52125">
        <ele>33.467698</ele>
        <time>2019-09-17T15:04:00.031Z</time>
      </trkpt>
      <trkpt lat="50.5303" lon="3.52086">
        <ele>33.561065</ele>
        <time>2019-09-17T15:04:05.907Z</time>
      </trkpt>
      <trkpt lat="50.53034" lon="3.52074">
        <ele>33.587972</ele>
        <time>2019-09-17T15:04:07.769Z</time>
      </trkpt>
      <trkpt lat="50.5306" lon="3.5203">
        <ele>33.71586</ele>
        <time>2019-09-17T15:04:16.363Z</time>
      </trkpt>
      <trkpt lat="50.53079" lon="3.52013">
        <ele>33.78873</ele>
        <time>2019-09-17T15:04:21.276Z</time>
      </trkpt>
      <trkpt lat="50.53109" lon="3.51998">
        <ele>33.893085</ele>
        <time>2019-09-17T15:04:28.501Z</time>
      </trkpt>
      <trkpt lat="50.53098" lon="3.5196">
        <ele>33.963458</ele>
        <time>2019-09-17T15:04:34.709Z</time>
      </trkpt>
      <trkpt lat="50.53098" lon="3.51957">
        <ele>33.965135</ele>
        <time>2019-09-17T15:04:35.021Z</time>
      </trkpt>
      <trkpt lat="50.5309" lon="3.51933">
        <ele>33.983742</ele>
        <time>2019-09-17T15:04:38.680Z</time>
      </trkpt>
      <trkpt lat="50.5309" lon="3.51932">
        <ele>33.984817</ele>
        <time>2019-09-17T15:04:38.895Z</time>
      </trkpt>
      <trkpt lat="50.53085" lon="3.51914">
        <ele>33.998513</ele>
        <time>2019-09-17T15:04:41.613Z</time>
      </trkpt>
      <trkpt lat="50.53083" lon="3.51907">
        <ele>34.003746</ele>
        <time>2019-09-17T15:04:42.575Z</time>
      </trkpt>
      <trkpt lat="50.53076" lon="3.51886">
        <ele>34.020742</ele>
        <time>2019-09-17T15:04:45.703Z</time>
      </trkpt>
      <trkpt lat="50.53075" lon="3.51882">
        <ele>34.02354</ele>
        <time>2019-09-17T15:04:46.261Z</time>
      </trkpt>
      <trkpt lat="50.53058" lon="3.51826">
        <ele>34.066996</ele>
        <time>2019-09-17T15:04:54.256Z</time>
      </trkpt>
      <trkpt lat="50.5305" lon="3.5183">
        <ele>34.076201</ele>
        <time>2019-09-17T15:04:55.957Z</time>
      </trkpt>
      <trkpt lat="50.5304" lon="3.51833">
        <ele>34.088002</ele>
        <time>2019-09-17T15:04:58.077Z</time>
      </trkpt>
      <trkpt lat="50.53017" lon="3.51852">
        <ele>34.116441</ele>
        <time>2019-09-17T15:05:03.515Z</time>
      </trkpt>
      <trkpt lat="50.52951" lon="3.51909">
        <ele>34.083767</ele>
        <time>2019-09-17T15:05:18.106Z</time>
      </trkpt>
      <trkpt lat="50.52925" lon="3.51854">
        <ele>34.013695</ele>
        <time>2019-09-17T15:05:26.299Z</time>
      </trkpt>
      <trkpt lat="50.52908" lon="3.518">
        <ele>33.95205</ele>
        <time>2019-09-17T15:05:33.690Z</time>
      </trkpt>
      <trkpt lat="50.52879" lon="3.51748">
        <ele>33.881087</ele>
        <time>2019-09-17T15:05:42.420Z</time>
      </trkpt>
      <trkpt lat="50.52867" lon="3.51709">
        <ele>33.970844</ele>
        <time>2019-09-17T15:05:47.874Z</time>
      </trkpt>
      <trkpt lat="50.52842" lon="3.51636">
        <ele>34.32758</ele>
        <time>2019-09-17T15:06:00.165Z</time>
      </trkpt>
      <trkpt lat="50.5284" lon="3.51629">
        <ele>34.359869</ele>
        <time>2019-09-17T15:06:01.407Z</time>
      </trkpt>
      <trkpt lat="50.52822" lon="3.51588">
        <ele>34.570663</ele>
        <time>2019-09-17T15:06:09.247Z</time>
      </trkpt>
      <trkpt lat="50.52783" lon="3.5152">
        <ele>34.968064</ele>
        <time>2019-09-17T15:06:23.403Z</time>
      </trkpt>
      <trkpt lat="50.5277" lon="3.51505">
        <ele>35.073155</ele>
        <time>2019-09-17T15:06:26.872Z</time>
      </trkpt>
      <trkpt lat="50.52729" lon="3.51449">
        <ele>35.188676</ele>
        <time>2019-09-17T15:06:38.848Z</time>
      </trkpt>
      <trkpt lat="50.52774" lon="3.51363">
        <ele>35.337709</ele>
        <time>2019-09-17T15:06:53.623Z</time>
      </trkpt>
      <trkpt lat="50.52814" lon="3.51288">
        <ele>35.488752</ele>
        <time>2019-09-17T15:07:06.335Z</time>
      </trkpt>
      <trkpt lat="50.52789" lon="3.51285">
        <ele>35.607326</ele>
        <time>2019-09-17T15:07:11.235Z</time>
      </trkpt>
      <trkpt lat="50.52799" lon="3.51269">
        <ele>35.675171</ele>
        <time>2019-09-17T15:07:13.749Z</time>
      </trkpt>
      <trkpt lat="50.52867" lon="3.51134">
        <ele>36.186019</ele>
        <time>2019-09-17T15:07:36.894Z</time>
      </trkpt>
      <trkpt lat="50.52966" lon="3.50894">
        <ele>39.507084</ele>
        <time>2019-09-17T15:08:28.773Z</time>
      </trkpt>
      <trkpt lat="50.52998" lon="3.50805">
        <ele>40.915644</ele>
        <time>2019-09-17T15:08:48.654Z</time>
      </trkpt>
      <trkpt lat="50.53015" lon="3.50751">
        <ele>41.768198</ele>
        <time>2019-09-17T15:09:00.146Z</time>
      </trkpt>
      <trkpt lat="50.53061" lon="3.50585">
        <ele>44.120483</ele>
        <time>2019-09-17T15:09:33.447Z</time>
      </trkpt>
      <trkpt lat="50.53077" lon="3.50493">
        <ele>44.606929</ele>
        <time>2019-09-17T15:09:48.610Z</time>
      </trkpt>
      <trkpt lat="50.53063" lon="3.50413">
        <ele>45.033871</ele>
        <time>2019-09-17T15:10:01.477Z</time>
      </trkpt>
      <trkpt lat="50.53023" lon="3.50303">
        <ele>44.947304</ele>
        <time>2019-09-17T15:10:17.170Z</time>
      </trkpt>
      <trkpt lat="50.53014" lon="3.50277">
        <ele>44.647808</ele>
        <time>2019-09-17T15:10:20.233Z</time>
      </trkpt>
      <trkpt lat="50.53009" lon="3.50267">
        <ele>44.524664</ele>
        <time>2019-09-17T15:10:21.614Z</time>
      </trkpt>
      <trkpt lat="50.53005" lon="3.50257">
        <ele>44.400708</ele>
        <time>2019-09-17T15:10:22.908Z</time>
      </trkpt>
      <trkpt lat="50.52993" lon="3.50234">
        <ele>44.110717</ele>
        <time>2019-09-17T15:10:25.804Z</time>
      </trkpt>
      <trkpt lat="50.52963" lon="3.50179">
        <ele>43.378995</ele>
        <time>2019-09-17T15:10:30.982Z</time>
      </trkpt>
      <trkpt lat="50.52955" lon="3.50169">
        <ele>43.220523</ele>
        <time>2019-09-17T15:10:32.100Z</time>
      </trkpt>
      <trkpt lat="50.52947" lon="3.5016">
        <ele>43.065246</ele>
        <time>2019-09-17T15:10:33.118Z</time>
      </trkpt>
      <trkpt lat="50.52899" lon="3.50114">
        <ele>41.995124</ele>
        <time>2019-09-17T15:10:39.146Z</time>
      </trkpt>
      <trkpt lat="50.52877" lon="3.50086">
        <ele>41.350056</ele>
        <time>2019-09-17T15:10:42.049Z</time>
      </trkpt>
      <trkpt lat="50.52862" lon="3.50053">
        <ele>40.751331</ele>
        <time>2019-09-17T15:10:44.742Z</time>
      </trkpt>
      <trkpt lat="50.52823" lon="3.49916">
        <ele>38.569764</ele>
        <time>2019-09-17T15:10:55.045Z</time>
      </trkpt>
      <trkpt lat="50.52816" lon="3.49901">
        <ele>38.40932</ele>
        <time>2019-09-17T15:10:56.428Z</time>
      </trkpt>
      <trkpt lat="50.52782" lon="3.49813">
        <ele>37.826996</ele>
        <time>2019-09-17T15:11:04.378Z</time>
      </trkpt>
      <trkpt lat="50.52741" lon="3.4971">
        <ele>37.144775</ele>
        <time>2019-09-17T15:11:14.215Z</time>
      </trkpt>
      <trkpt lat="50.5273" lon="3.49651">
        <ele>36.907255</ele>
        <time>2019-09-17T15:11:19.603Z</time>
      </trkpt>
      <trkpt lat="50.52721" lon="3.49559">
        <ele>37.062221</ele>
        <time>2019-09-17T15:11:28.304Z</time>
      </trkpt>
      <trkpt lat="50.52714" lon="3.49533">
        <ele>37.110852</ele>
        <time>2019-09-17T15:11:31.079Z</time>
      </trkpt>
      <trkpt lat="50.52712" lon="3.49529">
        <ele>37.119009</ele>
        <time>2019-09-17T15:11:31.651Z</time>
      </trkpt>
      <trkpt lat="50.52677" lon="3.49452">
        <ele>37.275999</ele>
        <time>2019-09-17T15:11:41.484Z</time>
      </trkpt>
      <trkpt lat="50.52627" lon="3.49401">
        <ele>37.877631</ele>
        <time>2019-09-17T15:11:52.302Z</time>
      </trkpt>
      <trkpt lat="50.52606" lon="3.49393">
        <ele>38.258981</ele>
        <time>2019-09-17T15:11:56.457Z</time>
      </trkpt>
      <trkpt lat="50.5252" lon="3.49298">
        <ele>40.100455</ele>
        <time>2019-09-17T15:12:20.353Z</time>
      </trkpt>
      <trkpt lat="50.52468" lon="3.49266">
        <ele>41.242226</ele>
        <time>2019-09-17T15:12:34.833Z</time>
      </trkpt>
      <trkpt lat="50.52437" lon="3.49238">
        <ele>42.029166</ele>
        <time>2019-09-17T15:12:44.023Z</time>
      </trkpt>
      <trkpt lat="50.524" lon="3.49201">
        <ele>42.978242</ele>
        <time>2019-09-17T15:12:55.106Z</time>
      </trkpt>
      <trkpt lat="50.52401" lon="3.49197">
        <ele>43.034808</ele>
        <time>2019-09-17T15:12:55.720Z</time>
      </trkpt>
      <trkpt lat="50.52473" lon="3.48914">
        <ele>45.466148</ele>
        <time>2019-09-17T15:13:35.835Z</time>
      </trkpt>
      <trkpt lat="50.52465" lon="3.4891">
        <ele>45.532147</ele>
        <time>2019-09-17T15:13:37.584Z</time>
      </trkpt>
      <trkpt lat="50.5234" lon="3.4876">
        <ele>44.187832</ele>
        <time>2019-09-17T15:14:05.124Z</time>
      </trkpt>
      <trkpt lat="50.52295" lon="3.4872">
        <ele>43.43456</ele>
        <time>2019-09-17T15:14:13.111Z</time>
      </trkpt>
      <trkpt lat="50.52103" lon="3.48497">
        <ele>36.745676</ele>
        <time>2019-09-17T15:14:48.439Z</time>
      </trkpt>
      <trkpt lat="50.52011" lon="3.48403">
        <ele>33.622307</ele>
        <time>2019-09-17T15:15:04.552Z</time>
      </trkpt>
      <trkpt lat="50.52011" lon="3.48402">
        <ele>33.600999</ele>
        <time>2019-09-17T15:15:04.638Z</time>
      </trkpt>
      <trkpt lat="50.51792" lon="3.48157">
        <ele>29.22064</ele>
        <time>2019-09-17T15:15:48.564Z</time>
      </trkpt>
      <trkpt lat="50.51777" lon="3.48156">
        <ele>29.077033</ele>
        <time>2019-09-17T15:15:51.382Z</time>
      </trkpt>
      <trkpt lat="50.51728" lon="3.48204">
        <ele>28.540118</ele>
        <time>2019-09-17T15:16:01.810Z</time>
      </trkpt>
      <trkpt lat="50.51695" lon="3.48154">
        <ele>28.129932</ele>
        <time>2019-09-17T15:16:10.331Z</time>
      </trkpt>
      <trkpt lat="50.51648" lon="3.48057">
        <ele>27.868045</ele>
        <time>2019-09-17T15:16:24.987Z</time>
      </trkpt>
      <trkpt lat="50.51598" lon="3.47983">
        <ele>27.637788</ele>
        <time>2019-09-17T15:16:38.442Z</time>
      </trkpt>
      <trkpt lat="50.51526" lon="3.47903">
        <ele>27.208719</ele>
        <time>2019-09-17T15:16:55.060Z</time>
      </trkpt>
      <trkpt lat="50.51504" lon="3.47868">
        <ele>27.026386</ele>
        <time>2019-09-17T15:17:00.931Z</time>
      </trkpt>
      <trkpt lat="50.51481" lon="3.47797">
        <ele>26.737204</ele>
        <time>2019-09-17T15:17:10.100Z</time>
      </trkpt>
      <trkpt lat="50.51464" lon="3.47765">
        <ele>26.589321</ele>
        <time>2019-09-17T15:17:14.729Z</time>
      </trkpt>
      <trkpt lat="50.51343" lon="3.47552">
        <ele>25.349007</ele>
        <time>2019-09-17T15:17:47.378Z</time>
      </trkpt>
      <trkpt lat="50.51331" lon="3.47534">
        <ele>25.241079</ele>
        <time>2019-09-17T15:17:50.502Z</time>
      </trkpt>
      <trkpt lat="50.5128" lon="3.47442">
        <ele>24.865801</ele>
        <time>2019-09-17T15:18:04.999Z</time>
      </trkpt>
      <trkpt lat="50.51194" lon="3.47315">
        <ele>24.353918</ele>
        <time>2019-09-17T15:18:27.242Z</time>
      </trkpt>
      <trkpt lat="50.51171" lon="3.47295">
        <ele>24.302673</ele>
        <time>2019-09-17T15:18:32.107Z</time>
      </trkpt>
      <trkpt lat="50.51144" lon="3.47283">
        <ele>24.247684</ele>
        <time>2019-09-17T15:18:37.437Z</time>
      </trkpt>
      <trkpt lat="50.51091" lon="3.4727">
        <ele>24.142132</ele>
        <time>2019-09-17T15:18:48.016Z</time>
      </trkpt>
      <trkpt lat="50.51066" lon="3.47262">
        <ele>24.091781</ele>
        <time>2019-09-17T15:18:53.115Z</time>
      </trkpt>
      <trkpt lat="50.51059" lon="3.47247">
        <ele>24.068046</ele>
        <time>2019-09-17T15:18:54.949Z</time>
      </trkpt>
      <trkpt lat="50.51052" lon="3.47236">
        <ele>24.049386</ele>
        <time>2019-09-17T15:18:56.319Z</time>
      </trkpt>
      <trkpt lat="50.50985" lon="3.47169">
        <ele>24.260605</ele>
        <time>2019-09-17T15:19:08.643Z</time>
      </trkpt>
      <trkpt lat="50.50936" lon="3.47116">
        <ele>24.436806</ele>
        <time>2019-09-17T15:19:18.328Z</time>
      </trkpt>
      <trkpt lat="50.50899" lon="3.47062">
        <ele>24.592969</ele>
        <time>2019-09-17T15:19:26.967Z</time>
      </trkpt>
      <trkpt lat="50.50871" lon="3.47017">
        <ele>24.759873</ele>
        <time>2019-09-17T15:19:33.662Z</time>
      </trkpt>
      <trkpt lat="50.5085" lon="3.46978">
        <ele>24.896348</ele>
        <time>2019-09-17T15:19:39.093Z</time>
      </trkpt>
      <trkpt lat="50.5084" lon="3.46941">
        <ele>25.004362</ele>
        <time>2019-09-17T15:19:43.425Z</time>
      </trkpt>
      <trkpt lat="50.50837" lon="3.46857">
        <ele>25.227777</ele>
        <time>2019-09-17T15:19:52.404Z</time>
      </trkpt>
      <trkpt lat="50.50831" lon="3.4684">
        <ele>25.280659</ele>
        <time>2019-09-17T15:19:54.377Z</time>
      </trkpt>
      <trkpt lat="50.50821" lon="3.46826">
        <ele>25.321519</ele>
        <time>2019-09-17T15:19:56.424Z</time>
      </trkpt>
      <trkpt lat="50.50778" lon="3.46766">
        <ele>25.146109</ele>
        <time>2019-09-17T15:20:04.948Z</time>
      </trkpt>
      <trkpt lat="50.50735" lon="3.46707">
        <ele>24.971312</ele>
        <time>2019-09-17T15:20:12.928Z</time>
      </trkpt>
      <trkpt lat="50.50708" lon="3.46672">
        <ele>24.86456</ele>
        <time>2019-09-17T15:20:17.580Z</time>
      </trkpt>
      <trkpt lat="50.50681" lon="3.46651">
        <ele>24.757786</ele>
        <time>2019-09-17T15:20:21.385Z</time>
      </trkpt>
      <trkpt lat="50.50523" lon="3.46572">
        <ele>22.925896</ele>
        <time>2019-09-17T15:20:41.251Z</time>
      </trkpt>
      <trkpt lat="50.50405" lon="3.46483">
        <ele>22.795216</ele>
        <time>2019-09-17T15:20:57.039Z</time>
      </trkpt>
      <trkpt lat="50.50361" lon="3.46454">
        <ele>22.795216</ele>
        <time>2019-09-17T15:21:03.235Z</time>
      </trkpt>
      <trkpt lat="50.5034" lon="3.46438">
        <ele>22.795216</ele>
        <time>2019-09-17T15:21:06.266Z</time>
      </trkpt>
      <trkpt lat="50.50316" lon="3.46422">
        <ele>22.795216</ele>
        <time>2019-09-17T15:21:09.839Z</time>
      </trkpt>
      <trkpt lat="50.50313" lon="3.46411">
        <ele>22.795216</ele>
        <time>2019-09-17T15:21:10.820Z</time>
      </trkpt>
      <trkpt lat="50.50317" lon="3.46374">
        <ele>22.795216</ele>
        <time>2019-09-17T15:21:14.118Z</time>
      </trkpt>
      <trkpt lat="50.50321" lon="3.46347">
        <ele>22.795216</ele>
        <time>2019-09-17T15:21:16.527Z</time>
      </trkpt>
    </trkseg>
  </trk>
</gpx>